Time,TemperatureF,DewpointF,PressureIn,WindDirection,WindDirectionDegrees,WindSpeedMPH,WindSpeedGustMPH,Humidity,HourlyPrecipIn,Conditions,Clouds,dailyrainin,SoftwareType,DateUTC
2013-08-28 00:00:00,82.6,70.4,29.82,WSW,242,10.6,10.6,67,0.00,,CLR,0.00,VWS V14.01,2013-08-28 04:00:00,
2013-08-28 00:01:00,82.4,70.2,29.83,West,279,4.7,4.7,67,0.00,,FEW110,0.00,VWS V14.01,2013-08-28 04:01:00,
2013-08-28 00:02:00,82.4,70.2,29.82,SSW,196,4.7,9.4,67,0.00,,FEW110,0.00,VWS V14.01,2013-08-28 04:02:00,
2013-08-28 00:03:00,82.4,70.2,29.82,WSW,258,1.2,10.6,67,0.00,,CLR,0.00,VWS V14.01,2013-08-28 04:03:00,
2013-08-28 00:04:00,82.4,70.2,29.83,NW,315,7.1,7.1,67,0.00,,CLR,0.00,VWS V14.01,2013-08-28 04:04:00,
2013-08-28 00:05:00,82.4,70.2,29.83,WSW,252,8.3,10.6,67,0.00,,CLR,0.00,VWS V14.01,2013-08-28 04:05:00,
2013-08-28 00:06:00,82.4,70.2,29.83,West,268,3.5,8.3,67,0.00,,CLR,0.00,VWS V14.01,2013-08-28 04:06:00,
2013-08-28 00:07:00,82.4,70.2,29.83,WSW,249,4.7,10.6,67,0.00,,FEW110,0.00,VWS V14.01,2013-08-28 04:07:00,
2013-08-28 00:08:00,82.4,70.2,29.83,WNW,289,8.3,10.6,67,0.00,,CLR,0.00,VWS V14.01,2013-08-28 04:08:00,
2013-08-28 00:09:00,82.2,70.0,29.83,WSW,253,3.5,18.9,67,0.00,,CLR,0.00,VWS V14.01,2013-08-28 04:09:00,
2013-08-28 00:10:00,82.2,70.0,29.83,WNW,288,11.8,11.8,67,0.00,,CLR,0.00,VWS V14.01,2013-08-28 04:10:00,
2013-08-28 00:11:00,82.2,70.0,29.82,SW,226,3.5,16.5,67,0.00,,CLR,0.00,VWS V14.01,2013-08-28 04:11:00,
2013-08-28 00:12:00,82.2,70.0,29.82,WSW,248,0.0,0.0,67,0.00,,FEW110,0.00,VWS V14.01,2013-08-28 04:12:00,
2013-08-28 00:13:00,82.2,70.0,29.82,SW,229,3.5,3.5,67,0.00,,CLR,0.00,VWS V14.01,2013-08-28 04:13:00,
2013-08-28 00:14:00,82.2,70.0,29.82,SSW,198,8.3,9.4,67,0.00,,CLR,0.00,VWS V14.01,2013-08-28 04:14:00,
2013-08-28 00:15:00,82.2,70.0,29.82,North,350,7.1,15.3,67,0.00,,CLR,0.00,VWS V14.01,2013-08-28 04:15:00,
2013-08-28 00:16:00,82.2,70.0,29.82,SSW,202,8.3,10.6,67,0.00,,CLR,0.00,VWS V14.01,2013-08-28 04:16:00,
2013-08-28 00:17:00,82.0,69.8,29.82,SSW,209,7.1,7.1,67,0.00,,FEW110,0.00,VWS V14.01,2013-08-28 04:17:00,
2013-08-28 00:18:00,82.0,69.8,29.82,WNW,290,4.7,7.1,67,0.00,,CLR,0.00,VWS V14.01,2013-08-28 04:18:00,
2013-08-28 00:19:00,82.0,69.8,29.82,West,272,2.4,10.6,67,0.00,,CLR,0.00,VWS V14.01,2013-08-28 04:19:00,
2013-08-28 00:20:00,82.0,69.8,29.82,West,259,0.0,7.1,67,0.00,,CLR,0.00,VWS V14.01,2013-08-28 04:20:00,
2013-08-28 00:21:00,82.0,69.8,29.82,SW,229,2.4,9.4,67,0.00,,CLR,0.00,VWS V14.01,2013-08-28 04:21:00,
2013-08-28 00:22:00,82.0,70.3,29.82,NW,304,9.4,11.8,68,0.00,,FEW110,0.00,VWS V14.01,2013-08-28 04:22:00,
2013-08-28 00:23:00,82.0,70.3,29.82,WNW,300,4.7,11.8,68,0.00,,CLR,0.00,VWS V14.01,2013-08-28 04:23:00,
2013-08-28 00:24:00,82.0,70.3,29.83,SW,221,1.2,7.1,68,0.00,,CLR,0.00,VWS V14.01,2013-08-28 04:24:00,
2013-08-28 00:25:00,82.0,70.3,29.82,SW,227,2.4,4.7,68,0.00,,CLR,0.00,VWS V14.01,2013-08-28 04:25:00,
2013-08-28 00:26:00,81.8,70.1,29.83,WSW,247,1.2,3.5,68,0.00,,CLR,0.00,VWS V14.01,2013-08-28 04:26:00,
2013-08-28 00:27:00,81.8,70.1,29.83,SSW,196,5.9,5.9,68,0.00,,FEW110,0.00,VWS V14.01,2013-08-28 04:27:00,
2013-08-28 00:28:00,81.8,70.1,29.83,WNW,290,0.0,5.9,68,0.00,,CLR,0.00,VWS V14.01,2013-08-28 04:28:00,
2013-08-28 00:29:00,81.8,70.1,29.83,SSW,203,3.5,4.7,68,0.00,,CLR,0.00,VWS V14.01,2013-08-28 04:29:00,
2013-08-28 00:30:00,81.8,70.1,29.83,SSW,197,3.5,7.1,68,0.00,,CLR,0.00,VWS V14.01,2013-08-28 04:30:00,
2013-08-28 00:31:00,81.8,70.1,29.83,SW,224,0.0,4.7,68,0.00,,CLR,0.00,VWS V14.01,2013-08-28 04:31:00,
2013-08-28 00:32:00,81.8,70.1,29.83,SE,142,1.2,8.3,68,0.00,,FEW110,0.00,VWS V14.01,2013-08-28 04:32:00,
2013-08-28 00:33:00,81.6,69.9,29.83,SE,142,0.0,8.3,68,0.00,,CLR,0.00,VWS V14.01,2013-08-28 04:33:00,
2013-08-28 00:34:00,81.6,69.9,29.83,SW,217,9.4,15.3,68,0.00,,CLR,0.00,VWS V14.01,2013-08-28 04:34:00,
2013-08-28 00:35:00,81.6,69.9,29.83,WSW,248,9.4,15.3,68,0.00,,CLR,0.00,VWS V14.01,2013-08-28 04:35:00,
2013-08-28 00:36:00,81.6,69.9,29.83,WSW,239,2.4,9.4,68,0.00,,CLR,0.00,VWS V14.01,2013-08-28 04:36:00,
2013-08-28 00:37:00,81.6,69.9,29.82,SSW,196,3.5,8.3,68,0.00,,FEW110,0.00,VWS V14.01,2013-08-28 04:37:00,
2013-08-28 00:38:00,81.6,69.9,29.82,SSW,196,0.0,8.3,68,0.00,,CLR,0.00,VWS V14.01,2013-08-28 04:38:00,
2013-08-28 00:39:00,81.4,69.7,29.82,NW,315,1.2,3.5,68,0.00,,CLR,0.00,VWS V14.01,2013-08-28 04:39:00,
2013-08-28 00:40:00,81.4,69.7,29.83,NNW,338,1.2,5.9,68,0.00,,CLR,0.00,VWS V14.01,2013-08-28 04:40:00,
2013-08-28 00:41:00,81.4,69.7,29.83,SSW,212,9.4,11.8,68,0.00,,CLR,0.00,VWS V14.01,2013-08-28 04:41:00,
2013-08-28 00:42:00,81.4,69.7,29.83,WSW,256,5.9,5.9,68,0.00,,CLR,0.00,VWS V14.01,2013-08-28 04:42:00,
2013-08-28 00:43:00,81.4,69.7,29.83,WSW,242,9.4,9.4,68,0.00,,CLR,0.00,VWS V14.01,2013-08-28 04:43:00,
2013-08-28 00:44:00,81.4,69.7,29.83,WSW,248,5.9,9.4,68,0.00,,CLR,0.00,VWS V14.01,2013-08-28 04:44:00,
2013-08-28 00:45:00,81.4,69.7,29.82,ENE,71,1.2,7.1,68,0.00,,CLR,0.00,VWS V14.01,2013-08-28 04:45:00,
2013-08-28 00:46:00,81.4,69.7,29.83,SW,220,2.4,5.9,68,0.00,,CLR,0.00,VWS V14.01,2013-08-28 04:46:00,
2013-08-28 00:47:00,81.2,69.5,29.83,South,186,1.2,4.7,68,0.00,,CLR,0.00,VWS V14.01,2013-08-28 04:47:00,
2013-08-28 00:48:00,81.2,69.5,29.83,South,186,0.0,4.7,68,0.00,,CLR,0.00,VWS V14.01,2013-08-28 04:48:00,
2013-08-28 00:49:00,81.2,69.5,29.83,WSW,254,4.7,4.7,68,0.00,,CLR,0.00,VWS V14.01,2013-08-28 04:49:00,
2013-08-28 00:50:00,81.2,69.5,29.83,South,175,4.7,7.1,68,0.00,,CLR,0.00,VWS V14.01,2013-08-28 04:50:00,
2013-08-28 00:51:00,81.2,69.5,29.83,SW,232,2.4,10.6,68,0.00,,CLR,0.00,VWS V14.01,2013-08-28 04:51:00,
2013-08-28 00:52:00,81.2,69.9,29.82,WNW,302,1.2,7.1,69,0.00,,CLR,0.00,VWS V14.01,2013-08-28 04:52:00,
2013-08-28 00:53:00,81.2,69.5,29.82,WNW,301,0.0,7.1,68,0.00,,CLR,0.00,VWS V14.01,2013-08-28 04:53:00,
2013-08-28 00:54:00,81.2,69.5,29.82,WNW,290,3.5,10.6,68,0.00,,CLR,0.00,VWS V14.01,2013-08-28 04:54:00,
2013-08-28 00:55:00,81.1,69.8,29.82,South,170,4.7,4.7,69,0.00,,CLR,0.00,VWS V14.01,2013-08-28 04:55:00,
2013-08-28 00:56:00,81.1,69.8,29.82,SSW,213,7.1,7.1,69,0.00,,CLR,0.00,VWS V14.01,2013-08-28 04:56:00,
2013-08-28 00:57:00,81.1,69.8,29.82,NNW,342,1.2,7.1,69,0.00,,CLR,0.00,VWS V14.01,2013-08-28 04:57:00,
2013-08-28 00:58:00,81.1,69.8,29.82,NW,309,2.4,7.1,69,0.00,,CLR,0.00,VWS V14.01,2013-08-28 04:58:00,
2013-08-28 00:59:00,81.1,69.8,29.82,SW,220,1.2,5.9,69,0.00,,CLR,0.00,VWS V14.01,2013-08-28 04:59:00,
2013-08-28 01:00:00,81.1,69.8,29.82,SW,217,1.2,3.5,69,0.00,,CLR,0.00,VWS V14.01,2013-08-28 05:00:00,
2013-08-28 01:01:00,81.1,69.8,29.82,SW,218,7.1,7.1,69,0.00,,CLR,0.00,VWS V14.01,2013-08-28 05:01:00,
2013-08-28 01:02:00,80.9,69.7,29.82,SW,233,0.0,11.8,69,0.00,,CLR,0.00,VWS V14.01,2013-08-28 05:02:00,
2013-08-28 01:03:00,80.9,69.7,29.82,SW,233,0.0,11.8,69,0.00,,CLR,0.00,VWS V14.01,2013-08-28 05:03:00,
2013-08-28 01:04:00,80.9,69.7,29.82,SW,233,1.2,4.7,69,0.00,,CLR,0.00,VWS V14.01,2013-08-28 05:04:00,
2013-08-28 01:05:00,80.9,69.7,29.82,WNW,291,3.5,3.5,69,0.00,,CLR,0.00,VWS V14.01,2013-08-28 05:05:00,
2013-08-28 01:06:00,80.9,69.7,29.82,SW,225,2.4,11.8,69,0.00,,CLR,0.00,VWS V14.01,2013-08-28 05:06:00,
2013-08-28 01:07:00,80.9,69.7,29.81,WNW,302,7.1,8.3,69,0.00,,CLR,0.00,VWS V14.01,2013-08-28 05:07:00,
2013-08-28 01:08:00,80.9,69.7,29.81,WNW,302,7.1,8.3,69,0.00,,CLR,0.00,VWS V14.01,2013-08-28 05:08:00,
2013-08-28 01:09:00,80.9,69.7,29.82,SW,222,0.0,7.1,69,0.00,,CLR,0.00,VWS V14.01,2013-08-28 05:09:00,
2013-08-28 01:10:00,80.9,69.7,29.81,West,267,3.5,3.5,69,0.00,,CLR,0.00,VWS V14.01,2013-08-28 05:10:00,
2013-08-28 01:11:00,80.9,69.7,29.82,South,169,4.7,9.4,69,0.00,,CLR,0.00,VWS V14.01,2013-08-28 05:11:00,
2013-08-28 01:12:00,80.7,69.5,29.82,WSW,251,2.4,5.9,69,0.00,,CLR,0.00,VWS V14.01,2013-08-28 05:12:00,
2013-08-28 01:13:00,80.7,69.5,29.82,WSW,251,2.4,5.9,69,0.00,,CLR,0.00,VWS V14.01,2013-08-28 05:13:00,
2013-08-28 01:14:00,80.7,69.5,29.82,West,269,5.9,7.1,69,0.00,,CLR,0.00,VWS V14.01,2013-08-28 05:14:00,
2013-08-28 01:15:00,80.7,69.5,29.82,West,265,11.8,11.8,69,0.00,,CLR,0.00,VWS V14.01,2013-08-28 05:15:00,
2013-08-28 01:16:00,80.7,69.5,29.82,WSW,246,5.9,11.8,69,0.00,,CLR,0.00,VWS V14.01,2013-08-28 05:16:00,
2013-08-28 01:17:00,80.7,69.0,29.82,WSW,243,3.5,5.9,68,0.00,,CLR,0.00,VWS V14.01,2013-08-28 05:17:00,
2013-08-28 01:18:00,80.7,69.0,29.82,WSW,243,3.5,5.9,68,0.00,,CLR,0.00,VWS V14.01,2013-08-28 05:18:00,
2013-08-28 01:19:00,80.7,69.0,29.82,WSW,246,3.5,3.5,68,0.00,,CLR,0.00,VWS V14.01,2013-08-28 05:19:00,
2013-08-28 01:20:00,80.7,69.5,29.82,WSW,240,2.4,7.1,69,0.00,,CLR,0.00,VWS V14.01,2013-08-28 05:20:00,
2013-08-28 01:21:00,80.7,69.5,29.82,SW,218,7.1,8.3,69,0.00,,CLR,0.00,VWS V14.01,2013-08-28 05:21:00,
2013-08-28 01:22:00,80.7,69.0,29.82,SW,230,7.1,9.4,68,0.00,,CLR,0.00,VWS V14.01,2013-08-28 05:22:00,
2013-08-28 01:23:00,80.7,69.0,29.82,SW,235,4.7,7.1,68,0.00,,CLR,0.00,VWS V14.01,2013-08-28 05:23:00,
2013-08-28 01:24:00,80.7,69.0,29.81,SSW,200,7.1,9.4,68,0.00,,CLR,0.00,VWS V14.01,2013-08-28 05:24:00,
2013-08-28 01:25:00,80.7,69.0,29.82,WSW,243,5.9,13.0,68,0.00,,CLR,0.00,VWS V14.01,2013-08-28 05:25:00,
2013-08-28 01:26:00,80.7,69.0,29.82,SW,222,2.4,7.1,68,0.00,,CLR,0.00,VWS V14.01,2013-08-28 05:26:00,
2013-08-28 01:27:00,80.7,69.0,29.82,SW,225,0.0,2.4,68,0.00,,CLR,0.00,VWS V14.01,2013-08-28 05:27:00,
2013-08-28 01:28:00,80.7,69.0,29.82,West,262,5.9,8.3,68,0.00,,CLR,0.00,VWS V14.01,2013-08-28 05:28:00,
2013-08-28 01:29:00,80.7,69.0,29.81,SW,234,3.5,7.1,68,0.00,,CLR,0.00,VWS V14.01,2013-08-28 05:29:00,
2013-08-28 01:30:00,80.7,69.0,29.82,West,259,9.4,15.3,68,0.00,,CLR,0.00,VWS V14.01,2013-08-28 05:30:00,
2013-08-28 01:31:00,80.7,69.0,29.82,SW,223,4.7,9.4,68,0.00,,CLR,0.00,VWS V14.01,2013-08-28 05:31:00,
2013-08-28 01:32:00,80.7,69.0,29.82,SSW,213,4.7,7.1,68,0.00,,CLR,0.00,VWS V14.01,2013-08-28 05:32:00,
2013-08-28 01:33:00,80.7,69.0,29.82,SSW,207,2.4,9.4,68,0.00,,CLR,0.00,VWS V14.01,2013-08-28 05:33:00,
2013-08-28 01:34:00,80.7,69.0,29.82,South,191,0.0,3.5,68,0.00,,CLR,0.00,VWS V14.01,2013-08-28 05:34:00,
2013-08-28 01:35:00,80.7,69.0,29.82,NNW,337,0.0,2.4,68,0.00,,CLR,0.00,VWS V14.01,2013-08-28 05:35:00,
2013-08-28 01:36:00,80.7,69.0,29.82,SW,232,2.4,8.3,68,0.00,,CLR,0.00,VWS V14.01,2013-08-28 05:36:00,
2013-08-28 01:37:00,80.7,69.0,29.82,West,273,1.2,10.6,68,0.00,,CLR,0.00,VWS V14.01,2013-08-28 05:37:00,
2013-08-28 01:38:00,80.7,69.0,29.82,SSW,208,3.5,3.5,68,0.00,,CLR,0.00,VWS V14.01,2013-08-28 05:38:00,
2013-08-28 01:39:00,80.7,69.0,29.82,WSW,242,2.4,7.1,68,0.00,,CLR,0.00,VWS V14.01,2013-08-28 05:39:00,
2013-08-28 01:40:00,80.7,69.0,29.82,SW,229,3.5,3.5,68,0.00,,CLR,0.00,VWS V14.01,2013-08-28 05:40:00,
2013-08-28 01:41:00,80.7,69.0,29.82,SSW,205,7.1,10.6,68,0.00,,CLR,0.00,VWS V14.01,2013-08-28 05:41:00,
2013-08-28 01:42:00,80.7,69.0,29.82,SW,215,5.9,8.3,68,0.00,,CLR,0.00,VWS V14.01,2013-08-28 05:42:00,
2013-08-28 01:43:00,80.7,69.0,29.82,SSW,206,1.2,5.9,68,0.00,,CLR,0.00,VWS V14.01,2013-08-28 05:43:00,
2013-08-28 01:44:00,80.7,69.0,29.82,NW,309,0.0,10.6,68,0.00,,CLR,0.00,VWS V14.01,2013-08-28 05:44:00,
2013-08-28 01:45:00,80.7,69.0,29.82,WSW,251,1.2,7.1,68,0.00,,CLR,0.00,VWS V14.01,2013-08-28 05:45:00,
2013-08-28 01:46:00,80.7,69.0,29.82,SSW,210,2.4,4.7,68,0.00,,CLR,0.00,VWS V14.01,2013-08-28 05:46:00,
2013-08-28 01:47:00,80.7,69.0,29.82,SW,219,0.0,2.4,68,0.00,,CLR,0.00,VWS V14.01,2013-08-28 05:47:00,
2013-08-28 01:48:00,80.7,68.6,29.82,West,271,3.5,13.0,67,0.00,,CLR,0.00,VWS V14.01,2013-08-28 05:48:00,
2013-08-28 01:49:00,80.7,68.6,29.82,West,271,0.0,4.7,67,0.00,,CLR,0.00,VWS V14.01,2013-08-28 05:49:00,
2013-08-28 01:50:00,80.7,68.6,29.82,SSW,200,4.7,10.6,67,0.00,,CLR,0.00,VWS V14.01,2013-08-28 05:50:00,
2013-08-28 01:51:00,80.7,68.6,29.82,WNW,285,4.7,8.3,67,0.00,,CLR,0.00,VWS V14.01,2013-08-28 05:51:00,
2013-08-28 01:52:00,80.7,68.6,29.82,SW,233,5.9,7.1,67,0.00,,CLR,0.00,VWS V14.01,2013-08-28 05:52:00,
2013-08-28 01:53:00,80.7,68.6,29.82,West,278,3.5,9.4,67,0.00,,CLR,0.00,VWS V14.01,2013-08-28 05:53:00,
2013-08-28 01:54:00,80.7,68.6,29.82,WSW,246,4.7,4.7,67,0.00,,CLR,0.00,VWS V14.01,2013-08-28 05:54:00,
2013-08-28 01:55:00,80.7,68.6,29.82,SW,227,1.2,8.3,67,0.00,,CLR,0.00,VWS V14.01,2013-08-28 05:55:00,
2013-08-28 01:56:00,80.7,68.6,29.82,SW,222,1.2,3.5,67,0.00,,CLR,0.00,VWS V14.01,2013-08-28 05:56:00,
2013-08-28 01:57:00,80.7,68.6,29.82,South,184,3.5,7.1,67,0.00,,CLR,0.00,VWS V14.01,2013-08-28 05:57:00,
2013-08-28 01:58:00,80.7,68.6,29.82,South,184,3.5,7.1,67,0.00,,CLR,0.00,VWS V14.01,2013-08-28 05:58:00,
2013-08-28 01:59:00,80.7,68.6,29.82,SW,225,3.5,5.9,67,0.00,,CLR,0.00,VWS V14.01,2013-08-28 05:59:00,
2013-08-28 02:00:00,80.7,68.6,29.82,WSW,254,2.4,7.1,67,0.00,,CLR,0.00,VWS V14.01,2013-08-28 06:00:00,
2013-08-28 02:01:00,80.7,68.6,29.82,WSW,242,3.5,10.6,67,0.00,,CLR,0.00,VWS V14.01,2013-08-28 06:01:00,
2013-08-28 02:02:00,80.7,68.6,29.82,WSW,252,0.0,4.7,67,0.00,,CLR,0.00,VWS V14.01,2013-08-28 06:02:00,
2013-08-28 02:03:00,80.7,68.6,29.82,SSW,210,0.0,2.4,67,0.00,,CLR,0.00,VWS V14.01,2013-08-28 06:03:00,
2013-08-28 02:04:00,80.7,68.6,29.82,SW,233,2.4,4.7,67,0.00,,CLR,0.00,VWS V14.01,2013-08-28 06:04:00,
2013-08-28 02:05:00,80.7,68.6,29.82,SW,232,0.0,8.3,67,0.00,,CLR,0.00,VWS V14.01,2013-08-28 06:05:00,
2013-08-28 02:06:00,80.7,68.6,29.82,West,269,2.4,11.8,67,0.00,,CLR,0.00,VWS V14.01,2013-08-28 06:06:00,
2013-08-28 02:07:00,80.7,68.6,29.82,SSW,192,4.7,7.1,67,0.00,,CLR,0.00,VWS V14.01,2013-08-28 06:07:00,
2013-08-28 02:08:00,80.7,68.6,29.82,SW,218,4.7,11.8,67,0.00,,CLR,0.00,VWS V14.01,2013-08-28 06:08:00,
2013-08-28 02:09:00,80.7,68.6,29.82,SSW,200,1.2,4.7,67,0.00,,CLR,0.00,VWS V14.01,2013-08-28 06:09:00,
2013-08-28 02:10:00,80.7,68.6,29.82,WSW,256,7.1,7.1,67,0.00,,CLR,0.00,VWS V14.01,2013-08-28 06:10:00,
2013-08-28 02:11:00,80.7,68.6,29.82,West,280,0.0,8.3,67,0.00,,CLR,0.00,VWS V14.01,2013-08-28 06:11:00,
2013-08-28 02:12:00,80.7,68.6,29.82,SSW,198,2.4,3.5,67,0.00,,CLR,0.00,VWS V14.01,2013-08-28 06:12:00,
2013-08-28 02:13:00,80.7,68.6,29.82,South,175,0.0,5.9,67,0.00,,CLR,0.00,VWS V14.01,2013-08-28 06:13:00,
2013-08-28 02:14:00,80.7,68.6,29.82,West,261,9.4,11.8,67,0.00,,CLR,0.00,VWS V14.01,2013-08-28 06:14:00,
2013-08-28 02:15:00,80.5,68.4,29.82,SW,236,9.4,9.4,67,0.00,,CLR,0.00,VWS V14.01,2013-08-28 06:15:00,
2013-08-28 02:16:00,80.5,68.4,29.82,SW,236,1.2,10.6,67,0.00,,CLR,0.00,VWS V14.01,2013-08-28 06:16:00,
2013-08-28 02:17:00,80.5,68.4,29.82,WSW,242,1.2,5.9,67,0.00,,CLR,0.00,VWS V14.01,2013-08-28 06:17:00,
2013-08-28 02:18:00,80.5,68.4,29.81,WSW,244,2.4,5.9,67,0.00,,CLR,0.00,VWS V14.01,2013-08-28 06:18:00,
2013-08-28 02:19:00,80.5,68.4,29.81,SSW,198,5.9,5.9,67,0.00,,CLR,0.00,VWS V14.01,2013-08-28 06:19:00,
2013-08-28 02:20:00,80.5,68.4,29.81,WSW,238,4.7,9.4,67,0.00,,CLR,0.00,VWS V14.01,2013-08-28 06:20:00,
2013-08-28 02:21:00,80.5,68.4,29.81,WSW,244,0.0,4.7,67,0.00,,CLR,0.00,VWS V14.01,2013-08-28 06:21:00,
2013-08-28 02:22:00,80.5,68.4,29.81,WNW,296,2.4,7.1,67,0.00,,CLR,0.00,VWS V14.01,2013-08-28 06:22:00,
2013-08-28 02:23:00,80.5,68.4,29.81,WNW,288,2.4,3.5,67,0.00,,CLR,0.00,VWS V14.01,2013-08-28 06:23:00,
2013-08-28 02:24:00,80.5,68.4,29.81,WSW,255,10.6,11.8,67,0.00,,CLR,0.00,VWS V14.01,2013-08-28 06:24:00,
2013-08-28 02:25:00,80.5,68.4,29.81,WSW,247,3.5,10.6,67,0.00,,CLR,0.00,VWS V14.01,2013-08-28 06:25:00,
2013-08-28 02:26:00,80.5,68.4,29.81,SW,236,9.4,13.0,67,0.00,,CLR,0.00,VWS V14.01,2013-08-28 06:26:00,
2013-08-28 02:27:00,80.5,68.4,29.81,SW,220,2.4,9.4,67,0.00,,CLR,0.00,VWS V14.01,2013-08-28 06:27:00,
2013-08-28 02:28:00,80.5,68.4,29.81,WSW,251,4.7,15.3,67,0.00,,CLR,0.00,VWS V14.01,2013-08-28 06:28:00,
2013-08-28 02:29:00,80.5,68.4,29.81,SSW,209,3.5,9.4,67,0.00,,CLR,0.00,VWS V14.01,2013-08-28 06:29:00,
2013-08-28 02:30:00,80.5,68.4,29.81,SSW,197,7.1,9.4,67,0.00,,CLR,0.00,VWS V14.01,2013-08-28 06:30:00,
2013-08-28 02:31:00,80.3,68.2,29.81,WNW,293,5.9,7.1,67,0.00,,CLR,0.00,VWS V14.01,2013-08-28 06:31:00,
2013-08-28 02:32:00,80.3,68.2,29.81,SW,225,3.5,5.9,67,0.00,,CLR,0.00,VWS V14.01,2013-08-28 06:32:00,
2013-08-28 02:33:00,80.3,67.8,29.81,NW,321,5.9,7.1,66,0.00,,CLR,0.00,VWS V14.01,2013-08-28 06:33:00,
2013-08-28 02:34:00,80.3,68.2,29.81,SSW,212,1.2,10.6,67,0.00,,CLR,0.00,VWS V14.01,2013-08-28 06:34:00,
2013-08-28 02:35:00,80.3,68.2,29.81,SSW,213,7.1,9.4,67,0.00,,CLR,0.00,VWS V14.01,2013-08-28 06:35:00,
2013-08-28 02:36:00,80.3,68.2,29.81,SW,232,3.5,7.1,67,0.00,,CLR,0.00,VWS V14.01,2013-08-28 06:36:00,
2013-08-28 02:37:00,80.3,68.2,29.81,SW,234,8.3,10.6,67,0.00,,CLR,0.00,VWS V14.01,2013-08-28 06:37:00,
2013-08-28 02:38:00,80.3,68.2,29.81,SSW,206,3.5,10.6,67,0.00,,CLR,0.00,VWS V14.01,2013-08-28 06:38:00,
2013-08-28 02:39:00,80.3,68.2,29.81,WSW,254,1.2,7.1,67,0.00,,CLR,0.00,VWS V14.01,2013-08-28 06:39:00,
2013-08-28 02:40:00,80.3,67.8,29.81,WNW,294,8.3,9.4,66,0.00,,CLR,0.00,VWS V14.01,2013-08-28 06:40:00,
2013-08-28 02:41:00,80.3,67.8,29.81,SSW,210,4.7,8.3,66,0.00,,CLR,0.00,VWS V14.01,2013-08-28 06:41:00,
2013-08-28 02:42:00,80.3,67.8,29.81,SW,234,7.1,8.3,66,0.00,,CLR,0.00,VWS V14.01,2013-08-28 06:42:00,
2013-08-28 02:43:00,80.1,68.0,29.81,WSW,252,0.0,10.6,67,0.00,,OVC085,0.00,VWS V14.01,2013-08-28 06:43:00,
2013-08-28 02:44:00,80.1,67.6,29.81,West,275,0.0,3.5,66,0.00,,CLR,0.00,VWS V14.01,2013-08-28 06:44:00,
2013-08-28 02:45:00,80.1,67.6,29.81,WNW,284,0.0,3.5,66,0.00,,CLR,0.00,VWS V14.01,2013-08-28 06:45:00,
2013-08-28 02:46:00,80.1,67.6,29.81,WNW,282,2.4,2.4,66,0.00,,CLR,0.00,VWS V14.01,2013-08-28 06:46:00,
2013-08-28 02:47:00,80.1,67.6,29.81,NNW,335,3.5,4.7,66,0.00,,CLR,0.00,VWS V14.01,2013-08-28 06:47:00,
2013-08-28 02:48:00,80.1,67.6,29.81,WSW,237,1.2,9.4,66,0.00,,OVC085,0.00,VWS V14.01,2013-08-28 06:48:00,
2013-08-28 02:49:00,80.1,67.6,29.81,NW,305,2.4,5.9,66,0.00,,CLR,0.00,VWS V14.01,2013-08-28 06:49:00,
2013-08-28 02:50:00,80.1,67.6,29.81,SW,214,1.2,3.5,66,0.00,,CLR,0.00,VWS V14.01,2013-08-28 06:50:00,
2013-08-28 02:51:00,80.1,67.6,29.81,West,265,2.4,5.9,66,0.00,,CLR,0.00,VWS V14.01,2013-08-28 06:51:00,
2013-08-28 02:52:00,80.1,67.6,29.81,West,269,5.9,7.1,66,0.00,,CLR,0.00,VWS V14.01,2013-08-28 06:52:00,
2013-08-28 02:53:00,80.1,67.6,29.81,SSE,150,1.2,7.1,66,0.00,,OVC085,0.00,VWS V14.01,2013-08-28 06:53:00,
2013-08-28 02:54:00,79.9,67.4,29.81,SSW,213,3.5,13.0,66,0.00,,CLR,0.00,VWS V14.01,2013-08-28 06:54:00,
2013-08-28 02:55:00,79.9,67.4,29.81,SSW,208,5.9,5.9,66,0.00,,CLR,0.00,VWS V14.01,2013-08-28 06:55:00,
2013-08-28 02:56:00,79.9,67.4,29.81,SW,225,5.9,7.1,66,0.00,,CLR,0.00,VWS V14.01,2013-08-28 06:56:00,
2013-08-28 02:57:00,79.9,67.4,29.81,SSW,204,1.2,15.3,66,0.00,,CLR,0.00,VWS V14.01,2013-08-28 06:57:00,
2013-08-28 02:58:00,79.9,67.4,29.81,SSW,209,3.5,3.5,66,0.00,,OVC085,0.00,VWS V14.01,2013-08-28 06:58:00,
2013-08-28 02:59:00,79.9,67.4,29.81,SSW,213,0.0,4.7,66,0.00,,CLR,0.00,VWS V14.01,2013-08-28 06:59:00,
2013-08-28 03:00:00,79.9,67.8,29.81,West,279,8.3,13.0,67,0.00,,CLR,0.00,VWS V14.01,2013-08-28 07:00:00,
2013-08-28 03:01:00,79.9,67.8,29.81,SW,225,2.4,8.3,67,0.00,,CLR,0.00,VWS V14.01,2013-08-28 07:01:00,
2013-08-28 03:02:00,79.9,67.8,29.81,West,267,1.2,3.5,67,0.00,,CLR,0.00,VWS V14.01,2013-08-28 07:02:00,
2013-08-28 03:03:00,79.9,67.8,29.81,SW,219,1.2,3.5,67,0.00,,OVC085,0.00,VWS V14.01,2013-08-28 07:03:00,
2013-08-28 03:04:00,79.8,67.7,29.81,WSW,238,10.6,11.8,67,0.00,,CLR,0.00,VWS V14.01,2013-08-28 07:04:00,
2013-08-28 03:05:00,79.8,67.7,29.81,West,265,2.4,11.8,67,0.00,,CLR,0.00,VWS V14.01,2013-08-28 07:05:00,
2013-08-28 03:06:00,79.8,67.3,29.81,SSW,208,4.7,8.3,66,0.00,,CLR,0.00,VWS V14.01,2013-08-28 07:06:00,
2013-08-28 03:07:00,79.8,67.7,29.81,SSW,209,0.0,4.7,67,0.00,,CLR,0.00,VWS V14.01,2013-08-28 07:07:00,
2013-08-28 03:08:00,79.8,67.7,29.81,SW,227,3.5,3.5,67,0.00,,OVC085,0.00,VWS V14.01,2013-08-28 07:08:00,
2013-08-28 03:09:00,79.8,67.7,29.81,SSW,200,4.7,4.7,67,0.00,,CLR,0.00,VWS V14.01,2013-08-28 07:09:00,
2013-08-28 03:10:00,79.8,67.7,29.81,SSW,197,2.4,4.7,67,0.00,,CLR,0.00,VWS V14.01,2013-08-28 07:10:00,
2013-08-28 03:11:00,79.8,67.7,29.81,SSW,206,10.6,10.6,67,0.00,,CLR,0.00,VWS V14.01,2013-08-28 07:11:00,
2013-08-28 03:12:00,79.8,67.7,29.80,South,176,4.7,10.6,67,0.00,,CLR,0.00,VWS V14.01,2013-08-28 07:12:00,
2013-08-28 03:13:00,79.6,67.5,29.81,SW,221,5.9,8.3,67,0.00,,OVC085,0.00,VWS V14.01,2013-08-28 07:13:00,
2013-08-28 03:14:00,79.6,67.5,29.81,SSW,201,3.5,8.3,67,0.00,,CLR,0.00,VWS V14.01,2013-08-28 07:14:00,
2013-08-28 03:15:00,79.6,67.5,29.81,SSW,193,3.5,8.3,67,0.00,,CLR,0.00,VWS V14.01,2013-08-28 07:15:00,
2013-08-28 03:16:00,79.6,67.5,29.81,SW,233,7.1,9.4,67,0.00,,CLR,0.00,VWS V14.01,2013-08-28 07:16:00,
2013-08-28 03:17:00,79.6,67.5,29.81,WSW,245,2.4,7.1,67,0.00,,CLR,0.00,VWS V14.01,2013-08-28 07:17:00,
2013-08-28 03:18:00,79.6,67.5,29.81,SW,224,4.7,8.3,67,0.00,,OVC085,0.00,VWS V14.01,2013-08-28 07:18:00,
2013-08-28 03:19:00,79.6,67.5,29.81,SW,234,0.0,8.3,67,0.00,,CLR,0.00,VWS V14.01,2013-08-28 07:19:00,
2013-08-28 03:20:00,79.6,67.5,29.81,SW,232,5.9,10.6,67,0.00,,CLR,0.00,VWS V14.01,2013-08-28 07:20:00,
2013-08-28 03:21:00,79.6,67.5,29.81,SW,229,2.4,5.9,67,0.00,,CLR,0.00,VWS V14.01,2013-08-28 07:21:00,
2013-08-28 03:22:00,79.6,67.5,29.81,NW,325,3.5,8.3,67,0.00,,CLR,0.00,VWS V14.01,2013-08-28 07:22:00,
2013-08-28 03:23:00,79.4,67.3,29.81,SW,221,2.4,4.7,67,0.00,,OVC085,0.00,VWS V14.01,2013-08-28 07:23:00,
2013-08-28 03:24:00,79.4,67.3,29.81,SW,217,5.9,5.9,67,0.00,,CLR,0.00,VWS V14.01,2013-08-28 07:24:00,
2013-08-28 03:25:00,79.4,67.3,29.81,SW,220,5.9,10.6,67,0.00,,CLR,0.00,VWS V14.01,2013-08-28 07:25:00,
2013-08-28 03:26:00,79.4,67.3,29.81,South,186,4.7,5.9,67,0.00,,CLR,0.00,VWS V14.01,2013-08-28 07:26:00,
2013-08-28 03:27:00,79.4,67.3,29.81,WNW,283,2.4,4.7,67,0.00,,CLR,0.00,VWS V14.01,2013-08-28 07:27:00,
2013-08-28 03:28:00,79.4,67.3,29.81,West,269,1.2,3.5,67,0.00,,OVC085,0.00,VWS V14.01,2013-08-28 07:28:00,
2013-08-28 03:29:00,79.4,67.3,29.81,NNW,346,1.2,3.5,67,0.00,,CLR,0.00,VWS V14.01,2013-08-28 07:29:00,
2013-08-28 03:30:00,79.4,67.3,29.81,SW,217,4.7,4.7,67,0.00,,CLR,0.00,VWS V14.01,2013-08-28 07:30:00,
2013-08-28 03:31:00,79.4,67.3,29.81,West,265,3.5,5.9,67,0.00,,CLR,0.00,VWS V14.01,2013-08-28 07:31:00,
2013-08-28 03:32:00,79.4,67.3,29.81,SW,222,7.1,7.1,67,0.00,,CLR,0.00,VWS V14.01,2013-08-28 07:32:00,
2013-08-28 03:33:00,79.4,67.3,29.81,SW,215,9.4,9.4,67,0.00,,OVC085,0.00,VWS V14.01,2013-08-28 07:33:00,
2013-08-28 03:34:00,79.4,67.3,29.81,West,261,8.3,9.4,67,0.00,,CLR,0.00,VWS V14.01,2013-08-28 07:34:00,
2013-08-28 03:35:00,79.2,67.2,29.81,WSW,240,2.4,8.3,67,0.00,,CLR,0.00,VWS V14.01,2013-08-28 07:35:00,
2013-08-28 03:36:00,79.2,67.2,29.82,WSW,238,4.7,9.4,67,0.00,,CLR,0.00,VWS V14.01,2013-08-28 07:36:00,
2013-08-28 03:37:00,79.2,67.2,29.82,SW,232,4.7,7.1,67,0.00,,CLR,0.00,VWS V14.01,2013-08-28 07:37:00,
2013-08-28 03:38:00,79.2,67.2,29.82,WNW,286,2.4,3.5,67,0.00,,OVC085,0.00,VWS V14.01,2013-08-28 07:38:00,
2013-08-28 03:39:00,79.2,67.2,29.82,West,260,3.5,11.8,67,0.00,,CLR,0.00,VWS V14.01,2013-08-28 07:39:00,
2013-08-28 03:40:00,79.2,67.2,29.82,South,184,7.1,7.1,67,0.00,,CLR,0.00,VWS V14.01,2013-08-28 07:40:00,
2013-08-28 03:41:00,79.2,67.2,29.82,West,274,4.7,9.4,67,0.00,,CLR,0.00,VWS V14.01,2013-08-28 07:41:00,
2013-08-28 03:42:00,79.2,67.2,29.82,SW,220,1.2,4.7,67,0.00,,CLR,0.00,VWS V14.01,2013-08-28 07:42:00,
2013-08-28 03:43:00,79.2,67.2,29.82,SW,217,0.0,2.4,67,0.00,,OVC080,0.00,VWS V14.01,2013-08-28 07:43:00,
2013-08-28 03:44:00,79.2,67.2,29.82,WSW,240,0.0,2.4,67,0.00,,CLR,0.00,VWS V14.01,2013-08-28 07:44:00,
2013-08-28 03:45:00,79.2,67.2,29.82,SSW,197,2.4,3.5,67,0.00,,CLR,0.00,VWS V14.01,2013-08-28 07:45:00,
2013-08-28 03:46:00,79.2,67.2,29.82,SSW,203,1.2,2.4,67,0.00,,CLR,0.00,VWS V14.01,2013-08-28 07:46:00,
2013-08-28 03:47:00,79.2,67.2,29.82,West,275,0.0,4.7,67,0.00,,CLR,0.00,VWS V14.01,2013-08-28 07:47:00,
2013-08-28 03:48:00,79.0,67.0,29.82,West,265,7.1,7.1,67,0.00,,OVC080,0.00,VWS V14.01,2013-08-28 07:48:00,
2013-08-28 03:49:00,79.0,67.0,29.82,WSW,252,9.4,9.4,67,0.00,,CLR,0.00,VWS V14.01,2013-08-28 07:49:00,
2013-08-28 03:50:00,79.0,67.0,29.82,NNE,32,2.4,9.4,67,0.00,,CLR,0.00,VWS V14.01,2013-08-28 07:50:00,
2013-08-28 03:51:00,79.0,67.0,29.82,South,177,0.0,4.7,67,0.00,,CLR,0.00,VWS V14.01,2013-08-28 07:51:00,
2013-08-28 03:52:00,79.0,67.0,29.82,WSW,247,0.0,2.4,67,0.00,,CLR,0.00,VWS V14.01,2013-08-28 07:52:00,
2013-08-28 03:53:00,79.0,67.0,29.82,West,261,0.0,2.4,67,0.00,,OVC080,0.00,VWS V14.01,2013-08-28 07:53:00,
2013-08-28 03:54:00,79.0,67.0,29.82,WNW,289,4.7,5.9,67,0.00,,CLR,0.00,VWS V14.01,2013-08-28 07:54:00,
2013-08-28 03:55:00,79.0,67.0,29.82,South,190,0.0,4.7,67,0.00,,CLR,0.00,VWS V14.01,2013-08-28 07:55:00,
2013-08-28 03:56:00,79.0,67.0,29.82,WSW,238,4.7,5.9,67,0.00,,CLR,0.00,VWS V14.01,2013-08-28 07:56:00,
2013-08-28 03:57:00,79.0,67.0,29.82,West,262,8.3,9.4,67,0.00,,CLR,0.00,VWS V14.01,2013-08-28 07:57:00,
2013-08-28 03:58:00,79.0,67.0,29.82,WSW,240,8.3,8.3,67,0.00,,OVC080,0.00,VWS V14.01,2013-08-28 07:58:00,
2013-08-28 03:59:00,79.0,67.0,29.82,SW,225,7.1,9.4,67,0.00,,CLR,0.00,VWS V14.01,2013-08-28 07:59:00,
2013-08-28 04:00:00,79.0,67.0,29.82,WSW,244,1.2,7.1,67,0.00,,CLR,0.00,VWS V14.01,2013-08-28 08:00:00,
2013-08-28 04:01:00,79.0,67.0,29.81,WSW,241,3.5,10.6,67,0.00,,CLR,0.00,VWS V14.01,2013-08-28 08:01:00,
2013-08-28 04:02:00,79.0,67.0,29.81,West,265,2.4,5.9,67,0.00,,CLR,0.00,VWS V14.01,2013-08-28 08:02:00,
2013-08-28 04:03:00,79.0,67.0,29.82,SW,217,1.2,1.2,67,0.00,,OVC080,0.00,VWS V14.01,2013-08-28 08:03:00,
2013-08-28 04:04:00,79.0,67.0,29.82,SW,217,0.0,1.2,67,0.00,,CLR,0.00,VWS V14.01,2013-08-28 08:04:00,
2013-08-28 04:05:00,79.0,67.0,29.81,SSW,205,4.7,4.7,67,0.00,,CLR,0.00,VWS V14.01,2013-08-28 08:05:00,
2013-08-28 04:06:00,79.0,67.0,29.81,WSW,242,0.0,9.4,67,0.00,,CLR,0.00,VWS V14.01,2013-08-28 08:06:00,
2013-08-28 04:07:00,79.0,67.0,29.81,SSW,200,7.1,7.1,67,0.00,,CLR,0.00,VWS V14.01,2013-08-28 08:07:00,
2013-08-28 04:08:00,79.0,67.0,29.81,WSW,248,0.0,3.5,67,0.00,,OVC080,0.00,VWS V14.01,2013-08-28 08:08:00,
2013-08-28 04:09:00,79.0,67.0,29.82,WNW,296,4.7,5.9,67,0.00,,CLR,0.00,VWS V14.01,2013-08-28 08:09:00,
2013-08-28 04:10:00,79.0,67.0,29.82,West,273,1.2,7.1,67,0.00,,CLR,0.00,VWS V14.01,2013-08-28 08:10:00,
2013-08-28 04:11:00,79.0,67.0,29.82,WSW,237,1.2,4.7,67,0.00,,CLR,0.00,VWS V14.01,2013-08-28 08:11:00,
2013-08-28 04:12:00,79.0,67.0,29.82,WNW,290,0.0,3.5,67,0.00,,CLR,0.00,VWS V14.01,2013-08-28 08:12:00,
2013-08-28 04:13:00,79.0,67.0,29.82,SW,227,1.2,7.1,67,0.00,,OVC080,0.00,VWS V14.01,2013-08-28 08:13:00,
2013-08-28 04:14:00,78.8,66.8,29.82,SW,217,3.5,7.1,67,0.00,,CLR,0.00,VWS V14.01,2013-08-28 08:14:00,
2013-08-28 04:15:00,78.8,66.8,29.82,SW,218,3.5,10.6,67,0.00,,CLR,0.00,VWS V14.01,2013-08-28 08:15:00,
2013-08-28 04:16:00,78.8,66.8,29.81,SSW,196,4.7,10.6,67,0.00,,CLR,0.00,VWS V14.01,2013-08-28 08:16:00,
2013-08-28 04:17:00,78.8,66.8,29.81,SW,231,0.0,5.9,67,0.00,,CLR,0.00,VWS V14.01,2013-08-28 08:17:00,
2013-08-28 04:18:00,78.8,66.8,29.81,SSW,202,7.1,10.6,67,0.00,,OVC080,0.00,VWS V14.01,2013-08-28 08:18:00,
2013-08-28 04:19:00,78.8,66.8,29.81,SSW,202,3.5,10.6,67,0.00,,CLR,0.00,VWS V14.01,2013-08-28 08:19:00,
2013-08-28 04:20:00,78.8,66.8,29.81,SSW,205,3.5,5.9,67,0.00,,CLR,0.00,VWS V14.01,2013-08-28 08:20:00,
2013-08-28 04:21:00,78.8,66.8,29.81,SW,235,1.2,9.4,67,0.00,,CLR,0.00,VWS V14.01,2013-08-28 08:21:00,
2013-08-28 04:22:00,78.8,66.8,29.81,SSW,206,1.2,8.3,67,0.00,,CLR,0.00,VWS V14.01,2013-08-28 08:22:00,
2013-08-28 04:23:00,78.8,66.8,29.81,WSW,244,1.2,4.7,67,0.00,,OVC080,0.00,VWS V14.01,2013-08-28 08:23:00,
2013-08-28 04:24:00,78.8,66.8,29.81,West,277,3.5,4.7,67,0.00,,CLR,0.00,VWS V14.01,2013-08-28 08:24:00,
2013-08-28 04:25:00,78.8,66.8,29.81,SW,217,3.5,7.1,67,0.00,,CLR,0.00,VWS V14.01,2013-08-28 08:25:00,
2013-08-28 04:26:00,78.8,66.8,29.82,SSW,199,3.5,3.5,67,0.00,,CLR,0.00,VWS V14.01,2013-08-28 08:26:00,
2013-08-28 04:27:00,78.8,66.8,29.82,SSW,198,0.0,3.5,67,0.00,,CLR,0.00,VWS V14.01,2013-08-28 08:27:00,
2013-08-28 04:28:00,78.8,66.8,29.81,SW,229,5.9,5.9,67,0.00,,OVC080,0.00,VWS V14.01,2013-08-28 08:28:00,
2013-08-28 04:29:00,78.8,66.8,29.81,WSW,242,4.7,5.9,67,0.00,,CLR,0.00,VWS V14.01,2013-08-28 08:29:00,
2013-08-28 04:30:00,78.6,66.6,29.81,WSW,244,0.0,4.7,67,0.00,,CLR,0.00,VWS V14.01,2013-08-28 08:30:00,
2013-08-28 04:31:00,78.6,66.6,29.81,WSW,245,0.0,1.2,67,0.00,,CLR,0.00,VWS V14.01,2013-08-28 08:31:00,
2013-08-28 04:32:00,78.6,66.6,29.82,WSW,246,0.0,0.0,67,0.00,,CLR,0.00,VWS V14.01,2013-08-28 08:32:00,
2013-08-28 04:33:00,78.6,66.6,29.82,WSW,240,0.0,1.2,67,0.00,,OVC080,0.00,VWS V14.01,2013-08-28 08:33:00,
2013-08-28 04:34:00,78.6,66.6,29.82,WSW,240,0.0,1.2,67,0.00,,CLR,0.00,VWS V14.01,2013-08-28 08:34:00,
2013-08-28 04:35:00,78.6,66.6,29.82,WSW,240,0.0,2.4,67,0.00,,CLR,0.00,VWS V14.01,2013-08-28 08:35:00,
2013-08-28 04:36:00,78.6,67.0,29.82,WSW,240,0.0,1.2,68,0.00,,CLR,0.00,VWS V14.01,2013-08-28 08:36:00,
2013-08-28 04:37:00,78.6,67.0,29.82,WSW,240,0.0,0.0,68,0.00,,CLR,0.00,VWS V14.01,2013-08-28 08:37:00,
2013-08-28 04:38:00,78.6,67.0,29.82,WSW,240,0.0,0.0,68,0.00,,OVC080,0.00,VWS V14.01,2013-08-28 08:38:00,
2013-08-28 04:39:00,78.6,67.0,29.82,WSW,240,0.0,0.0,68,0.00,,CLR,0.00,VWS V14.01,2013-08-28 08:39:00,
2013-08-28 04:40:00,78.6,67.0,29.82,WSW,240,0.0,3.5,68,0.00,,CLR,0.00,VWS V14.01,2013-08-28 08:40:00,
2013-08-28 04:41:00,78.5,66.9,29.82,WSW,240,0.0,0.0,68,0.00,,CLR,0.00,VWS V14.01,2013-08-28 08:41:00,
2013-08-28 04:42:00,78.5,66.9,29.82,SW,218,1.2,3.5,68,0.00,,CLR,0.00,VWS V14.01,2013-08-28 08:42:00,
2013-08-28 04:43:00,78.5,66.9,29.82,SW,218,3.5,4.7,68,0.00,,OVC080,0.00,VWS V14.01,2013-08-28 08:43:00,
2013-08-28 04:44:00,78.5,66.9,29.82,SW,218,3.5,4.7,68,0.00,,CLR,0.00,VWS V14.01,2013-08-28 08:44:00,
2013-08-28 04:45:00,78.5,66.9,29.82,SW,218,0.0,3.5,68,0.00,,CLR,0.00,VWS V14.01,2013-08-28 08:45:00,
2013-08-28 04:46:00,78.5,66.9,29.82,SW,218,2.4,4.7,68,0.00,,CLR,0.00,VWS V14.01,2013-08-28 08:46:00,
2013-08-28 04:47:00,78.5,66.9,29.82,SW,218,0.0,2.4,68,0.00,,CLR,0.00,VWS V14.01,2013-08-28 08:47:00,
2013-08-28 04:48:00,78.3,66.7,29.82,WSW,255,0.0,2.4,68,0.00,,OVC080,0.00,VWS V14.01,2013-08-28 08:48:00,
2013-08-28 04:49:00,78.3,66.7,29.82,WSW,255,2.4,2.4,68,0.00,,CLR,0.00,VWS V14.01,2013-08-28 08:49:00,
2013-08-28 04:50:00,78.3,66.7,29.82,WSW,255,0.0,3.5,68,0.00,,CLR,0.00,VWS V14.01,2013-08-28 08:50:00,
2013-08-28 04:51:00,78.3,66.7,29.82,WSW,255,0.0,1.2,68,0.00,,CLR,0.00,VWS V14.01,2013-08-28 08:51:00,
2013-08-28 04:52:00,78.3,66.7,29.82,WSW,255,0.0,0.0,68,0.00,,CLR,0.00,VWS V14.01,2013-08-28 08:52:00,
2013-08-28 04:53:00,78.1,66.6,29.82,WSW,255,0.0,0.0,68,0.00,,OVC080,0.00,VWS V14.01,2013-08-28 08:53:00,
2013-08-28 04:54:00,78.1,66.6,29.82,WSW,255,0.0,0.0,68,0.00,,CLR,0.00,VWS V14.01,2013-08-28 08:54:00,
2013-08-28 04:55:00,78.1,66.6,29.82,WSW,255,0.0,0.0,68,0.00,,CLR,0.00,VWS V14.01,2013-08-28 08:55:00,
2013-08-28 04:56:00,78.1,66.6,29.82,WSW,255,0.0,1.2,68,0.00,,CLR,0.00,VWS V14.01,2013-08-28 08:56:00,
2013-08-28 04:57:00,78.1,66.6,29.82,WSW,255,0.0,0.0,68,0.00,,CLR,0.00,VWS V14.01,2013-08-28 08:57:00,
2013-08-28 04:58:00,77.9,66.4,29.82,WSW,255,0.0,0.0,68,0.00,,OVC080,0.00,VWS V14.01,2013-08-28 08:58:00,
2013-08-28 04:59:00,77.9,66.4,29.82,WSW,255,0.0,0.0,68,0.00,,CLR,0.00,VWS V14.01,2013-08-28 08:59:00,
2013-08-28 05:00:00,77.9,66.8,29.82,WSW,255,0.0,0.0,69,0.00,,CLR,0.00,VWS V14.01,2013-08-28 09:00:00,
2013-08-28 05:01:00,77.9,66.8,29.82,WSW,255,1.2,1.2,69,0.00,,CLR,0.00,VWS V14.01,2013-08-28 09:01:00,
2013-08-28 05:02:00,77.9,66.8,29.82,WSW,255,0.0,1.2,69,0.00,,CLR,0.00,VWS V14.01,2013-08-28 09:02:00,
2013-08-28 05:03:00,77.7,66.6,29.82,WSW,255,2.4,2.4,69,0.00,,OVC080,0.00,VWS V14.01,2013-08-28 09:03:00,
2013-08-28 05:04:00,77.7,66.6,29.83,WSW,255,2.4,2.4,69,0.00,,CLR,0.00,VWS V14.01,2013-08-28 09:04:00,
2013-08-28 05:05:00,77.7,66.6,29.83,WSW,255,0.0,2.4,69,0.00,,CLR,0.00,VWS V14.01,2013-08-28 09:05:00,
2013-08-28 05:06:00,77.7,66.6,29.82,WSW,255,0.0,0.0,69,0.00,,CLR,0.00,VWS V14.01,2013-08-28 09:06:00,
2013-08-28 05:07:00,77.7,66.6,29.82,WSW,247,2.4,2.4,69,0.00,,CLR,0.00,VWS V14.01,2013-08-28 09:07:00,
2013-08-28 05:08:00,77.6,66.5,29.82,SW,236,4.7,4.7,69,0.00,,OVC080,0.00,VWS V14.01,2013-08-28 09:08:00,
2013-08-28 05:09:00,77.6,66.5,29.82,SW,236,4.7,4.7,69,0.00,,CLR,0.00,VWS V14.01,2013-08-28 09:09:00,
2013-08-28 05:10:00,77.6,66.5,29.82,SW,228,0.0,5.9,69,0.00,,CLR,0.00,VWS V14.01,2013-08-28 09:10:00,
2013-08-28 05:11:00,77.6,66.5,29.82,SW,228,0.0,0.0,69,0.00,,CLR,0.00,VWS V14.01,2013-08-28 09:11:00,
2013-08-28 05:12:00,77.4,66.3,29.83,SW,228,0.0,0.0,69,0.00,,CLR,0.00,VWS V14.01,2013-08-28 09:12:00,
2013-08-28 05:13:00,77.4,66.7,29.82,SW,228,0.0,1.2,70,0.00,,OVC080,0.00,VWS V14.01,2013-08-28 09:13:00,
2013-08-28 05:14:00,77.4,66.7,29.83,SW,228,0.0,1.2,70,0.00,,CLR,0.00,VWS V14.01,2013-08-28 09:14:00,
2013-08-28 05:15:00,77.4,66.7,29.83,SW,228,0.0,0.0,70,0.00,,CLR,0.00,VWS V14.01,2013-08-28 09:15:00,
2013-08-28 05:16:00,77.2,66.5,29.82,SW,228,0.0,1.2,70,0.00,,CLR,0.00,VWS V14.01,2013-08-28 09:16:00,
2013-08-28 05:17:00,77.2,66.5,29.82,SW,228,0.0,1.2,70,0.00,,CLR,0.00,VWS V14.01,2013-08-28 09:17:00,
2013-08-28 05:18:00,77.2,66.5,29.82,SW,228,0.0,1.2,70,0.00,,OVC080,0.00,VWS V14.01,2013-08-28 09:18:00,
2013-08-28 05:19:00,77.2,66.5,29.83,SW,228,0.0,1.2,70,0.00,,CLR,0.00,VWS V14.01,2013-08-28 09:19:00,
2013-08-28 05:20:00,77.2,66.5,29.83,SW,228,0.0,0.0,70,0.00,,CLR,0.00,VWS V14.01,2013-08-28 09:20:00,
2013-08-28 05:21:00,77.0,66.3,29.82,SW,228,0.0,1.2,70,0.00,,CLR,0.00,VWS V14.01,2013-08-28 09:21:00,
2013-08-28 05:22:00,77.0,66.3,29.82,SW,228,0.0,0.0,70,0.00,,CLR,0.00,VWS V14.01,2013-08-28 09:22:00,
2013-08-28 05:23:00,77.0,66.8,29.82,SW,228,0.0,1.2,71,0.00,,OVC080,0.00,VWS V14.01,2013-08-28 09:23:00,
2013-08-28 05:24:00,77.0,66.8,29.82,SW,228,0.0,1.2,71,0.00,,CLR,0.00,VWS V14.01,2013-08-28 09:24:00,
2013-08-28 05:25:00,77.0,66.8,29.82,SW,224,0.0,2.4,71,0.00,,CLR,0.00,VWS V14.01,2013-08-28 09:25:00,
2013-08-28 05:26:00,76.8,66.6,29.82,SW,232,2.4,4.7,71,0.00,,CLR,0.00,VWS V14.01,2013-08-28 09:26:00,
2013-08-28 05:27:00,76.8,66.6,29.82,SW,231,2.4,2.4,71,0.00,,CLR,0.00,VWS V14.01,2013-08-28 09:27:00,
2013-08-28 05:28:00,76.8,66.6,29.82,WSW,244,2.4,4.7,71,0.00,,OVC080,0.00,VWS V14.01,2013-08-28 09:28:00,
2013-08-28 05:29:00,76.8,66.6,29.82,WSW,244,2.4,4.7,71,0.00,,CLR,0.00,VWS V14.01,2013-08-28 09:29:00,
2013-08-28 05:30:00,76.8,66.6,29.82,WSW,242,0.0,3.5,71,0.00,,CLR,0.00,VWS V14.01,2013-08-28 09:30:00,
2013-08-28 05:31:00,76.8,66.6,29.82,WNW,291,2.4,4.7,71,0.00,,CLR,0.00,VWS V14.01,2013-08-28 09:31:00,
2013-08-28 05:32:00,76.8,66.6,29.82,WSW,242,0.0,2.4,71,0.00,,CLR,0.00,VWS V14.01,2013-08-28 09:32:00,
2013-08-28 05:33:00,76.7,66.5,29.82,SSW,210,0.0,3.5,71,0.00,,OVC080,0.00,VWS V14.01,2013-08-28 09:33:00,
2013-08-28 05:34:00,76.7,66.5,29.82,SSW,210,1.2,1.2,71,0.00,,OVC080,0.00,VWS V14.01,2013-08-28 09:34:00,
2013-08-28 05:35:00,76.7,66.5,29.82,SSW,210,0.0,2.4,71,0.00,,CLR,0.00,VWS V14.01,2013-08-28 09:35:00,
2013-08-28 05:36:00,76.7,66.5,29.82,SW,221,0.0,2.4,71,0.00,,CLR,0.00,VWS V14.01,2013-08-28 09:36:00,
2013-08-28 05:37:00,76.7,66.5,29.82,NW,304,1.2,2.4,71,0.00,,CLR,0.00,VWS V14.01,2013-08-28 09:37:00,
2013-08-28 05:38:00,76.7,66.5,29.82,NW,304,1.2,2.4,71,0.00,,CLR,0.00,VWS V14.01,2013-08-28 09:38:00,
2013-08-28 05:39:00,76.7,66.5,29.82,WNW,303,1.2,2.4,71,0.00,,OVC080,0.00,VWS V14.01,2013-08-28 09:39:00,
2013-08-28 05:40:00,76.7,66.5,29.82,SW,218,2.4,5.9,71,0.00,,CLR,0.00,VWS V14.01,2013-08-28 09:40:00,
2013-08-28 05:41:00,76.7,66.5,29.82,SW,218,0.0,2.4,71,0.00,,CLR,0.00,VWS V14.01,2013-08-28 09:41:00,
2013-08-28 05:42:00,76.7,66.5,29.82,SW,219,3.5,3.5,71,0.00,,CLR,0.00,VWS V14.01,2013-08-28 09:42:00,
2013-08-28 05:43:00,76.7,66.5,29.82,SW,217,3.5,4.7,71,0.00,,CLR,0.00,VWS V14.01,2013-08-28 09:43:00,
2013-08-28 05:44:00,76.5,66.3,29.82,West,265,2.4,3.5,71,0.00,,CLR,0.00,VWS V14.01,2013-08-28 09:44:00,
2013-08-28 05:45:00,76.5,66.3,29.82,SW,234,2.4,5.9,71,0.00,,CLR,0.00,VWS V14.01,2013-08-28 09:45:00,
2013-08-28 05:46:00,76.5,66.3,29.82,SW,234,0.0,2.4,71,0.00,,CLR,0.00,VWS V14.01,2013-08-28 09:46:00,
2013-08-28 05:47:00,76.5,66.3,29.82,SW,221,3.5,5.9,71,0.00,,CLR,0.00,VWS V14.01,2013-08-28 09:47:00,
2013-08-28 05:48:00,76.5,66.3,29.82,SW,223,0.0,3.5,71,0.00,,CLR,0.00,VWS V14.01,2013-08-28 09:48:00,
2013-08-28 05:49:00,76.5,66.3,29.82,WSW,238,2.4,2.4,71,0.00,,CLR,0.00,VWS V14.01,2013-08-28 09:49:00,
2013-08-28 05:50:00,76.5,66.3,29.82,West,260,3.5,3.5,71,0.00,,CLR,0.00,VWS V14.01,2013-08-28 09:50:00,
2013-08-28 05:51:00,76.5,66.3,29.82,WSW,257,0.0,4.7,71,0.00,,CLR,0.00,VWS V14.01,2013-08-28 09:51:00,
2013-08-28 05:52:00,76.5,66.3,29.82,WSW,254,0.0,1.2,71,0.00,,CLR,0.00,VWS V14.01,2013-08-28 09:52:00,
2013-08-28 05:53:00,76.5,66.3,29.82,WSW,254,0.0,1.2,71,0.00,,CLR,0.00,VWS V14.01,2013-08-28 09:53:00,
2013-08-28 05:54:00,76.5,66.3,29.82,SW,231,7.1,7.1,71,0.00,,CLR,0.00,VWS V14.01,2013-08-28 09:54:00,
2013-08-28 05:55:00,76.5,66.3,29.82,West,263,3.5,7.1,71,0.00,,CLR,0.00,VWS V14.01,2013-08-28 09:55:00,
2013-08-28 05:56:00,76.5,66.3,29.82,WNW,299,0.0,5.9,71,0.00,,CLR,0.00,VWS V14.01,2013-08-28 09:56:00,
2013-08-28 05:57:00,76.5,66.3,29.82,WNW,299,0.0,0.0,71,0.00,,CLR,0.00,VWS V14.01,2013-08-28 09:57:00,
2013-08-28 05:58:00,76.5,66.3,29.82,WSW,239,2.4,3.5,71,0.00,,CLR,0.00,VWS V14.01,2013-08-28 09:58:00,
2013-08-28 05:59:00,76.5,66.3,29.82,WSW,237,2.4,2.4,71,0.00,,CLR,0.00,VWS V14.01,2013-08-28 09:59:00,
2013-08-28 06:00:00,76.5,66.3,29.82,SW,231,3.5,4.7,71,0.00,,CLR,0.00,VWS V14.01,2013-08-28 10:00:00,
2013-08-28 06:01:00,76.5,66.3,29.82,WSW,241,1.2,5.9,71,0.00,,CLR,0.00,VWS V14.01,2013-08-28 10:01:00,
2013-08-28 06:02:00,76.3,66.1,29.82,NW,304,0.0,4.7,71,0.00,,CLR,0.00,VWS V14.01,2013-08-28 10:02:00,
2013-08-28 06:03:00,76.3,66.1,29.82,WSW,248,2.4,2.4,71,0.00,,CLR,0.00,VWS V14.01,2013-08-28 10:03:00,
2013-08-28 06:04:00,76.3,66.1,29.82,WSW,249,1.2,2.4,71,0.00,,CLR,0.00,VWS V14.01,2013-08-28 10:04:00,
2013-08-28 06:05:00,76.3,66.1,29.82,WNW,289,2.4,3.5,71,0.00,,CLR,0.00,VWS V14.01,2013-08-28 10:05:00,
2013-08-28 06:06:00,76.3,66.1,29.83,West,269,1.2,4.7,71,0.00,,CLR,0.00,VWS V14.01,2013-08-28 10:06:00,
2013-08-28 06:07:00,76.3,66.1,29.83,WNW,291,4.7,5.9,71,0.00,,CLR,0.00,VWS V14.01,2013-08-28 10:07:00,
2013-08-28 06:08:00,76.3,66.1,29.82,WNW,290,0.0,4.7,71,0.00,,CLR,0.00,VWS V14.01,2013-08-28 10:08:00,
2013-08-28 06:09:00,76.3,66.1,29.82,South,175,0.0,2.4,71,0.00,,CLR,0.00,VWS V14.01,2013-08-28 10:09:00,
2013-08-28 06:10:00,76.3,66.1,29.83,SW,235,0.0,2.4,71,0.00,,CLR,0.00,VWS V14.01,2013-08-28 10:10:00,
2013-08-28 06:11:00,76.3,66.1,29.82,WNW,287,1.2,7.1,71,0.00,,CLR,0.00,VWS V14.01,2013-08-28 10:11:00,
2013-08-28 06:12:00,76.3,66.1,29.82,WNW,286,2.4,2.4,71,0.00,,CLR,0.00,VWS V14.01,2013-08-28 10:12:00,
2013-08-28 06:13:00,76.3,66.1,29.82,WNW,286,1.2,2.4,71,0.00,,CLR,0.00,VWS V14.01,2013-08-28 10:13:00,
2013-08-28 06:14:00,76.3,66.1,29.83,WSW,246,0.0,2.4,71,0.00,,CLR,0.00,VWS V14.01,2013-08-28 10:14:00,
2013-08-28 06:15:00,76.3,66.1,29.82,South,182,0.0,2.4,71,0.00,,CLR,0.00,VWS V14.01,2013-08-28 10:15:00,
2013-08-28 06:16:00,76.3,66.1,29.83,South,182,0.0,0.0,71,0.00,,CLR,0.00,VWS V14.01,2013-08-28 10:16:00,
2013-08-28 06:17:00,76.3,66.1,29.82,WSW,244,3.5,3.5,71,0.00,,CLR,0.00,VWS V14.01,2013-08-28 10:17:00,
2013-08-28 06:18:00,76.3,66.1,29.83,WSW,246,0.0,3.5,71,0.00,,CLR,0.00,VWS V14.01,2013-08-28 10:18:00,
2013-08-28 06:19:00,76.3,66.1,29.82,WSW,246,0.0,0.0,71,0.00,,CLR,0.00,VWS V14.01,2013-08-28 10:19:00,
2013-08-28 06:20:00,76.1,65.9,29.82,WSW,246,0.0,0.0,71,0.00,,CLR,0.00,VWS V14.01,2013-08-28 10:20:00,
2013-08-28 06:21:00,76.1,65.9,29.82,SW,221,0.0,3.5,71,0.00,,CLR,0.00,VWS V14.01,2013-08-28 10:21:00,
2013-08-28 06:22:00,76.1,65.9,29.82,WSW,252,0.0,2.4,71,0.00,,CLR,0.00,VWS V14.01,2013-08-28 10:22:00,
2013-08-28 06:23:00,76.1,65.9,29.82,WNW,284,7.1,7.1,71,0.00,,CLR,0.00,VWS V14.01,2013-08-28 10:23:00,
2013-08-28 06:24:00,76.1,65.9,29.82,SSW,209,2.4,7.1,71,0.00,,CLR,0.00,VWS V14.01,2013-08-28 10:24:00,
2013-08-28 06:25:00,76.1,65.9,29.82,WNW,288,1.2,7.1,71,0.00,,CLR,0.00,VWS V14.01,2013-08-28 10:25:00,
2013-08-28 06:26:00,76.1,66.3,29.82,WNW,288,2.4,4.7,72,0.00,,CLR,0.00,VWS V14.01,2013-08-28 10:26:00,
2013-08-28 06:27:00,76.1,66.3,29.82,South,174,0.0,3.5,72,0.00,,CLR,0.00,VWS V14.01,2013-08-28 10:27:00,
2013-08-28 06:28:00,76.1,66.3,29.82,SSW,209,1.2,5.9,72,0.00,,CLR,0.00,VWS V14.01,2013-08-28 10:28:00,
2013-08-28 06:29:00,76.1,66.3,29.82,West,267,1.2,1.2,72,0.00,,CLR,0.00,VWS V14.01,2013-08-28 10:29:00,
2013-08-28 06:30:00,76.1,66.3,29.82,WNW,286,2.4,2.4,72,0.00,,CLR,0.00,VWS V14.01,2013-08-28 10:30:00,
2013-08-28 06:31:00,76.0,66.2,29.83,WNW,285,1.2,2.4,72,0.00,,CLR,0.00,VWS V14.01,2013-08-28 10:31:00,
2013-08-28 06:32:00,76.0,66.2,29.83,WSW,254,1.2,3.5,72,0.00,,CLR,0.00,VWS V14.01,2013-08-28 10:32:00,
2013-08-28 06:33:00,76.0,66.2,29.83,SW,228,2.4,4.7,72,0.00,,CLR,0.00,VWS V14.01,2013-08-28 10:33:00,
2013-08-28 06:34:00,76.0,66.2,29.83,West,261,4.7,4.7,72,0.00,,CLR,0.00,VWS V14.01,2013-08-28 10:34:00,
2013-08-28 06:35:00,76.0,66.2,29.83,WNW,283,2.4,4.7,72,0.00,,CLR,0.00,VWS V14.01,2013-08-28 10:35:00,
2013-08-28 06:36:00,76.0,66.2,29.83,WNW,283,0.0,2.4,72,0.00,,CLR,0.00,VWS V14.01,2013-08-28 10:36:00,
2013-08-28 06:37:00,76.0,66.2,29.83,WNW,283,0.0,1.2,72,0.00,,CLR,0.00,VWS V14.01,2013-08-28 10:37:00,
2013-08-28 06:38:00,76.0,66.2,29.83,WNW,283,0.0,1.2,72,0.00,,CLR,0.00,VWS V14.01,2013-08-28 10:38:00,
2013-08-28 06:39:00,76.0,66.2,29.83,WNW,283,0.0,0.0,72,0.00,,CLR,0.00,VWS V14.01,2013-08-28 10:39:00,
2013-08-28 06:40:00,76.0,66.2,29.83,WNW,284,0.0,1.2,72,0.00,,CLR,0.00,VWS V14.01,2013-08-28 10:40:00,
2013-08-28 06:41:00,76.0,66.2,29.83,WNW,282,0.0,2.4,72,0.00,,CLR,0.00,VWS V14.01,2013-08-28 10:41:00,
2013-08-28 06:42:00,76.0,66.2,29.83,SSW,198,1.2,3.5,72,0.00,,CLR,0.00,VWS V14.01,2013-08-28 10:42:00,
2013-08-28 06:43:00,76.0,66.2,29.83,WSW,246,2.4,3.5,72,0.00,,CLR,0.00,VWS V14.01,2013-08-28 10:43:00,
2013-08-28 06:44:00,76.0,66.2,29.83,WSW,242,0.0,0.0,72,0.00,,CLR,0.00,VWS V14.01,2013-08-28 10:44:00,
2013-08-28 06:45:00,76.0,66.2,29.82,WSW,242,0.0,0.0,72,0.00,,CLR,0.00,VWS V14.01,2013-08-28 10:45:00,
2013-08-28 06:46:00,76.0,66.2,29.82,WSW,242,0.0,0.0,72,0.00,,CLR,0.00,VWS V14.01,2013-08-28 10:46:00,
2013-08-28 06:47:00,76.0,66.2,29.82,SW,225,0.0,1.2,72,0.00,,CLR,0.00,VWS V14.01,2013-08-28 10:47:00,
2013-08-28 06:48:00,75.8,66.0,29.82,SW,225,0.0,0.0,72,0.00,,CLR,0.00,VWS V14.01,2013-08-28 10:48:00,
2013-08-28 06:49:00,75.8,66.0,29.82,SW,225,0.0,0.0,72,0.00,,CLR,0.00,VWS V14.01,2013-08-28 10:49:00,
2013-08-28 06:50:00,75.8,66.0,29.82,SW,225,0.0,0.0,72,0.00,,CLR,0.00,VWS V14.01,2013-08-28 10:50:00,
2013-08-28 06:51:00,75.8,66.0,29.83,SW,225,0.0,1.2,72,0.00,,CLR,0.00,VWS V14.01,2013-08-28 10:51:00,
2013-08-28 06:52:00,75.8,66.0,29.82,SSW,194,5.9,5.9,72,0.00,,CLR,0.00,VWS V14.01,2013-08-28 10:52:00,
2013-08-28 06:53:00,75.8,66.0,29.82,SW,229,3.5,7.1,72,0.00,,CLR,0.00,VWS V14.01,2013-08-28 10:53:00,
2013-08-28 06:54:00,75.8,66.0,29.82,WNW,290,2.4,3.5,72,0.00,,CLR,0.00,VWS V14.01,2013-08-28 10:54:00,
2013-08-28 06:55:00,75.8,66.0,29.83,SW,232,2.4,3.5,72,0.00,,CLR,0.00,VWS V14.01,2013-08-28 10:55:00,
2013-08-28 06:56:00,75.8,66.0,29.83,WNW,291,1.2,7.1,72,0.00,,CLR,0.00,VWS V14.01,2013-08-28 10:56:00,
2013-08-28 06:57:00,75.8,66.0,29.82,WNW,291,0.0,1.2,72,0.00,,CLR,0.00,VWS V14.01,2013-08-28 10:57:00,
2013-08-28 06:58:00,75.6,65.8,29.82,SW,221,5.9,5.9,72,0.00,,CLR,0.00,VWS V14.01,2013-08-28 10:58:00,
2013-08-28 06:59:00,75.6,66.2,29.83,West,268,1.2,2.4,73,0.00,,CLR,0.00,VWS V14.01,2013-08-28 10:59:00,
2013-08-28 07:00:00,75.6,66.2,29.83,WSW,252,3.5,3.5,73,0.00,,CLR,0.00,VWS V14.01,2013-08-28 11:00:00,
2013-08-28 07:01:00,75.6,66.2,29.83,WSW,257,0.0,3.5,73,0.00,,CLR,0.00,VWS V14.01,2013-08-28 11:01:00,
2013-08-28 07:02:00,75.6,66.2,29.83,WNW,291,1.2,7.1,73,0.00,,CLR,0.00,VWS V14.01,2013-08-28 11:02:00,
2013-08-28 07:03:00,75.6,66.2,29.83,NW,306,3.5,3.5,73,0.00,,CLR,0.00,VWS V14.01,2013-08-28 11:03:00,
2013-08-28 07:04:00,75.6,66.2,29.83,NW,306,0.0,1.2,73,0.00,,CLR,0.00,VWS V14.01,2013-08-28 11:04:00,
2013-08-28 07:05:00,75.6,66.2,29.83,NW,306,0.0,1.2,73,0.00,,CLR,0.00,VWS V14.01,2013-08-28 11:05:00,
2013-08-28 07:06:00,75.6,66.2,29.83,NW,306,0.0,0.0,73,0.00,,CLR,0.00,VWS V14.01,2013-08-28 11:06:00,
2013-08-28 07:07:00,75.4,66.0,29.83,West,281,3.5,3.5,73,0.00,,CLR,0.00,VWS V14.01,2013-08-28 11:07:00,
2013-08-28 07:08:00,75.4,66.0,29.83,West,281,0.0,3.5,73,0.00,,CLR,0.00,VWS V14.01,2013-08-28 11:08:00,
2013-08-28 07:09:00,75.4,66.0,29.83,SW,219,0.0,1.2,73,0.00,,CLR,0.00,VWS V14.01,2013-08-28 11:09:00,
2013-08-28 07:10:00,75.4,66.0,29.83,SW,219,0.0,1.2,73,0.00,,CLR,0.00,VWS V14.01,2013-08-28 11:10:00,
2013-08-28 07:11:00,75.4,66.0,29.83,SW,219,1.2,1.2,73,0.00,,CLR,0.00,VWS V14.01,2013-08-28 11:11:00,
2013-08-28 07:12:00,75.4,66.0,29.83,SW,218,0.0,3.5,73,0.00,,CLR,0.00,VWS V14.01,2013-08-28 11:12:00,
2013-08-28 07:13:00,75.4,66.0,29.83,WSW,249,2.4,3.5,73,0.00,,CLR,0.00,VWS V14.01,2013-08-28 11:13:00,
2013-08-28 07:14:00,75.4,66.0,29.83,SW,227,0.0,7.1,73,0.00,,CLR,0.00,VWS V14.01,2013-08-28 11:14:00,
2013-08-28 07:15:00,75.4,66.0,29.83,SW,227,0.0,7.1,73,0.00,,CLR,0.00,VWS V14.01,2013-08-28 11:15:00,
2013-08-28 07:16:00,75.3,65.9,29.83,SW,227,1.2,2.4,73,0.00,,CLR,0.00,VWS V14.01,2013-08-28 11:16:00,
2013-08-28 07:17:00,75.3,65.9,29.83,SW,227,0.0,1.2,73,0.00,,CLR,0.00,VWS V14.01,2013-08-28 11:17:00,
2013-08-28 07:18:00,75.3,65.9,29.83,NW,311,0.0,1.2,73,0.00,,CLR,0.00,VWS V14.01,2013-08-28 11:18:00,
2013-08-28 07:19:00,75.3,65.9,29.83,NW,311,0.0,0.0,73,0.00,,CLR,0.00,VWS V14.01,2013-08-28 11:19:00,
2013-08-28 07:20:00,75.3,65.9,29.83,NW,311,0.0,0.0,73,0.00,,CLR,0.00,VWS V14.01,2013-08-28 11:20:00,
2013-08-28 07:21:00,75.3,66.3,29.83,NW,311,0.0,0.0,74,0.00,,CLR,0.00,VWS V14.01,2013-08-28 11:21:00,
2013-08-28 07:22:00,75.3,66.3,29.83,NW,311,0.0,1.2,74,0.00,,CLR,0.00,VWS V14.01,2013-08-28 11:22:00,
2013-08-28 07:23:00,75.3,66.3,29.83,NW,311,0.0,1.2,74,0.00,,CLR,0.00,VWS V14.01,2013-08-28 11:23:00,
2013-08-28 07:24:00,75.1,66.2,29.83,NW,311,1.2,1.2,74,0.00,,CLR,0.00,VWS V14.01,2013-08-28 11:24:00,
2013-08-28 07:25:00,75.1,66.2,29.83,WNW,283,2.4,4.7,74,0.00,,CLR,0.00,VWS V14.01,2013-08-28 11:25:00,
2013-08-28 07:26:00,75.1,66.2,29.83,WNW,283,0.0,2.4,74,0.00,,CLR,0.00,VWS V14.01,2013-08-28 11:26:00,
2013-08-28 07:27:00,75.1,66.2,29.83,WNW,283,0.0,0.0,74,0.00,,CLR,0.00,VWS V14.01,2013-08-28 11:27:00,
2013-08-28 07:28:00,75.1,66.2,29.83,West,278,0.0,1.2,74,0.00,,CLR,0.00,VWS V14.01,2013-08-28 11:28:00,
2013-08-28 07:29:00,75.1,66.2,29.83,West,278,1.2,3.5,74,0.00,,CLR,0.00,VWS V14.01,2013-08-28 11:29:00,
2013-08-28 07:30:00,75.1,66.2,29.83,West,278,1.2,3.5,74,0.00,,CLR,0.00,VWS V14.01,2013-08-28 11:30:00,
2013-08-28 07:31:00,75.1,66.2,29.83,West,267,0.0,3.5,74,0.00,,CLR,0.00,VWS V14.01,2013-08-28 11:31:00,
2013-08-28 07:32:00,75.1,66.2,29.83,West,267,0.0,0.0,74,0.00,,CLR,0.00,VWS V14.01,2013-08-28 11:32:00,
2013-08-28 07:33:00,75.1,66.2,29.83,WNW,292,0.0,3.5,74,0.00,,CLR,0.00,VWS V14.01,2013-08-28 11:33:00,
2013-08-28 07:34:00,74.9,66.0,29.83,NW,318,1.2,7.1,74,0.00,,CLR,0.00,VWS V14.01,2013-08-28 11:34:00,
2013-08-28 07:35:00,74.9,66.0,29.83,NW,318,0.0,7.1,74,0.00,,CLR,0.00,VWS V14.01,2013-08-28 11:35:00,
2013-08-28 07:36:00,74.9,66.0,29.83,WSW,245,7.1,7.1,74,0.00,,CLR,0.00,VWS V14.01,2013-08-28 11:36:00,
2013-08-28 07:37:00,74.9,66.0,29.83,WSW,246,0.0,7.1,74,0.00,,CLR,0.00,VWS V14.01,2013-08-28 11:37:00,
2013-08-28 07:38:00,74.9,66.0,29.83,WSW,246,0.0,1.2,74,0.00,,CLR,0.00,VWS V14.01,2013-08-28 11:38:00,
2013-08-28 07:39:00,74.9,66.0,29.83,NW,314,0.0,3.5,74,0.00,,CLR,0.00,VWS V14.01,2013-08-28 11:39:00,
2013-08-28 07:40:00,74.9,66.0,29.83,NW,314,0.0,3.5,74,0.00,,CLR,0.00,VWS V14.01,2013-08-28 11:40:00,
2013-08-28 07:41:00,74.9,66.0,29.83,NW,314,0.0,0.0,74,0.00,,CLR,0.00,VWS V14.01,2013-08-28 11:41:00,
2013-08-28 07:42:00,74.9,66.0,29.83,NW,313,2.4,2.4,74,0.00,,CLR,0.00,VWS V14.01,2013-08-28 11:42:00,
2013-08-28 07:43:00,74.9,66.3,29.83,SW,231,1.2,4.7,75,0.00,,CLR,0.00,VWS V14.01,2013-08-28 11:43:00,
2013-08-28 07:44:00,74.9,66.3,29.83,SW,231,2.4,2.4,75,0.00,,CLR,0.00,VWS V14.01,2013-08-28 11:44:00,
2013-08-28 07:45:00,74.9,66.3,29.83,SW,231,0.0,2.4,75,0.00,,CLR,0.00,VWS V14.01,2013-08-28 11:45:00,
2013-08-28 07:46:00,74.9,66.3,29.83,NW,325,0.0,2.4,75,0.00,,CLR,0.00,VWS V14.01,2013-08-28 11:46:00,
2013-08-28 07:47:00,74.9,66.3,29.83,NW,309,3.5,3.5,75,0.00,,CLR,0.00,VWS V14.01,2013-08-28 11:47:00,
2013-08-28 07:48:00,74.9,66.3,29.83,WNW,301,1.2,3.5,75,0.00,,CLR,0.00,VWS V14.01,2013-08-28 11:48:00,
2013-08-28 07:49:00,74.9,66.3,29.83,SW,231,5.9,5.9,75,0.00,,CLR,0.00,VWS V14.01,2013-08-28 11:49:00,
2013-08-28 07:50:00,74.9,66.3,29.83,WSW,248,3.5,5.9,75,0.00,,CLR,0.00,VWS V14.01,2013-08-28 11:50:00,
2013-08-28 07:51:00,74.9,66.3,29.83,WNW,303,0.0,3.5,75,0.00,,CLR,0.00,VWS V14.01,2013-08-28 11:51:00,
2013-08-28 07:52:00,74.9,66.3,29.83,SW,220,2.4,2.4,75,0.00,,CLR,0.00,VWS V14.01,2013-08-28 11:52:00,
2013-08-28 07:53:00,74.9,66.3,29.83,SW,221,0.0,2.4,75,0.00,,CLR,0.00,VWS V14.01,2013-08-28 11:53:00,
2013-08-28 07:54:00,75.1,66.5,29.83,NNW,327,0.0,1.2,75,0.00,,CLR,0.00,VWS V14.01,2013-08-28 11:54:00,
2013-08-28 07:55:00,75.1,66.5,29.83,NNW,327,0.0,1.2,75,0.00,,CLR,0.00,VWS V14.01,2013-08-28 11:55:00,
2013-08-28 07:56:00,75.1,66.5,29.84,NNW,328,1.2,1.2,75,0.00,,CLR,0.00,VWS V14.01,2013-08-28 11:56:00,
2013-08-28 07:57:00,75.1,66.5,29.84,WSW,254,0.0,5.9,75,0.00,,CLR,0.00,VWS V14.01,2013-08-28 11:57:00,
2013-08-28 07:58:00,75.1,66.5,29.84,West,260,4.7,4.7,75,0.00,,CLR,0.00,VWS V14.01,2013-08-28 11:58:00,
2013-08-28 07:59:00,75.1,66.5,29.84,WSW,254,0.0,1.2,75,0.00,,CLR,0.00,VWS V14.01,2013-08-28 11:59:00,
2013-08-28 08:00:00,75.1,66.5,29.83,WSW,254,2.4,2.4,75,0.00,,CLR,0.00,VWS V14.01,2013-08-28 12:00:00,
2013-08-28 08:01:00,75.3,66.7,29.83,WSW,254,0.0,2.4,75,0.00,,CLR,0.00,VWS V14.01,2013-08-28 12:01:00,
2013-08-28 08:02:00,75.3,66.7,29.84,WNW,290,1.2,2.4,75,0.00,,CLR,0.00,VWS V14.01,2013-08-28 12:02:00,
2013-08-28 08:03:00,75.3,66.7,29.84,WNW,290,0.0,1.2,75,0.00,,CLR,0.00,VWS V14.01,2013-08-28 12:03:00,
2013-08-28 08:04:00,75.3,66.7,29.84,WSW,250,0.0,3.5,75,0.00,,CLR,0.00,VWS V14.01,2013-08-28 12:04:00,
2013-08-28 08:05:00,75.3,66.7,29.83,WSW,250,0.0,3.5,75,0.00,,CLR,0.00,VWS V14.01,2013-08-28 12:05:00,
2013-08-28 08:06:00,75.3,66.7,29.84,NNW,333,1.2,3.5,75,0.00,,CLR,0.00,VWS V14.01,2013-08-28 12:06:00,
2013-08-28 08:07:00,75.4,66.8,29.84,NNW,333,0.0,1.2,75,0.00,,CLR,0.00,VWS V14.01,2013-08-28 12:07:00,
2013-08-28 08:08:00,75.4,66.8,29.84,NNW,333,0.0,0.0,75,0.00,,CLR,0.00,VWS V14.01,2013-08-28 12:08:00,
2013-08-28 08:09:00,75.4,66.8,29.84,NE,35,0.0,3.5,75,0.00,,CLR,0.00,VWS V14.01,2013-08-28 12:09:00,
2013-08-28 08:10:00,75.4,66.8,29.84,NE,35,0.0,3.5,75,0.00,,CLR,0.00,VWS V14.01,2013-08-28 12:10:00,
2013-08-28 08:11:00,75.6,67.0,29.84,NE,35,0.0,1.2,75,0.00,,CLR,0.00,VWS V14.01,2013-08-28 12:11:00,
2013-08-28 08:12:00,75.6,67.0,29.84,NE,35,1.2,1.2,75,0.00,,CLR,0.00,VWS V14.01,2013-08-28 12:12:00,
2013-08-28 08:13:00,75.6,67.0,29.84,SW,229,2.4,4.7,75,0.00,,CLR,0.00,VWS V14.01,2013-08-28 12:13:00,
2013-08-28 08:14:00,75.8,67.2,29.84,West,279,1.2,3.5,75,0.00,,CLR,0.00,VWS V14.01,2013-08-28 12:14:00,
2013-08-28 08:15:00,75.8,67.2,29.84,West,279,0.0,3.5,75,0.00,,CLR,0.00,VWS V14.01,2013-08-28 12:15:00,
2013-08-28 08:16:00,75.8,67.2,29.84,WNW,299,0.0,1.2,75,0.00,,CLR,0.00,VWS V14.01,2013-08-28 12:16:00,
2013-08-28 08:17:00,75.8,67.2,29.84,NW,304,4.7,5.9,75,0.00,,CLR,0.00,VWS V14.01,2013-08-28 12:17:00,
2013-08-28 08:18:00,75.8,67.2,29.84,WNW,301,4.7,4.7,75,0.00,,CLR,0.00,VWS V14.01,2013-08-28 12:18:00,
2013-08-28 08:19:00,76.0,67.0,29.84,WNW,293,0.0,2.4,74,0.00,,CLR,0.00,VWS V14.01,2013-08-28 12:19:00,
2013-08-28 08:20:00,76.0,67.0,29.84,WNW,293,0.0,2.4,74,0.00,,CLR,0.00,VWS V14.01,2013-08-28 12:20:00,
2013-08-28 08:21:00,76.0,67.0,29.84,NW,321,0.0,3.5,74,0.00,,CLR,0.00,VWS V14.01,2013-08-28 12:21:00,
2013-08-28 08:22:00,76.1,67.1,29.84,WSW,252,4.7,8.3,74,0.00,,CLR,0.00,VWS V14.01,2013-08-28 12:22:00,
2013-08-28 08:23:00,76.1,67.1,29.84,West,271,3.5,4.7,74,0.00,,CLR,0.00,VWS V14.01,2013-08-28 12:23:00,
2013-08-28 08:24:00,76.1,67.1,29.84,West,279,2.4,2.4,74,0.00,,CLR,0.00,VWS V14.01,2013-08-28 12:24:00,
2013-08-28 08:25:00,76.3,67.3,29.84,West,259,10.6,10.6,74,0.00,,CLR,0.00,VWS V14.01,2013-08-28 12:25:00,
2013-08-28 08:26:00,76.3,67.3,29.84,NW,304,1.2,10.6,74,0.00,,CLR,0.00,VWS V14.01,2013-08-28 12:26:00,
2013-08-28 08:27:00,76.3,67.3,29.84,West,281,2.4,4.7,74,0.00,,CLR,0.00,VWS V14.01,2013-08-28 12:27:00,
2013-08-28 08:28:00,76.3,67.3,29.84,West,281,1.2,2.4,74,0.00,,CLR,0.00,VWS V14.01,2013-08-28 12:28:00,
2013-08-28 08:29:00,76.5,67.5,29.84,WNW,287,2.4,3.5,74,0.00,,CLR,0.00,VWS V14.01,2013-08-28 12:29:00,
2013-08-28 08:30:00,76.5,67.5,29.84,West,271,5.9,5.9,74,0.00,,CLR,0.00,VWS V14.01,2013-08-28 12:30:00,
2013-08-28 08:31:00,76.5,67.5,29.84,SW,236,4.7,7.1,74,0.00,,CLR,0.00,VWS V14.01,2013-08-28 12:31:00,
2013-08-28 08:32:00,76.5,67.5,29.84,NW,304,5.9,7.1,74,0.00,,CLR,0.00,VWS V14.01,2013-08-28 12:32:00,
2013-08-28 08:33:00,76.7,67.7,29.84,NW,304,0.0,5.9,74,0.00,,CLR,0.00,VWS V14.01,2013-08-28 12:33:00,
2013-08-28 08:34:00,76.7,67.7,29.84,NW,304,0.0,1.2,74,0.00,,CLR,0.00,VWS V14.01,2013-08-28 12:34:00,
2013-08-28 08:35:00,76.7,67.7,29.84,NW,304,0.0,1.2,74,0.00,,CLR,0.00,VWS V14.01,2013-08-28 12:35:00,
2013-08-28 08:36:00,76.7,67.7,29.84,NW,314,5.9,9.4,74,0.00,,CLR,0.00,VWS V14.01,2013-08-28 12:36:00,
2013-08-28 08:37:00,76.8,67.8,29.84,NW,306,1.2,5.9,74,0.00,,CLR,0.00,VWS V14.01,2013-08-28 12:37:00,
2013-08-28 08:38:00,76.8,67.8,29.84,NW,306,0.0,1.2,74,0.00,,CLR,0.00,VWS V14.01,2013-08-28 12:38:00,
2013-08-28 08:39:00,77.0,68.0,29.84,WNW,298,4.7,10.6,74,0.00,,CLR,0.00,VWS V14.01,2013-08-28 12:39:00,
2013-08-28 08:40:00,77.0,68.0,29.84,WNW,298,1.2,10.6,74,0.00,,CLR,0.00,VWS V14.01,2013-08-28 12:40:00,
2013-08-28 08:41:00,77.0,68.0,29.84,NW,321,4.7,4.7,74,0.00,,CLR,0.00,VWS V14.01,2013-08-28 12:41:00,
2013-08-28 08:42:00,77.0,68.0,29.84,NW,321,3.5,4.7,74,0.00,,CLR,0.00,VWS V14.01,2013-08-28 12:42:00,
2013-08-28 08:43:00,77.2,68.2,29.84,WNW,299,4.7,4.7,74,0.00,,CLR,0.00,VWS V14.01,2013-08-28 12:43:00,
2013-08-28 08:44:00,77.2,68.2,29.84,NW,312,2.4,2.4,74,0.00,,CLR,0.00,VWS V14.01,2013-08-28 12:44:00,
2013-08-28 08:45:00,77.4,68.4,29.84,NW,312,2.4,2.4,74,0.00,,CLR,0.00,VWS V14.01,2013-08-28 12:45:00,
2013-08-28 08:46:00,77.4,68.4,29.84,WNW,298,2.4,5.9,74,0.00,,CLR,0.00,VWS V14.01,2013-08-28 12:46:00,
2013-08-28 08:47:00,77.4,68.4,29.84,WNW,298,0.0,2.4,74,0.00,,CLR,0.00,VWS V14.01,2013-08-28 12:47:00,
2013-08-28 08:48:00,77.6,68.6,29.84,WNW,298,3.5,3.5,74,0.00,,CLR,0.00,VWS V14.01,2013-08-28 12:48:00,
2013-08-28 08:49:00,77.6,68.6,29.84,NW,317,0.0,3.5,74,0.00,,CLR,0.00,VWS V14.01,2013-08-28 12:49:00,
2013-08-28 08:50:00,77.6,68.6,29.84,NW,317,1.2,1.2,74,0.00,,CLR,0.00,VWS V14.01,2013-08-28 12:50:00,
2013-08-28 08:51:00,77.7,68.7,29.84,NW,316,0.0,3.5,74,0.00,,CLR,0.00,VWS V14.01,2013-08-28 12:51:00,
2013-08-28 08:52:00,77.7,68.7,29.84,NW,316,2.4,3.5,74,0.00,,CLR,0.00,VWS V14.01,2013-08-28 12:52:00,
2013-08-28 08:53:00,77.7,68.7,29.84,NW,313,3.5,3.5,74,0.00,,CLR,0.00,VWS V14.01,2013-08-28 12:53:00,
2013-08-28 08:54:00,77.9,68.8,29.84,NW,312,2.4,3.5,74,0.00,,CLR,0.00,VWS V14.01,2013-08-28 12:54:00,
2013-08-28 08:55:00,77.9,68.8,29.84,NW,312,1.2,2.4,74,0.00,,CLR,0.00,VWS V14.01,2013-08-28 12:55:00,
2013-08-28 08:56:00,78.1,68.6,29.84,NW,314,0.0,1.2,73,0.00,,CLR,0.00,VWS V14.01,2013-08-28 12:56:00,
2013-08-28 08:57:00,78.1,68.6,29.84,NW,314,2.4,2.4,73,0.00,,CLR,0.00,VWS V14.01,2013-08-28 12:57:00,
2013-08-28 08:58:00,78.1,69.0,29.84,NW,308,7.1,7.1,74,0.00,,CLR,0.00,VWS V14.01,2013-08-28 12:58:00,
2013-08-28 08:59:00,78.3,69.2,29.84,NW,313,1.2,9.4,74,0.00,,CLR,0.00,VWS V14.01,2013-08-28 12:59:00,
2013-08-28 09:00:00,78.3,69.2,29.84,NW,310,2.4,5.9,74,0.00,,CLR,0.00,VWS V14.01,2013-08-28 13:00:00,
2013-08-28 09:01:00,78.5,69.0,29.84,NW,310,1.2,3.5,73,0.00,,CLR,0.00,VWS V14.01,2013-08-28 13:01:00,
2013-08-28 09:02:00,78.5,69.0,29.84,NW,310,1.2,3.5,73,0.00,,CLR,0.00,VWS V14.01,2013-08-28 13:02:00,
2013-08-28 09:03:00,78.5,69.4,29.84,NW,321,4.7,4.7,74,0.00,,CLR,0.00,VWS V14.01,2013-08-28 13:03:00,
2013-08-28 09:04:00,78.6,69.5,29.84,NW,319,2.4,4.7,74,0.00,,CLR,0.00,VWS V14.01,2013-08-28 13:04:00,
2013-08-28 09:05:00,78.6,69.5,29.84,NW,319,3.5,3.5,74,0.00,,CLR,0.00,VWS V14.01,2013-08-28 13:05:00,
2013-08-28 09:06:00,78.6,69.5,29.84,NW,326,3.5,4.7,74,0.00,,CLR,0.00,VWS V14.01,2013-08-28 13:06:00,
2013-08-28 09:07:00,78.8,69.7,29.84,NNW,327,3.5,8.3,74,0.00,,CLR,0.00,VWS V14.01,2013-08-28 13:07:00,
2013-08-28 09:08:00,78.8,69.7,29.84,West,260,2.4,5.9,74,0.00,,CLR,0.00,VWS V14.01,2013-08-28 13:08:00,
2013-08-28 09:09:00,78.8,69.7,29.84,NW,310,5.9,5.9,74,0.00,,CLR,0.00,VWS V14.01,2013-08-28 13:09:00,
2013-08-28 09:10:00,79.0,69.9,29.85,NW,309,4.7,5.9,74,0.00,,CLR,0.00,VWS V14.01,2013-08-28 13:10:00,
2013-08-28 09:11:00,79.0,69.9,29.85,NW,310,3.5,4.7,74,0.00,,CLR,0.00,VWS V14.01,2013-08-28 13:11:00,
2013-08-28 09:12:00,79.0,69.9,29.85,NNW,329,4.7,9.4,74,0.00,,CLR,0.00,VWS V14.01,2013-08-28 13:12:00,
2013-08-28 09:13:00,79.0,69.9,29.85,NNW,329,3.5,4.7,74,0.00,,CLR,0.00,VWS V14.01,2013-08-28 13:13:00,
2013-08-28 09:14:00,79.2,70.1,29.85,NW,314,5.9,5.9,74,0.00,,CLR,0.00,VWS V14.01,2013-08-28 13:14:00,
2013-08-28 09:15:00,79.2,70.1,29.85,NW,311,7.1,7.1,74,0.00,,CLR,0.00,VWS V14.01,2013-08-28 13:15:00,
2013-08-28 09:16:00,79.2,70.1,29.85,NW,308,5.9,9.4,74,0.00,,CLR,0.00,VWS V14.01,2013-08-28 13:16:00,
2013-08-28 09:17:00,79.2,70.1,29.85,NW,325,5.9,8.3,74,0.00,,CLR,0.00,VWS V14.01,2013-08-28 13:17:00,
2013-08-28 09:18:00,79.4,70.3,29.85,NW,321,5.9,11.8,74,0.00,,CLR,0.00,VWS V14.01,2013-08-28 13:18:00,
2013-08-28 09:19:00,79.4,70.3,29.85,NW,317,3.5,8.3,74,0.00,,CLR,0.00,VWS V14.01,2013-08-28 13:19:00,
2013-08-28 09:20:00,79.4,70.3,29.85,NNW,330,7.1,7.1,74,0.00,,CLR,0.00,VWS V14.01,2013-08-28 13:20:00,
2013-08-28 09:21:00,79.4,70.3,29.85,NW,321,4.7,7.1,74,0.00,,CLR,0.00,VWS V14.01,2013-08-28 13:21:00,
2013-08-28 09:22:00,79.4,70.3,29.85,WNW,302,1.2,4.7,74,0.00,,CLR,0.00,VWS V14.01,2013-08-28 13:22:00,
2013-08-28 09:23:00,79.4,70.3,29.85,NW,306,4.7,4.7,74,0.00,,CLR,0.00,VWS V14.01,2013-08-28 13:23:00,
2013-08-28 09:24:00,79.4,70.3,29.85,NW,315,4.7,4.7,74,0.00,,CLR,0.00,VWS V14.01,2013-08-28 13:24:00,
2013-08-28 09:25:00,79.4,70.3,29.85,NNW,344,5.9,7.1,74,0.00,,CLR,0.00,VWS V14.01,2013-08-28 13:25:00,
2013-08-28 09:26:00,79.4,70.3,29.85,NNW,333,4.7,5.9,74,0.00,,CLR,0.00,VWS V14.01,2013-08-28 13:26:00,
2013-08-28 09:27:00,79.6,70.5,29.85,NNW,329,3.5,5.9,74,0.00,,CLR,0.00,VWS V14.01,2013-08-28 13:27:00,
2013-08-28 09:28:00,79.6,70.5,29.85,NW,311,4.7,4.7,74,0.00,,CLR,0.00,VWS V14.01,2013-08-28 13:28:00,
2013-08-28 09:29:00,79.6,70.9,29.85,NNW,327,8.3,8.3,75,0.00,,CLR,0.00,VWS V14.01,2013-08-28 13:29:00,
2013-08-28 09:30:00,79.6,70.9,29.85,NNW,333,5.9,8.3,75,0.00,,CLR,0.00,VWS V14.01,2013-08-28 13:30:00,
2013-08-28 09:31:00,79.6,70.9,29.85,NNW,343,7.1,13.0,75,0.00,,CLR,0.00,VWS V14.01,2013-08-28 13:31:00,
2013-08-28 09:32:00,79.6,70.9,29.85,NNW,331,5.9,8.3,75,0.00,,CLR,0.00,VWS V14.01,2013-08-28 13:32:00,
2013-08-28 09:33:00,79.6,70.9,29.85,NNW,334,5.9,5.9,75,0.00,,CLR,0.00,VWS V14.01,2013-08-28 13:33:00,
2013-08-28 09:34:00,79.6,70.9,29.85,NW,316,5.9,7.1,75,0.00,,CLR,0.00,VWS V14.01,2013-08-28 13:34:00,
2013-08-28 09:35:00,79.6,70.9,29.85,NNW,329,5.9,5.9,75,0.00,,CLR,0.00,VWS V14.01,2013-08-28 13:35:00,
2013-08-28 09:36:00,79.6,70.9,29.85,NNW,333,4.7,7.1,75,0.00,,CLR,0.00,VWS V14.01,2013-08-28 13:36:00,
2013-08-28 09:37:00,79.6,70.9,29.85,NNW,328,5.9,5.9,75,0.00,,CLR,0.00,VWS V14.01,2013-08-28 13:37:00,
2013-08-28 09:38:00,79.6,70.9,29.85,NNW,327,3.5,7.1,75,0.00,,CLR,0.00,VWS V14.01,2013-08-28 13:38:00,
2013-08-28 09:39:00,79.6,71.3,29.85,NNW,334,5.9,7.1,76,0.00,,CLR,0.00,VWS V14.01,2013-08-28 13:39:00,
2013-08-28 09:40:00,79.6,71.3,29.85,NNW,333,3.5,5.9,76,0.00,,CLR,0.00,VWS V14.01,2013-08-28 13:40:00,
2013-08-28 09:41:00,79.6,71.3,29.85,NW,319,4.7,7.1,76,0.00,,CLR,0.00,VWS V14.01,2013-08-28 13:41:00,
2013-08-28 09:42:00,79.8,71.5,29.85,NW,321,4.7,5.9,76,0.00,,CLR,0.00,VWS V14.01,2013-08-28 13:42:00,
2013-08-28 09:43:00,79.8,71.5,29.85,NW,320,4.7,4.7,76,0.00,,CLR,0.00,VWS V14.01,2013-08-28 13:43:00,
2013-08-28 09:44:00,79.8,71.9,29.85,NW,320,2.4,4.7,77,0.00,,CLR,0.00,VWS V14.01,2013-08-28 13:44:00,
2013-08-28 09:45:00,79.8,71.9,29.85,NW,323,2.4,4.7,77,0.00,,BKN009,0.00,VWS V14.01,2013-08-28 13:45:00,
2013-08-28 09:46:00,79.9,72.0,29.85,WNW,300,2.4,4.7,77,0.00,,CLR,0.00,VWS V14.01,2013-08-28 13:46:00,
2013-08-28 09:47:00,79.9,72.0,29.85,WNW,300,2.4,3.5,77,0.00,,CLR,0.00,VWS V14.01,2013-08-28 13:47:00,
2013-08-28 09:48:00,79.9,72.0,29.85,WNW,302,3.5,4.7,77,0.00,,CLR,0.00,VWS V14.01,2013-08-28 13:48:00,
2013-08-28 09:49:00,80.1,72.2,29.85,NW,320,2.4,5.9,77,0.00,,CLR,0.00,VWS V14.01,2013-08-28 13:49:00,
2013-08-28 09:50:00,80.1,72.2,29.85,WNW,302,4.7,4.7,77,0.00,,BKN009,0.00,VWS V14.01,2013-08-28 13:50:00,
2013-08-28 09:51:00,80.1,72.2,29.85,NW,304,3.5,4.7,77,0.00,,CLR,0.00,VWS V14.01,2013-08-28 13:51:00,
2013-08-28 09:52:00,80.3,72.7,29.85,NW,314,3.5,3.5,78,0.00,,CLR,0.00,VWS V14.01,2013-08-28 13:52:00,
2013-08-28 09:53:00,80.3,72.7,29.85,NNW,329,7.1,8.3,78,0.00,,CLR,0.00,VWS V14.01,2013-08-28 13:53:00,
2013-08-28 09:54:00,80.3,72.7,29.85,NNW,329,3.5,7.1,78,0.00,,CLR,0.00,VWS V14.01,2013-08-28 13:54:00,
2013-08-28 09:55:00,80.3,72.7,29.85,NNW,329,3.5,5.9,78,0.00,,BKN009,0.00,VWS V14.01,2013-08-28 13:55:00,
2013-08-28 09:56:00,80.5,72.5,29.85,NNW,336,5.9,7.1,77,0.00,,CLR,0.00,VWS V14.01,2013-08-28 13:56:00,
2013-08-28 09:57:00,80.5,72.5,29.85,NNW,336,4.7,5.9,77,0.00,,CLR,0.00,VWS V14.01,2013-08-28 13:57:00,
2013-08-28 09:58:00,80.5,72.5,29.85,NNW,333,7.1,7.1,77,0.00,,CLR,0.00,VWS V14.01,2013-08-28 13:58:00,
2013-08-28 09:59:00,80.5,72.5,29.85,NNW,334,4.7,8.3,77,0.00,,CLR,0.00,VWS V14.01,2013-08-28 13:59:00,
2013-08-28 10:00:00,80.5,72.5,29.85,NW,317,5.9,5.9,77,0.00,,BKN009,0.00,VWS V14.01,2013-08-28 14:00:00,
2013-08-28 10:01:00,80.5,72.5,29.86,NNW,331,4.7,5.9,77,0.00,,CLR,0.00,VWS V14.01,2013-08-28 14:01:00,
2013-08-28 10:02:00,80.5,72.5,29.86,NNW,328,4.7,8.3,77,0.00,,CLR,0.00,VWS V14.01,2013-08-28 14:02:00,
2013-08-28 10:03:00,80.5,72.5,29.86,NNW,348,5.9,9.4,77,0.00,,CLR,0.00,VWS V14.01,2013-08-28 14:03:00,
2013-08-28 10:04:00,80.5,72.5,29.86,NW,315,8.3,8.3,77,0.00,,CLR,0.00,VWS V14.01,2013-08-28 14:04:00,
2013-08-28 10:05:00,80.5,72.5,29.86,NW,311,7.1,8.3,77,0.00,,BKN009,0.00,VWS V14.01,2013-08-28 14:05:00,
2013-08-28 10:06:00,80.5,72.9,29.86,NW,319,4.7,9.4,78,0.00,,CLR,0.00,VWS V14.01,2013-08-28 14:06:00,
2013-08-28 10:07:00,80.5,72.9,29.86,NW,313,4.7,5.9,78,0.00,,CLR,0.00,VWS V14.01,2013-08-28 14:07:00,
2013-08-28 10:08:00,80.5,72.9,29.86,NW,313,3.5,5.9,78,0.00,,CLR,0.00,VWS V14.01,2013-08-28 14:08:00,
2013-08-28 10:09:00,80.5,72.9,29.86,NW,323,4.7,7.1,78,0.00,,CLR,0.00,VWS V14.01,2013-08-28 14:09:00,
2013-08-28 10:10:00,80.5,72.9,29.86,NNW,333,5.9,5.9,78,0.00,,BKN009,0.00,VWS V14.01,2013-08-28 14:10:00,
2013-08-28 10:11:00,80.5,72.9,29.86,NNW,333,4.7,5.9,78,0.00,,CLR,0.00,VWS V14.01,2013-08-28 14:11:00,
2013-08-28 10:12:00,80.5,72.9,29.86,NNW,333,5.9,8.3,78,0.00,,CLR,0.00,VWS V14.01,2013-08-28 14:12:00,
2013-08-28 10:13:00,80.5,72.9,29.86,NNW,333,7.1,7.1,78,0.00,,CLR,0.00,VWS V14.01,2013-08-28 14:13:00,
2013-08-28 10:14:00,80.5,72.9,29.86,NNW,339,4.7,7.1,78,0.00,,CLR,0.00,VWS V14.01,2013-08-28 14:14:00,
2013-08-28 10:15:00,80.3,72.7,29.86,NNW,329,5.9,7.1,78,0.00,,BKN009,0.00,VWS V14.01,2013-08-28 14:15:00,
2013-08-28 10:16:00,80.3,72.7,29.87,NNW,329,3.5,5.9,78,0.00,,CLR,0.00,VWS V14.01,2013-08-28 14:16:00,
2013-08-28 10:17:00,80.3,72.7,29.87,NNW,333,4.7,5.9,78,0.00,,CLR,0.00,VWS V14.01,2013-08-28 14:17:00,
2013-08-28 10:18:00,80.3,72.7,29.87,NW,325,4.7,5.9,78,0.00,,CLR,0.00,VWS V14.01,2013-08-28 14:18:00,
2013-08-28 10:19:00,80.3,72.7,29.87,NNW,348,5.9,7.1,78,0.00,,CLR,0.00,VWS V14.01,2013-08-28 14:19:00,
2013-08-28 10:20:00,80.1,72.5,29.87,NNW,333,5.9,7.1,78,0.00,,BKN009,0.00,VWS V14.01,2013-08-28 14:20:00,
2013-08-28 10:21:00,80.1,72.5,29.87,NNW,333,3.5,5.9,78,0.00,,CLR,0.00,VWS V14.01,2013-08-28 14:21:00,
2013-08-28 10:22:00,80.1,72.5,29.87,NNW,333,3.5,4.7,78,0.00,,CLR,0.00,VWS V14.01,2013-08-28 14:22:00,
2013-08-28 10:23:00,80.1,72.5,29.87,NW,320,5.9,5.9,78,0.00,,CLR,0.00,VWS V14.01,2013-08-28 14:23:00,
2013-08-28 10:24:00,80.1,72.9,29.87,NW,317,5.9,9.4,79,0.00,,CLR,0.00,VWS V14.01,2013-08-28 14:24:00,
2013-08-28 10:25:00,79.9,72.7,29.87,NW,319,4.7,5.9,79,0.00,,BKN009,0.00,VWS V14.01,2013-08-28 14:25:00,
2013-08-28 10:26:00,79.9,72.7,29.87,NW,318,5.9,7.1,79,0.00,,CLR,0.00,VWS V14.01,2013-08-28 14:26:00,
2013-08-28 10:27:00,79.9,72.7,29.87,NW,314,3.5,7.1,79,0.00,,CLR,0.00,VWS V14.01,2013-08-28 14:27:00,
2013-08-28 10:28:00,79.9,72.7,29.87,NW,323,7.1,8.3,79,0.00,,CLR,0.00,VWS V14.01,2013-08-28 14:28:00,
2013-08-28 10:29:00,79.8,72.6,29.87,NW,314,5.9,5.9,79,0.00,,CLR,0.00,VWS V14.01,2013-08-28 14:29:00,
2013-08-28 10:30:00,79.8,72.6,29.87,WNW,300,4.7,5.9,79,0.00,,BKN009,0.00,VWS V14.01,2013-08-28 14:30:00,
2013-08-28 10:31:00,79.8,72.6,29.87,WNW,303,3.5,4.7,79,0.00,,CLR,0.00,VWS V14.01,2013-08-28 14:31:00,
2013-08-28 10:32:00,79.6,72.4,29.87,WNW,289,8.3,8.3,79,0.00,,CLR,0.00,VWS V14.01,2013-08-28 14:32:00,
2013-08-28 10:33:00,79.6,72.8,29.87,NW,315,3.5,8.3,80,0.00,,CLR,0.00,VWS V14.01,2013-08-28 14:33:00,
2013-08-28 10:34:00,79.6,72.8,29.87,NW,315,2.4,3.5,80,0.00,,CLR,0.00,VWS V14.01,2013-08-28 14:34:00,
2013-08-28 10:35:00,79.6,72.8,29.87,NW,315,3.5,3.5,80,0.00,,BKN009,0.00,VWS V14.01,2013-08-28 14:35:00,
2013-08-28 10:36:00,79.4,72.6,29.87,NNW,335,4.7,4.7,80,0.00,,CLR,0.00,VWS V14.01,2013-08-28 14:36:00,
2013-08-28 10:37:00,79.4,72.6,29.87,NNW,333,2.4,4.7,80,0.00,,CLR,0.00,VWS V14.01,2013-08-28 14:37:00,
2013-08-28 10:38:00,79.4,72.6,29.87,WNW,301,0.0,4.7,80,0.00,,CLR,0.00,VWS V14.01,2013-08-28 14:38:00,
2013-08-28 10:39:00,79.4,72.6,29.88,NW,310,4.7,4.7,80,0.00,,CLR,0.00,VWS V14.01,2013-08-28 14:39:00,
2013-08-28 10:40:00,79.4,72.6,29.88,NW,304,1.2,4.7,80,0.00,,BKN009,0.00,VWS V14.01,2013-08-28 14:40:00,
2013-08-28 10:41:00,79.2,72.4,29.87,NW,309,2.4,5.9,80,0.00,,CLR,0.00,VWS V14.01,2013-08-28 14:41:00,
2013-08-28 10:42:00,79.2,72.4,29.88,NW,311,4.7,4.7,80,0.00,,CLR,0.00,VWS V14.01,2013-08-28 14:42:00,
2013-08-28 10:43:00,79.2,72.8,29.88,NW,311,3.5,4.7,81,0.00,,CLR,0.00,VWS V14.01,2013-08-28 14:43:00,
2013-08-28 10:44:00,79.2,72.8,29.88,NNW,328,2.4,4.7,81,0.00,,CLR,0.00,VWS V14.01,2013-08-28 14:44:00,
2013-08-28 10:45:00,79.2,72.8,29.88,NNW,328,2.4,3.5,81,0.00,,,0.00,VWS V14.01,2013-08-28 14:45:00,
2013-08-28 10:46:00,79.2,72.8,29.88,NNW,345,2.4,5.9,81,0.00,,CLR,0.00,VWS V14.01,2013-08-28 14:46:00,
2013-08-28 10:47:00,79.2,72.8,29.88,NNW,328,4.7,4.7,81,0.00,,CLR,0.00,VWS V14.01,2013-08-28 14:47:00,
2013-08-28 10:48:00,79.2,72.8,29.88,NNW,347,3.5,5.9,81,0.00,,CLR,0.00,VWS V14.01,2013-08-28 14:48:00,
2013-08-28 10:49:00,79.2,72.8,29.88,NNW,347,1.2,3.5,81,0.00,,CLR,0.00,VWS V14.01,2013-08-28 14:49:00,
2013-08-28 10:50:00,79.2,72.8,29.88,NNW,347,0.0,2.4,81,0.00,,,0.00,VWS V14.01,2013-08-28 14:50:00,
2013-08-28 10:51:00,79.0,72.6,29.88,NNW,346,1.2,3.5,81,0.00,,CLR,0.00,VWS V14.01,2013-08-28 14:51:00,
2013-08-28 10:52:00,79.0,73.0,29.88,NNW,346,1.2,2.4,82,0.00,,CLR,0.00,VWS V14.01,2013-08-28 14:52:00,
2013-08-28 10:53:00,79.0,73.0,29.88,NNW,346,3.5,4.7,82,0.00,,CLR,0.00,VWS V14.01,2013-08-28 14:53:00,
2013-08-28 10:54:00,79.2,73.2,29.88,NNW,346,2.4,4.7,82,0.00,,CLR,0.00,VWS V14.01,2013-08-28 14:54:00,
2013-08-28 10:55:00,79.0,73.0,29.88,NNW,346,3.5,4.7,82,0.00,,,0.00,VWS V14.01,2013-08-28 14:55:00,
2013-08-28 10:56:00,79.2,73.2,29.88,NNW,346,3.5,3.5,82,0.00,,CLR,0.00,VWS V14.01,2013-08-28 14:56:00,
2013-08-28 10:57:00,79.0,73.0,29.88,North,350,5.9,7.1,82,0.00,,CLR,0.00,VWS V14.01,2013-08-28 14:57:00,
2013-08-28 10:58:00,79.0,73.0,29.88,North,350,4.7,5.9,82,0.00,,CLR,0.00,VWS V14.01,2013-08-28 14:58:00,
2013-08-28 10:59:00,79.0,73.0,29.88,NNW,339,3.5,5.9,82,0.00,,CLR,0.00,VWS V14.01,2013-08-28 14:59:00,
2013-08-28 11:00:00,79.0,73.0,29.88,NNW,339,1.2,3.5,82,0.00,,,0.00,VWS V14.01,2013-08-28 15:00:00,
2013-08-28 11:01:00,79.0,73.0,29.88,NNW,343,1.2,2.4,82,0.00,,CLR,0.00,VWS V14.01,2013-08-28 15:01:00,
2013-08-28 11:02:00,79.0,73.0,29.88,NNW,343,2.4,3.5,82,0.00,,CLR,0.00,VWS V14.01,2013-08-28 15:02:00,
2013-08-28 11:03:00,79.0,73.0,29.88,NNW,343,0.0,2.4,82,0.00,,CLR,0.00,VWS V14.01,2013-08-28 15:03:00,
2013-08-28 11:04:00,79.2,73.5,29.88,NNW,343,2.4,3.5,83,0.00,,CLR,0.00,VWS V14.01,2013-08-28 15:04:00,
2013-08-28 11:05:00,79.2,73.5,29.88,NNW,343,2.4,3.5,83,0.00,,,0.00,VWS V14.01,2013-08-28 15:05:00,
2013-08-28 11:06:00,79.2,73.5,29.88,NNW,343,2.4,3.5,83,0.00,,CLR,0.00,VWS V14.01,2013-08-28 15:06:00,
2013-08-28 11:07:00,79.2,73.5,29.88,NNW,343,3.5,3.5,83,0.00,,CLR,0.00,VWS V14.01,2013-08-28 15:07:00,
2013-08-28 11:08:00,79.2,73.5,29.88,NNW,343,2.4,4.7,83,0.00,,CLR,0.00,VWS V14.01,2013-08-28 15:08:00,
2013-08-28 11:09:00,79.2,73.5,29.88,NNW,344,1.2,3.5,83,0.00,,CLR,0.00,VWS V14.01,2013-08-28 15:09:00,
2013-08-28 11:10:00,79.2,73.5,29.88,NNW,344,0.0,2.4,83,0.00,,,0.00,VWS V14.01,2013-08-28 15:10:00,
2013-08-28 11:11:00,79.2,73.5,29.88,NW,321,3.5,3.5,83,0.00,,CLR,0.00,VWS V14.01,2013-08-28 15:11:00,
2013-08-28 11:12:00,79.2,73.5,29.88,WNW,300,4.7,7.1,83,0.00,,CLR,0.00,VWS V14.01,2013-08-28 15:12:00,
2013-08-28 11:13:00,79.2,73.5,29.88,WNW,302,4.7,5.9,83,0.00,,CLR,0.00,VWS V14.01,2013-08-28 15:13:00,
2013-08-28 11:14:00,79.2,73.5,29.88,NNW,329,4.7,4.7,83,0.00,,CLR,0.00,VWS V14.01,2013-08-28 15:14:00,
2013-08-28 11:15:00,79.2,73.5,29.88,NNW,329,1.2,4.7,83,0.00,,,0.00,VWS V14.01,2013-08-28 15:15:00,
2013-08-28 11:16:00,79.4,73.7,29.88,NNW,329,2.4,2.4,83,0.00,,CLR,0.00,VWS V14.01,2013-08-28 15:16:00,
2013-08-28 11:17:00,79.4,73.7,29.88,NNW,329,2.4,2.4,83,0.00,,CLR,0.00,VWS V14.01,2013-08-28 15:17:00,
2013-08-28 11:18:00,79.4,73.7,29.88,NNW,329,2.4,2.4,83,0.00,,CLR,0.00,VWS V14.01,2013-08-28 15:18:00,
2013-08-28 11:19:00,79.4,73.7,29.88,NNW,329,1.2,2.4,83,0.00,,CLR,0.00,VWS V14.01,2013-08-28 15:19:00,
2013-08-28 11:20:00,79.4,73.7,29.88,NNW,329,1.2,2.4,83,0.00,,,0.00,VWS V14.01,2013-08-28 15:20:00,
2013-08-28 11:21:00,79.4,73.7,29.88,NNW,329,1.2,1.2,83,0.00,,CLR,0.00,VWS V14.01,2013-08-28 15:21:00,
2013-08-28 11:22:00,79.4,73.7,29.88,NNW,329,2.4,2.4,83,0.00,,CLR,0.00,VWS V14.01,2013-08-28 15:22:00,
2013-08-28 11:23:00,79.4,73.7,29.88,NNW,329,1.2,2.4,83,0.00,,CLR,0.00,VWS V14.01,2013-08-28 15:23:00,
2013-08-28 11:24:00,79.4,73.7,29.88,NNW,329,1.2,2.4,83,0.00,,CLR,0.00,VWS V14.01,2013-08-28 15:24:00,
2013-08-28 11:25:00,79.4,73.7,29.88,NNW,344,2.4,4.7,83,0.00,,,0.00,VWS V14.01,2013-08-28 15:25:00,
2013-08-28 11:26:00,79.4,73.7,29.88,NW,312,1.2,2.4,83,0.00,,CLR,0.00,VWS V14.01,2013-08-28 15:26:00,
2013-08-28 11:27:00,79.6,73.9,29.89,NW,313,1.2,4.7,83,0.00,,CLR,0.00,VWS V14.01,2013-08-28 15:27:00,
2013-08-28 11:28:00,79.6,73.9,29.89,NNW,331,5.9,5.9,83,0.00,,CLR,0.00,VWS V14.01,2013-08-28 15:28:00,
2013-08-28 11:29:00,79.6,73.9,29.88,NNW,332,0.0,5.9,83,0.00,,CLR,0.00,VWS V14.01,2013-08-28 15:29:00,
2013-08-28 11:30:00,79.6,73.9,29.89,North,355,2.4,5.9,83,0.00,,,0.00,VWS V14.01,2013-08-28 15:30:00,
2013-08-28 11:31:00,79.6,73.9,29.89,North,355,1.2,2.4,83,0.00,,CLR,0.00,VWS V14.01,2013-08-28 15:31:00,
2013-08-28 11:32:00,79.6,73.9,29.89,North,355,0.0,1.2,83,0.00,,CLR,0.00,VWS V14.01,2013-08-28 15:32:00,
2013-08-28 11:33:00,79.6,73.9,29.88,NNW,335,3.5,3.5,83,0.00,,CLR,0.00,VWS V14.01,2013-08-28 15:33:00,
2013-08-28 11:34:00,79.6,73.9,29.89,NW,320,2.4,5.9,83,0.00,,CLR,0.00,VWS V14.01,2013-08-28 15:34:00,
2013-08-28 11:35:00,79.6,73.9,29.89,NW,324,2.4,8.3,83,0.00,,,0.00,VWS V14.01,2013-08-28 15:35:00,
2013-08-28 11:36:00,79.6,73.6,29.89,NW,324,4.7,4.7,82,0.00,,CLR,0.00,VWS V14.01,2013-08-28 15:36:00,
2013-08-28 11:37:00,79.8,73.8,29.89,NW,324,2.4,4.7,82,0.00,,CLR,0.00,VWS V14.01,2013-08-28 15:37:00,
2013-08-28 11:38:00,79.8,73.8,29.89,NW,324,0.0,2.4,82,0.00,,CLR,0.00,VWS V14.01,2013-08-28 15:38:00,
2013-08-28 11:39:00,79.8,73.8,29.89,NW,325,3.5,3.5,82,0.00,,CLR,0.00,VWS V14.01,2013-08-28 15:39:00,
2013-08-28 11:40:00,79.8,73.8,29.89,NW,325,4.7,4.7,82,0.00,,,0.00,VWS V14.01,2013-08-28 15:40:00,
2013-08-28 11:41:00,79.8,73.8,29.89,NNW,346,2.4,5.9,82,0.00,,CLR,0.00,VWS V14.01,2013-08-28 15:41:00,
2013-08-28 11:42:00,79.8,73.8,29.89,NNW,346,4.7,5.9,82,0.00,,CLR,0.00,VWS V14.01,2013-08-28 15:42:00,
2013-08-28 11:43:00,79.8,73.8,29.89,NNW,346,3.5,4.7,82,0.00,,CLR,0.00,VWS V14.01,2013-08-28 15:43:00,
2013-08-28 11:44:00,79.8,73.8,29.89,NNW,338,4.7,5.9,82,0.00,,CLR,0.00,VWS V14.01,2013-08-28 15:44:00,
2013-08-28 11:45:00,79.8,73.8,29.88,NNW,338,0.0,4.7,82,0.00,,OVC017,0.00,VWS V14.01,2013-08-28 15:45:00,
2013-08-28 11:46:00,79.8,73.8,29.88,NNW,347,4.7,5.9,82,0.00,,CLR,0.00,VWS V14.01,2013-08-28 15:46:00,
2013-08-28 11:47:00,79.8,73.8,29.89,NNW,347,4.7,4.7,82,0.00,,CLR,0.00,VWS V14.01,2013-08-28 15:47:00,
2013-08-28 11:48:00,79.8,73.8,29.89,NNW,347,4.7,4.7,82,0.00,,CLR,0.00,VWS V14.01,2013-08-28 15:48:00,
2013-08-28 11:49:00,79.8,73.8,29.89,NNW,347,4.7,4.7,82,0.00,,CLR,0.00,VWS V14.01,2013-08-28 15:49:00,
2013-08-28 11:50:00,79.8,73.8,29.89,NNW,347,2.4,4.7,82,0.00,,OVC017,0.00,VWS V14.01,2013-08-28 15:50:00,
2013-08-28 11:51:00,79.9,73.8,29.89,NNW,347,1.2,4.7,82,0.00,,CLR,0.00,VWS V14.01,2013-08-28 15:51:00,
2013-08-28 11:52:00,79.9,73.8,29.89,NNW,347,2.4,2.4,82,0.00,,CLR,0.00,VWS V14.01,2013-08-28 15:52:00,
2013-08-28 11:53:00,79.9,73.8,29.89,NNW,347,1.2,2.4,82,0.00,,CLR,0.00,VWS V14.01,2013-08-28 15:53:00,
2013-08-28 11:54:00,79.9,73.8,29.89,NNW,347,2.4,2.4,82,0.00,,CLR,0.00,VWS V14.01,2013-08-28 15:54:00,
2013-08-28 11:55:00,79.9,73.8,29.89,NNW,347,3.5,3.5,82,0.00,,OVC017,0.00,VWS V14.01,2013-08-28 15:55:00,
2013-08-28 11:56:00,79.9,73.8,29.89,NNW,347,2.4,3.5,82,0.00,,CLR,0.00,VWS V14.01,2013-08-28 15:56:00,
2013-08-28 11:57:00,79.9,73.8,29.88,NNW,347,0.0,2.4,82,0.00,,CLR,0.00,VWS V14.01,2013-08-28 15:57:00,
2013-08-28 11:58:00,80.1,74.0,29.88,North,355,2.4,5.9,82,0.00,,CLR,0.00,VWS V14.01,2013-08-28 15:58:00,
2013-08-28 11:59:00,80.1,73.7,29.88,North,355,0.0,3.5,81,0.00,,CLR,0.00,VWS V14.01,2013-08-28 15:59:00,
2013-08-28 12:00:00,80.1,73.7,29.88,North,355,1.2,2.4,81,0.00,,OVC017,0.00,VWS V14.01,2013-08-28 16:00:00,
2013-08-28 12:01:00,80.1,73.7,29.88,North,355,0.0,2.4,81,0.00,,CLR,0.00,VWS V14.01,2013-08-28 16:01:00,
2013-08-28 12:02:00,80.3,74.2,29.88,North,355,0.0,2.4,82,0.00,,CLR,0.00,VWS V14.01,2013-08-28 16:02:00,
2013-08-28 12:03:00,80.3,74.2,29.88,North,355,2.4,3.5,82,0.00,,CLR,0.00,VWS V14.01,2013-08-28 16:03:00,
2013-08-28 12:04:00,80.3,74.2,29.88,North,355,3.5,3.5,82,0.00,,CLR,0.00,VWS V14.01,2013-08-28 16:04:00,
2013-08-28 12:05:00,80.5,74.4,29.88,North,355,1.2,3.5,82,0.00,,OVC017,0.00,VWS V14.01,2013-08-28 16:05:00,
2013-08-28 12:06:00,80.5,74.4,29.88,North,355,2.4,4.7,82,0.00,,CLR,0.00,VWS V14.01,2013-08-28 16:06:00,
2013-08-28 12:07:00,80.7,74.6,29.88,North,355,3.5,3.5,82,0.00,,CLR,0.00,VWS V14.01,2013-08-28 16:07:00,
2013-08-28 12:08:00,80.7,74.6,29.88,North,355,3.5,4.7,82,0.00,,CLR,0.00,VWS V14.01,2013-08-28 16:08:00,
2013-08-28 12:09:00,80.9,74.8,29.88,WNW,295,2.4,3.5,82,0.00,,CLR,0.00,VWS V14.01,2013-08-28 16:09:00,
2013-08-28 12:10:00,81.1,75.0,29.88,NW,321,4.7,5.9,82,0.00,,OVC017,0.00,VWS V14.01,2013-08-28 16:10:00,
2013-08-28 12:11:00,81.1,74.7,29.88,NW,321,2.4,4.7,81,0.00,,CLR,0.00,VWS V14.01,2013-08-28 16:11:00,
2013-08-28 12:12:00,81.2,74.7,29.88,NW,321,3.5,3.5,81,0.00,,CLR,0.00,VWS V14.01,2013-08-28 16:12:00,
2013-08-28 12:13:00,81.2,74.4,29.88,NW,321,2.4,3.5,80,0.00,,CLR,0.00,VWS V14.01,2013-08-28 16:13:00,
2013-08-28 12:14:00,81.4,74.6,29.88,NW,321,2.4,3.5,80,0.00,,CLR,0.00,VWS V14.01,2013-08-28 16:14:00,
2013-08-28 12:15:00,81.4,74.6,29.88,NNW,338,4.7,5.9,80,0.00,,OVC017,0.00,VWS V14.01,2013-08-28 16:15:00,
2013-08-28 12:16:00,81.6,74.8,29.88,North,355,1.2,4.7,80,0.00,,CLR,0.00,VWS V14.01,2013-08-28 16:16:00,
2013-08-28 12:17:00,81.6,74.8,29.88,North,355,2.4,3.5,80,0.00,,CLR,0.00,VWS V14.01,2013-08-28 16:17:00,
2013-08-28 12:18:00,81.8,74.6,29.88,North,355,4.7,4.7,79,0.00,,CLR,0.00,VWS V14.01,2013-08-28 16:18:00,
2013-08-28 12:19:00,82.0,74.8,29.88,North,360,0.0,5.9,79,0.00,,CLR,0.00,VWS V14.01,2013-08-28 16:19:00,
2013-08-28 12:20:00,82.0,74.8,29.88,North,360,4.7,4.7,79,0.00,,OVC017,0.00,VWS V14.01,2013-08-28 16:20:00,
2013-08-28 12:21:00,82.2,75.0,29.88,North,5,2.4,5.9,79,0.00,,CLR,0.00,VWS V14.01,2013-08-28 16:21:00,
2013-08-28 12:22:00,82.2,75.0,29.88,NNW,335,1.2,3.5,79,0.00,,CLR,0.00,VWS V14.01,2013-08-28 16:22:00,
2013-08-28 12:23:00,82.4,74.8,29.88,NNW,334,0.0,3.5,78,0.00,,CLR,0.00,VWS V14.01,2013-08-28 16:23:00,
2013-08-28 12:24:00,82.4,74.8,29.88,NW,321,3.5,3.5,78,0.00,,CLR,0.00,VWS V14.01,2013-08-28 16:24:00,
2013-08-28 12:25:00,82.4,74.8,29.88,NNW,348,4.7,4.7,78,0.00,,OVC017,0.00,VWS V14.01,2013-08-28 16:25:00,
2013-08-28 12:26:00,82.6,74.6,29.88,North,360,4.7,5.9,77,0.00,,CLR,0.00,VWS V14.01,2013-08-28 16:26:00,
2013-08-28 12:27:00,82.6,74.6,29.88,North,360,3.5,4.7,77,0.00,,CLR,0.00,VWS V14.01,2013-08-28 16:27:00,
2013-08-28 12:28:00,82.8,74.8,29.88,North,360,4.7,5.9,77,0.00,,CLR,0.00,VWS V14.01,2013-08-28 16:28:00,
2013-08-28 12:29:00,82.8,74.8,29.88,North,360,1.2,4.7,77,0.00,,CLR,0.00,VWS V14.01,2013-08-28 16:29:00,
2013-08-28 12:30:00,82.8,74.8,29.88,North,360,1.2,2.4,77,0.00,,OVC017,0.00,VWS V14.01,2013-08-28 16:30:00,
2013-08-28 12:31:00,83.0,75.0,29.88,North,360,2.4,2.4,77,0.00,,CLR,0.00,VWS V14.01,2013-08-28 16:31:00,
2013-08-28 12:32:00,83.0,74.6,29.88,North,360,0.0,3.5,76,0.00,,CLR,0.00,VWS V14.01,2013-08-28 16:32:00,
2013-08-28 12:33:00,83.0,74.6,29.88,North,360,0.0,1.2,76,0.00,,CLR,0.00,VWS V14.01,2013-08-28 16:33:00,
2013-08-28 12:34:00,83.2,74.8,29.88,North,360,0.0,2.4,76,0.00,,CLR,0.00,VWS V14.01,2013-08-28 16:34:00,
2013-08-28 12:35:00,83.2,74.8,29.88,North,360,0.0,1.2,76,0.00,,OVC017,0.00,VWS V14.01,2013-08-28 16:35:00,
2013-08-28 12:36:00,83.2,74.8,29.88,North,360,0.0,1.2,76,0.00,,CLR,0.00,VWS V14.01,2013-08-28 16:36:00,
2013-08-28 12:37:00,83.4,74.9,29.88,North,360,1.2,2.4,76,0.00,,CLR,0.00,VWS V14.01,2013-08-28 16:37:00,
2013-08-28 12:38:00,83.4,74.9,29.88,North,360,0.0,1.2,76,0.00,,CLR,0.00,VWS V14.01,2013-08-28 16:38:00,
2013-08-28 12:39:00,83.4,74.5,29.88,WNW,296,1.2,4.7,75,0.00,,CLR,0.00,VWS V14.01,2013-08-28 16:39:00,
2013-08-28 12:40:00,83.4,74.6,29.88,WNW,296,0.0,2.4,75,0.00,,OVC017,0.00,VWS V14.01,2013-08-28 16:40:00,
2013-08-28 12:41:00,83.6,74.7,29.88,WNW,296,1.2,2.4,75,0.00,,CLR,0.00,VWS V14.01,2013-08-28 16:41:00,
2013-08-28 12:42:00,83.6,74.7,29.88,NNW,331,0.0,3.5,75,0.00,,CLR,0.00,VWS V14.01,2013-08-28 16:42:00,
2013-08-28 12:43:00,83.6,74.7,29.88,NNW,331,1.2,2.4,75,0.00,,CLR,0.00,VWS V14.01,2013-08-28 16:43:00,
2013-08-28 12:44:00,83.8,74.9,29.88,NNW,331,0.0,1.2,75,0.00,,CLR,0.00,VWS V14.01,2013-08-28 16:44:00,
2013-08-28 12:45:00,83.8,74.9,29.88,NNW,331,1.2,1.2,75,0.00,,FEW021,0.00,VWS V14.01,2013-08-28 16:45:00,
2013-08-28 12:46:00,83.8,74.9,29.89,NNW,331,1.2,1.2,75,0.00,,CLR,0.00,VWS V14.01,2013-08-28 16:46:00,
2013-08-28 12:47:00,83.8,74.9,29.89,NNW,331,2.4,2.4,75,0.00,,CLR,0.00,VWS V14.01,2013-08-28 16:47:00,
2013-08-28 12:48:00,84.0,74.7,29.88,NNW,331,5.9,5.9,74,0.00,,CLR,0.00,VWS V14.01,2013-08-28 16:48:00,
2013-08-28 12:49:00,84.0,74.7,29.88,NNW,338,5.9,5.9,74,0.00,,CLR,0.00,VWS V14.01,2013-08-28 16:49:00,
2013-08-28 12:50:00,84.0,74.7,29.89,North,350,7.1,7.1,74,0.00,,FEW021,0.00,VWS V14.01,2013-08-28 16:50:00,
2013-08-28 12:51:00,84.0,74.7,29.89,North,355,4.7,7.1,74,0.00,,CLR,0.00,VWS V14.01,2013-08-28 16:51:00,
2013-08-28 12:52:00,84.0,74.3,29.89,North,355,3.5,5.9,73,0.00,,CLR,0.00,VWS V14.01,2013-08-28 16:52:00,
2013-08-28 12:53:00,83.8,74.1,29.89,North,355,3.5,4.7,73,0.00,,CLR,0.00,VWS V14.01,2013-08-28 16:53:00,
2013-08-28 12:54:00,83.8,74.1,29.89,North,355,2.4,3.5,73,0.00,,CLR,0.00,VWS V14.01,2013-08-28 16:54:00,
2013-08-28 12:55:00,83.8,74.1,29.89,North,355,3.5,3.5,73,0.00,,FEW021,0.00,VWS V14.01,2013-08-28 16:55:00,
2013-08-28 12:56:00,83.8,74.1,29.89,North,355,3.5,4.7,73,0.00,,CLR,0.00,VWS V14.01,2013-08-28 16:56:00,
2013-08-28 12:57:00,83.8,74.1,29.89,North,355,1.2,3.5,73,0.00,,CLR,0.00,VWS V14.01,2013-08-28 16:57:00,
2013-08-28 12:58:00,83.8,74.1,29.89,North,355,1.2,2.4,73,0.00,,CLR,0.00,VWS V14.01,2013-08-28 16:58:00,
2013-08-28 12:59:00,83.8,74.1,29.89,North,355,4.7,5.9,73,0.00,,CLR,0.00,VWS V14.01,2013-08-28 16:59:00,
2013-08-28 13:00:00,83.6,74.3,29.89,North,355,7.1,7.1,74,0.00,,FEW021,0.00,VWS V14.01,2013-08-28 17:00:00,
2013-08-28 13:01:00,83.6,74.3,29.89,North,355,4.7,7.1,74,0.00,,CLR,0.00,VWS V14.01,2013-08-28 17:01:00,
2013-08-28 13:02:00,83.6,74.3,29.89,North,355,3.5,4.7,74,0.00,,CLR,0.00,VWS V14.01,2013-08-28 17:02:00,
2013-08-28 13:03:00,83.4,74.1,29.89,North,355,3.5,4.7,74,0.00,,CLR,0.00,VWS V14.01,2013-08-28 17:03:00,
2013-08-28 13:04:00,83.4,74.1,29.89,NNW,342,5.9,7.1,74,0.00,,CLR,0.00,VWS V14.01,2013-08-28 17:04:00,
2013-08-28 13:05:00,83.4,74.1,29.89,NNE,24,4.7,8.3,74,0.00,,FEW021,0.00,VWS V14.01,2013-08-28 17:05:00,
2013-08-28 13:06:00,83.4,74.1,29.89,NNE,22,2.4,5.9,74,0.00,,CLR,0.00,VWS V14.01,2013-08-28 17:06:00,
2013-08-28 13:07:00,83.4,74.1,29.89,North,355,3.5,4.7,74,0.00,,CLR,0.00,VWS V14.01,2013-08-28 17:07:00,
2013-08-28 13:08:00,83.4,74.1,29.89,North,10,5.9,5.9,74,0.00,,CLR,0.00,VWS V14.01,2013-08-28 17:08:00,
2013-08-28 13:09:00,83.4,74.1,29.89,North,360,5.9,7.1,74,0.00,,CLR,0.00,VWS V14.01,2013-08-28 17:09:00,
2013-08-28 13:10:00,83.4,74.6,29.89,North,360,3.5,5.9,75,0.00,,FEW021,0.00,VWS V14.01,2013-08-28 17:10:00,
2013-08-28 13:11:00,83.4,74.1,29.89,North,360,2.4,3.5,74,0.00,,CLR,0.00,VWS V14.01,2013-08-28 17:11:00,
2013-08-28 13:12:00,83.4,74.5,29.89,North,360,4.7,4.7,75,0.00,,CLR,0.00,VWS V14.01,2013-08-28 17:12:00,
2013-08-28 13:13:00,83.4,74.1,29.89,North,360,2.4,5.9,74,0.00,,CLR,0.00,VWS V14.01,2013-08-28 17:13:00,
2013-08-28 13:14:00,83.4,74.5,29.89,North,360,2.4,3.5,75,0.00,,CLR,0.00,VWS V14.01,2013-08-28 17:14:00,
2013-08-28 13:15:00,83.4,74.1,29.89,North,360,2.4,2.4,74,0.00,,FEW021,0.00,VWS V14.01,2013-08-28 17:15:00,
2013-08-28 13:16:00,83.4,74.1,29.89,North,360,2.4,4.7,74,0.00,,CLR,0.00,VWS V14.01,2013-08-28 17:16:00,
2013-08-28 13:17:00,83.4,74.1,29.89,North,360,2.4,5.9,74,0.00,,CLR,0.00,VWS V14.01,2013-08-28 17:17:00,
2013-08-28 13:18:00,83.4,74.1,29.89,NNW,345,5.9,5.9,74,0.00,,CLR,0.00,VWS V14.01,2013-08-28 17:18:00,
2013-08-28 13:19:00,83.4,74.1,29.89,NNW,345,4.7,5.9,74,0.00,,CLR,0.00,VWS V14.01,2013-08-28 17:19:00,
2013-08-28 13:20:00,83.4,74.1,29.89,North,360,5.9,8.3,74,0.00,,FEW021,0.00,VWS V14.01,2013-08-28 17:20:00,
2013-08-28 13:21:00,83.4,74.1,29.89,North,360,0.0,5.9,74,0.00,,CLR,0.00,VWS V14.01,2013-08-28 17:21:00,
2013-08-28 13:22:00,83.4,74.1,29.89,North,360,4.7,4.7,74,0.00,,CLR,0.00,VWS V14.01,2013-08-28 17:22:00,
2013-08-28 13:23:00,83.4,74.1,29.89,NNW,346,5.9,7.1,74,0.00,,CLR,0.00,VWS V14.01,2013-08-28 17:23:00,
2013-08-28 13:24:00,83.4,74.1,29.89,North,355,4.7,5.9,74,0.00,,CLR,0.00,VWS V14.01,2013-08-28 17:24:00,
2013-08-28 13:25:00,83.4,74.1,29.89,North,355,3.5,5.9,74,0.00,,FEW021,0.00,VWS V14.01,2013-08-28 17:25:00,
2013-08-28 13:26:00,83.4,74.1,29.89,North,355,4.7,5.9,74,0.00,,CLR,0.00,VWS V14.01,2013-08-28 17:26:00,
2013-08-28 13:27:00,83.4,74.1,29.89,North,355,2.4,4.7,74,0.00,,CLR,0.00,VWS V14.01,2013-08-28 17:27:00,
2013-08-28 13:28:00,83.6,74.3,29.89,North,355,1.2,3.5,74,0.00,,CLR,0.00,VWS V14.01,2013-08-28 17:28:00,
2013-08-28 13:29:00,83.6,74.3,29.89,North,11,7.1,7.1,74,0.00,,CLR,0.00,VWS V14.01,2013-08-28 17:29:00,
2013-08-28 13:30:00,83.6,74.3,29.89,North,350,4.7,8.3,74,0.00,,FEW021,0.00,VWS V14.01,2013-08-28 17:30:00,
2013-08-28 13:31:00,83.6,74.3,29.89,North,350,4.7,5.9,74,0.00,,CLR,0.00,VWS V14.01,2013-08-28 17:31:00,
2013-08-28 13:32:00,83.6,74.3,29.89,North,360,5.9,7.1,74,0.00,,CLR,0.00,VWS V14.01,2013-08-28 17:32:00,
2013-08-28 13:33:00,83.6,74.3,29.89,North,360,3.5,5.9,74,0.00,,CLR,0.00,VWS V14.01,2013-08-28 17:33:00,
2013-08-28 13:34:00,83.6,74.3,29.89,North,360,4.7,4.7,74,0.00,,CLR,0.00,VWS V14.01,2013-08-28 17:34:00,
2013-08-28 13:35:00,83.8,74.5,29.89,North,360,5.9,5.9,74,0.00,,FEW021,0.00,VWS V14.01,2013-08-28 17:35:00,
2013-08-28 13:36:00,83.8,74.5,29.89,North,360,3.5,5.9,74,0.00,,CLR,0.00,VWS V14.01,2013-08-28 17:36:00,
2013-08-28 13:37:00,83.8,74.1,29.89,NNW,344,7.1,8.3,73,0.00,,CLR,0.00,VWS V14.01,2013-08-28 17:37:00,
2013-08-28 13:38:00,83.8,74.5,29.89,NNW,348,4.7,7.1,74,0.00,,CLR,0.00,VWS V14.01,2013-08-28 17:38:00,
2013-08-28 13:39:00,83.8,74.1,29.89,North,5,4.7,4.7,73,0.00,,CLR,0.00,VWS V14.01,2013-08-28 17:39:00,
2013-08-28 13:40:00,83.8,74.1,29.89,North,5,4.7,5.9,73,0.00,,FEW021,0.00,VWS V14.01,2013-08-28 17:40:00,
2013-08-28 13:41:00,84.0,74.3,29.89,North,360,7.1,7.1,73,0.00,,CLR,0.00,VWS V14.01,2013-08-28 17:41:00,
2013-08-28 13:42:00,84.0,74.3,29.89,North,360,7.1,8.3,73,0.00,,CLR,0.00,VWS V14.01,2013-08-28 17:42:00,
2013-08-28 13:43:00,84.0,73.9,29.89,North,360,4.7,7.1,72,0.00,,CLR,0.00,VWS V14.01,2013-08-28 17:43:00,
2013-08-28 13:44:00,84.0,73.9,29.89,North,360,3.5,4.7,72,0.00,,CLR,0.00,VWS V14.01,2013-08-28 17:44:00,
2013-08-28 13:45:00,84.0,73.9,29.89,North,360,4.7,5.9,72,0.00,,BKN018,0.00,VWS V14.01,2013-08-28 17:45:00,
2013-08-28 13:46:00,84.0,73.9,29.89,North,355,5.9,5.9,72,0.00,,CLR,0.00,VWS V14.01,2013-08-28 17:46:00,
2013-08-28 13:47:00,84.0,73.9,29.89,North,5,4.7,5.9,72,0.00,,CLR,0.00,VWS V14.01,2013-08-28 17:47:00,
2013-08-28 13:48:00,84.0,73.9,29.89,North,5,4.7,7.1,72,0.00,,CLR,0.00,VWS V14.01,2013-08-28 17:48:00,
2013-08-28 13:49:00,84.0,73.9,29.89,North,9,4.7,5.9,72,0.00,,CLR,0.00,VWS V14.01,2013-08-28 17:49:00,
2013-08-28 13:50:00,84.0,73.9,29.89,North,350,4.7,4.7,72,0.00,,BKN018,0.00,VWS V14.01,2013-08-28 17:50:00,
2013-08-28 13:51:00,84.0,73.9,29.89,NNW,341,4.7,5.9,72,0.00,,CLR,0.00,VWS V14.01,2013-08-28 17:51:00,
2013-08-28 13:52:00,84.0,73.9,29.89,NNW,329,4.7,7.1,72,0.00,,CLR,0.00,VWS V14.01,2013-08-28 17:52:00,
2013-08-28 13:53:00,84.0,73.9,29.89,NNW,344,5.9,7.1,72,0.00,,CLR,0.00,VWS V14.01,2013-08-28 17:53:00,
2013-08-28 13:54:00,84.1,73.6,29.89,NNW,345,2.4,5.9,71,0.00,,CLR,0.00,VWS V14.01,2013-08-28 17:54:00,
2013-08-28 13:55:00,84.1,74.0,29.89,NNW,345,1.2,3.5,72,0.00,,BKN018,0.00,VWS V14.01,2013-08-28 17:55:00,
2013-08-28 13:56:00,84.1,74.0,29.89,NW,306,1.2,4.7,72,0.00,,CLR,0.00,VWS V14.01,2013-08-28 17:56:00,
2013-08-28 13:57:00,84.1,74.0,29.89,NW,306,2.4,3.5,72,0.00,,CLR,0.00,VWS V14.01,2013-08-28 17:57:00,
2013-08-28 13:58:00,84.1,74.0,29.89,North,355,4.7,4.7,72,0.00,,CLR,0.00,VWS V14.01,2013-08-28 17:58:00,
2013-08-28 13:59:00,84.3,74.2,29.89,North,9,5.9,5.9,72,0.00,,CLR,0.00,VWS V14.01,2013-08-28 17:59:00,
2013-08-28 14:00:00,84.3,74.2,29.89,North,5,3.5,5.9,72,0.00,,BKN018,0.00,VWS V14.01,2013-08-28 18:00:00,
2013-08-28 14:01:00,84.3,74.2,29.89,North,5,5.9,5.9,72,0.00,,CLR,0.00,VWS V14.01,2013-08-28 18:01:00,
2013-08-28 14:02:00,84.3,74.2,29.89,North,350,3.5,5.9,72,0.00,,CLR,0.00,VWS V14.01,2013-08-28 18:02:00,
2013-08-28 14:03:00,84.3,73.8,29.89,North,350,3.5,4.7,71,0.00,,CLR,0.00,VWS V14.01,2013-08-28 18:03:00,
2013-08-28 14:04:00,84.3,73.8,29.89,North,350,2.4,3.5,71,0.00,,CLR,0.00,VWS V14.01,2013-08-28 18:04:00,
2013-08-28 14:05:00,84.3,73.8,29.89,North,350,3.5,4.7,71,0.00,,BKN018,0.00,VWS V14.01,2013-08-28 18:05:00,
2013-08-28 14:06:00,84.3,73.8,29.89,North,350,4.7,5.9,71,0.00,,CLR,0.00,VWS V14.01,2013-08-28 18:06:00,
2013-08-28 14:07:00,84.3,73.8,29.89,North,350,2.4,4.7,71,0.00,,CLR,0.00,VWS V14.01,2013-08-28 18:07:00,
2013-08-28 14:08:00,84.3,73.8,29.89,North,350,1.2,3.5,71,0.00,,CLR,0.00,VWS V14.01,2013-08-28 18:08:00,
2013-08-28 14:09:00,84.3,73.8,29.89,NNW,346,4.7,5.9,71,0.00,,CLR,0.00,VWS V14.01,2013-08-28 18:09:00,
2013-08-28 14:10:00,84.3,73.8,29.89,NNW,343,3.5,5.9,71,0.00,,BKN018,0.00,VWS V14.01,2013-08-28 18:10:00,
2013-08-28 14:11:00,84.3,73.8,29.89,NNW,343,3.5,5.9,71,0.00,,CLR,0.00,VWS V14.01,2013-08-28 18:11:00,
2013-08-28 14:12:00,84.5,73.5,29.89,North,360,5.9,5.9,70,0.00,,CLR,0.00,VWS V14.01,2013-08-28 18:12:00,
2013-08-28 14:13:00,84.5,73.5,29.89,NNW,342,4.7,9.4,70,0.00,,CLR,0.00,VWS V14.01,2013-08-28 18:13:00,
2013-08-28 14:14:00,84.5,73.5,29.89,NNW,344,4.7,7.1,70,0.00,,CLR,0.00,VWS V14.01,2013-08-28 18:14:00,
2013-08-28 14:15:00,84.5,73.5,29.89,NNW,344,4.7,5.9,70,0.00,,BKN018,0.00,VWS V14.01,2013-08-28 18:15:00,
2013-08-28 14:16:00,84.5,73.5,29.89,North,355,7.1,7.1,70,0.00,,CLR,0.00,VWS V14.01,2013-08-28 18:16:00,
2013-08-28 14:17:00,84.5,73.5,29.89,NNE,12,5.9,7.1,70,0.00,,CLR,0.00,VWS V14.01,2013-08-28 18:17:00,
2013-08-28 14:18:00,84.5,73.5,29.89,North,360,4.7,5.9,70,0.00,,CLR,0.00,VWS V14.01,2013-08-28 18:18:00,
2013-08-28 14:19:00,84.5,73.5,29.89,North,360,4.7,4.7,70,0.00,,CLR,0.00,VWS V14.01,2013-08-28 18:19:00,
2013-08-28 14:20:00,84.5,73.9,29.89,NNW,348,7.1,7.1,71,0.00,,BKN018,0.00,VWS V14.01,2013-08-28 18:20:00,
2013-08-28 14:21:00,84.7,74.1,29.90,North,355,4.7,8.3,71,0.00,,CLR,0.00,VWS V14.01,2013-08-28 18:21:00,
2013-08-28 14:22:00,84.7,74.1,29.90,North,355,5.9,5.9,71,0.00,,CLR,0.00,VWS V14.01,2013-08-28 18:22:00,
2013-08-28 14:23:00,84.7,74.1,29.90,NNW,338,5.9,5.9,71,0.00,,CLR,0.00,VWS V14.01,2013-08-28 18:23:00,
2013-08-28 14:24:00,84.7,74.1,29.90,NNW,342,5.9,7.1,71,0.00,,CLR,0.00,VWS V14.01,2013-08-28 18:24:00,
2013-08-28 14:25:00,84.7,74.1,29.90,NNW,341,7.1,9.4,71,0.00,,BKN018,0.00,VWS V14.01,2013-08-28 18:25:00,
2013-08-28 14:26:00,84.5,73.5,29.90,North,9,4.7,7.1,70,0.00,,CLR,0.00,VWS V14.01,2013-08-28 18:26:00,
2013-08-28 14:27:00,84.5,73.5,29.90,North,355,3.5,5.9,70,0.00,,CLR,0.00,VWS V14.01,2013-08-28 18:27:00,
2013-08-28 14:28:00,84.5,73.5,29.90,North,355,2.4,4.7,70,0.00,,CLR,0.00,VWS V14.01,2013-08-28 18:28:00,
2013-08-28 14:29:00,84.5,73.5,29.90,NNW,336,3.5,5.9,70,0.00,,CLR,0.00,VWS V14.01,2013-08-28 18:29:00,
2013-08-28 14:30:00,84.5,73.5,29.90,NNW,344,2.4,4.7,70,0.00,,BKN018,0.00,VWS V14.01,2013-08-28 18:30:00,
2013-08-28 14:31:00,84.5,73.5,29.90,NNW,346,2.4,5.9,70,0.00,,CLR,0.00,VWS V14.01,2013-08-28 18:31:00,
2013-08-28 14:32:00,84.5,73.5,29.90,NNW,346,0.0,3.5,70,0.00,,CLR,0.00,VWS V14.01,2013-08-28 18:32:00,
2013-08-28 14:33:00,84.5,73.5,29.90,NNW,346,1.2,4.7,70,0.00,,CLR,0.00,VWS V14.01,2013-08-28 18:33:00,
2013-08-28 14:34:00,84.5,73.5,29.90,NNW,346,1.2,3.5,70,0.00,,CLR,0.00,VWS V14.01,2013-08-28 18:34:00,
2013-08-28 14:35:00,84.5,73.5,29.90,NNW,343,3.5,5.9,70,0.00,,BKN018,0.00,VWS V14.01,2013-08-28 18:35:00,
2013-08-28 14:36:00,84.5,73.5,29.90,NNW,343,1.2,5.9,70,0.00,,CLR,0.00,VWS V14.01,2013-08-28 18:36:00,
2013-08-28 14:37:00,84.5,73.5,29.90,NNW,345,4.7,7.1,70,0.00,,CLR,0.00,VWS V14.01,2013-08-28 18:37:00,
2013-08-28 14:38:00,84.5,73.1,29.90,NNW,346,0.0,4.7,69,0.00,,CLR,0.00,VWS V14.01,2013-08-28 18:38:00,
2013-08-28 14:39:00,84.5,73.1,29.90,North,355,4.7,7.1,69,0.00,,CLR,0.00,VWS V14.01,2013-08-28 18:39:00,
2013-08-28 14:40:00,84.5,73.1,29.90,North,355,1.2,4.7,69,0.00,,BKN018,0.00,VWS V14.01,2013-08-28 18:40:00,
2013-08-28 14:41:00,84.5,73.1,29.90,WNW,300,5.9,5.9,69,0.00,,CLR,0.00,VWS V14.01,2013-08-28 18:41:00,
2013-08-28 14:42:00,84.5,73.1,29.90,NNW,327,4.7,7.1,69,0.00,,CLR,0.00,VWS V14.01,2013-08-28 18:42:00,
2013-08-28 14:43:00,84.5,73.5,29.90,WNW,302,3.5,4.7,70,0.00,,CLR,0.00,VWS V14.01,2013-08-28 18:43:00,
2013-08-28 14:44:00,84.7,73.7,29.90,WNW,297,0.0,4.7,70,0.00,,CLR,0.00,VWS V14.01,2013-08-28 18:44:00,
2013-08-28 14:45:00,84.7,73.3,29.90,WNW,297,3.5,3.5,69,0.00,,BKN027,0.00,VWS V14.01,2013-08-28 18:45:00,
2013-08-28 14:46:00,84.7,73.3,29.90,NW,321,3.5,7.1,69,0.00,,CLR,0.00,VWS V14.01,2013-08-28 18:46:00,
2013-08-28 14:47:00,84.9,73.5,29.90,NNW,346,5.9,5.9,69,0.00,,CLR,0.00,VWS V14.01,2013-08-28 18:47:00,
2013-08-28 14:48:00,84.9,73.5,29.90,NNW,343,8.3,8.3,69,0.00,,CLR,0.00,VWS V14.01,2013-08-28 18:48:00,
2013-08-28 14:49:00,85.1,73.7,29.90,NNW,343,5.9,10.6,69,0.00,,CLR,0.00,VWS V14.01,2013-08-28 18:49:00,
2013-08-28 14:50:00,85.1,73.2,29.90,North,360,8.3,8.3,68,0.00,,BKN027,0.00,VWS V14.01,2013-08-28 18:50:00,
2013-08-28 14:51:00,85.1,73.2,29.90,North,355,5.9,8.3,68,0.00,,CLR,0.00,VWS V14.01,2013-08-28 18:51:00,
2013-08-28 14:52:00,85.3,73.4,29.90,North,355,7.1,7.1,68,0.00,,CLR,0.00,VWS V14.01,2013-08-28 18:52:00,
2013-08-28 14:53:00,85.3,73.0,29.90,North,355,4.7,7.1,67,0.00,,CLR,0.00,VWS V14.01,2013-08-28 18:53:00,
2013-08-28 14:54:00,85.3,73.0,29.90,NW,321,4.7,5.9,67,0.00,,CLR,0.00,VWS V14.01,2013-08-28 18:54:00,
2013-08-28 14:55:00,85.3,73.0,29.90,NW,322,4.7,4.7,67,0.00,,SCT025,0.00,VWS V14.01,2013-08-28 18:55:00,
2013-08-28 14:56:00,85.3,73.4,29.90,NW,322,4.7,4.7,68,0.00,,CLR,0.00,VWS V14.01,2013-08-28 18:56:00,
2013-08-28 14:57:00,85.3,73.0,29.90,NW,322,1.2,4.7,67,0.00,,CLR,0.00,VWS V14.01,2013-08-28 18:57:00,
2013-08-28 14:58:00,85.3,73.0,29.90,NW,322,2.4,3.5,67,0.00,,CLR,0.00,VWS V14.01,2013-08-28 18:58:00,
2013-08-28 14:59:00,85.3,73.0,29.90,North,355,5.9,5.9,67,0.00,,CLR,0.00,VWS V14.01,2013-08-28 18:59:00,
2013-08-28 15:00:00,85.3,73.4,29.90,North,355,4.7,7.1,68,0.00,,SCT025,0.00,VWS V14.01,2013-08-28 19:00:00,
2013-08-28 15:01:00,85.3,73.4,29.90,North,355,3.5,5.9,68,0.00,,CLR,0.00,VWS V14.01,2013-08-28 19:01:00,
2013-08-28 15:02:00,85.3,73.0,29.90,NNW,346,4.7,7.1,67,0.00,,CLR,0.00,VWS V14.01,2013-08-28 19:02:00,
2013-08-28 15:03:00,85.3,73.0,29.90,North,360,2.4,5.9,67,0.00,,CLR,0.00,VWS V14.01,2013-08-28 19:03:00,
2013-08-28 15:04:00,85.3,73.0,29.90,North,9,2.4,5.9,67,0.00,,CLR,0.00,VWS V14.01,2013-08-28 19:04:00,
2013-08-28 15:05:00,85.3,73.0,29.90,North,9,1.2,3.5,67,0.00,,SCT025,0.00,VWS V14.01,2013-08-28 19:05:00,
2013-08-28 15:06:00,85.3,73.0,29.90,North,9,2.4,3.5,67,0.00,,CLR,0.00,VWS V14.01,2013-08-28 19:06:00,
2013-08-28 15:07:00,85.3,73.4,29.90,North,9,2.4,4.7,68,0.00,,CLR,0.00,VWS V14.01,2013-08-28 19:07:00,
2013-08-28 15:08:00,85.5,73.6,29.90,North,355,5.9,7.1,68,0.00,,CLR,0.00,VWS V14.01,2013-08-28 19:08:00,
2013-08-28 15:09:00,85.5,73.6,29.90,North,355,1.2,5.9,68,0.00,,CLR,0.00,VWS V14.01,2013-08-28 19:09:00,
2013-08-28 15:10:00,85.5,73.6,29.90,North,5,3.5,4.7,68,0.00,,SCT025,0.00,VWS V14.01,2013-08-28 19:10:00,
2013-08-28 15:11:00,85.7,73.8,29.89,North,5,1.2,3.5,68,0.00,,CLR,0.00,VWS V14.01,2013-08-28 19:11:00,
2013-08-28 15:12:00,85.7,73.8,29.90,North,360,2.4,3.5,68,0.00,,CLR,0.00,VWS V14.01,2013-08-28 19:12:00,
2013-08-28 15:13:00,85.9,74.0,29.89,North,360,1.2,2.4,68,0.00,,CLR,0.00,VWS V14.01,2013-08-28 19:13:00,
2013-08-28 15:14:00,85.9,74.0,29.89,North,360,2.4,2.4,68,0.00,,CLR,0.00,VWS V14.01,2013-08-28 19:14:00,
2013-08-28 15:15:00,86.1,74.2,29.89,North,360,0.0,2.4,68,0.00,,SCT025,0.00,VWS V14.01,2013-08-28 19:15:00,
2013-08-28 15:16:00,86.1,74.2,29.89,NNW,339,2.4,4.7,68,0.00,,CLR,0.00,VWS V14.01,2013-08-28 19:16:00,
2013-08-28 15:17:00,86.3,73.9,29.89,North,355,7.1,7.1,67,0.00,,CLR,0.00,VWS V14.01,2013-08-28 19:17:00,
2013-08-28 15:18:00,86.5,74.1,29.89,North,5,5.9,7.1,67,0.00,,CLR,0.00,VWS V14.01,2013-08-28 19:18:00,
2013-08-28 15:19:00,86.5,74.1,29.89,North,5,0.0,5.9,67,0.00,,CLR,0.00,VWS V14.01,2013-08-28 19:19:00,
2013-08-28 15:20:00,86.7,73.8,29.89,North,355,3.5,4.7,66,0.00,,SCT025,0.00,VWS V14.01,2013-08-28 19:20:00,
2013-08-28 15:21:00,86.7,73.8,29.90,North,355,1.2,3.5,66,0.00,,CLR,0.00,VWS V14.01,2013-08-28 19:21:00,
2013-08-28 15:22:00,87.0,74.1,29.90,NNW,336,2.4,7.1,66,0.00,,CLR,0.00,VWS V14.01,2013-08-28 19:22:00,
2013-08-28 15:23:00,87.2,74.3,29.89,NNW,333,4.7,7.1,66,0.00,,CLR,0.00,VWS V14.01,2013-08-28 19:23:00,
2013-08-28 15:24:00,87.2,73.8,29.89,NW,322,7.1,8.3,65,0.00,,CLR,0.00,VWS V14.01,2013-08-28 19:24:00,
2013-08-28 15:25:00,87.2,73.4,29.89,NNW,341,7.1,8.3,64,0.00,,SCT025,0.00,VWS V14.01,2013-08-28 19:25:00,
2013-08-28 15:26:00,87.4,73.6,29.89,NNW,337,4.7,7.1,64,0.00,,CLR,0.00,VWS V14.01,2013-08-28 19:26:00,
2013-08-28 15:27:00,87.4,73.6,29.89,North,349,8.3,8.3,64,0.00,,CLR,0.00,VWS V14.01,2013-08-28 19:27:00,
2013-08-28 15:28:00,87.4,73.6,29.89,NNW,344,3.5,8.3,64,0.00,,CLR,0.00,VWS V14.01,2013-08-28 19:28:00,
2013-08-28 15:29:00,87.4,73.6,29.89,NNW,343,4.7,5.9,64,0.00,,CLR,0.00,VWS V14.01,2013-08-28 19:29:00,
2013-08-28 15:30:00,87.2,73.4,29.89,NNW,343,4.7,4.7,64,0.00,,SCT025,0.00,VWS V14.01,2013-08-28 19:30:00,
2013-08-28 15:31:00,87.2,73.4,29.89,NNW,343,3.5,5.9,64,0.00,,CLR,0.00,VWS V14.01,2013-08-28 19:31:00,
2013-08-28 15:32:00,87.2,73.8,29.89,North,355,3.5,7.1,65,0.00,,CLR,0.00,VWS V14.01,2013-08-28 19:32:00,
2013-08-28 15:33:00,87.2,73.8,29.89,North,355,7.1,9.4,65,0.00,,CLR,0.00,VWS V14.01,2013-08-28 19:33:00,
2013-08-28 15:34:00,87.2,73.8,29.89,NNW,343,5.9,11.8,65,0.00,,CLR,0.00,VWS V14.01,2013-08-28 19:34:00,
2013-08-28 15:35:00,87.0,73.7,29.89,NNW,343,3.5,5.9,65,0.00,,SCT025,0.00,VWS V14.01,2013-08-28 19:35:00,
2013-08-28 15:36:00,87.0,73.2,29.89,NW,323,2.4,4.7,64,0.00,,CLR,0.00,VWS V14.01,2013-08-28 19:36:00,
2013-08-28 15:37:00,87.0,73.7,29.89,NNW,348,5.9,9.4,65,0.00,,CLR,0.00,VWS V14.01,2013-08-28 19:37:00,
2013-08-28 15:38:00,87.0,73.7,29.89,North,360,5.9,8.3,65,0.00,,CLR,0.00,VWS V14.01,2013-08-28 19:38:00,
2013-08-28 15:39:00,87.0,73.7,29.89,NE,53,2.4,5.9,65,0.00,,CLR,0.00,VWS V14.01,2013-08-28 19:39:00,
2013-08-28 15:40:00,87.0,74.1,29.89,NNE,13,5.9,5.9,66,0.00,,SCT025,0.00,VWS V14.01,2013-08-28 19:40:00,
2013-08-28 15:41:00,87.0,74.6,29.89,North,5,4.7,5.9,67,0.00,,CLR,0.00,VWS V14.01,2013-08-28 19:41:00,
2013-08-28 15:42:00,87.0,74.1,29.89,North,5,5.9,5.9,66,0.00,,CLR,0.00,VWS V14.01,2013-08-28 19:42:00,
2013-08-28 15:43:00,87.0,74.1,29.89,North,360,4.7,7.1,66,0.00,,CLR,0.00,VWS V14.01,2013-08-28 19:43:00,
2013-08-28 15:44:00,87.0,74.1,29.89,North,360,7.1,7.1,66,0.00,,CLR,0.00,VWS V14.01,2013-08-28 19:44:00,
2013-08-28 15:45:00,86.7,73.8,29.90,North,360,7.1,9.4,66,0.00,,CLR,0.00,VWS V14.01,2013-08-28 19:45:00,
2013-08-28 15:46:00,86.7,73.8,29.89,North,360,7.1,10.6,66,0.00,,CLR,0.00,VWS V14.01,2013-08-28 19:46:00,
2013-08-28 15:47:00,86.7,73.4,29.90,North,351,4.7,9.4,65,0.00,,CLR,0.00,VWS V14.01,2013-08-28 19:47:00,
2013-08-28 15:48:00,86.5,73.6,29.90,North,351,1.2,4.7,66,0.00,,CLR,0.00,VWS V14.01,2013-08-28 19:48:00,
2013-08-28 15:49:00,86.5,73.6,29.90,NNW,348,5.9,5.9,66,0.00,,CLR,0.00,VWS V14.01,2013-08-28 19:49:00,
2013-08-28 15:50:00,86.5,73.6,29.89,North,355,1.2,7.1,66,0.00,,CLR,0.00,VWS V14.01,2013-08-28 19:50:00,
2013-08-28 15:51:00,86.5,73.6,29.89,North,355,1.2,2.4,66,0.00,,CLR,0.00,VWS V14.01,2013-08-28 19:51:00,
2013-08-28 15:52:00,86.3,73.9,29.90,North,355,3.5,4.7,67,0.00,,CLR,0.00,VWS V14.01,2013-08-28 19:52:00,
2013-08-28 15:53:00,86.3,73.9,29.89,North,355,2.4,3.5,67,0.00,,CLR,0.00,VWS V14.01,2013-08-28 19:53:00,
2013-08-28 15:54:00,86.3,73.9,29.89,North,355,2.4,4.7,67,0.00,,CLR,0.00,VWS V14.01,2013-08-28 19:54:00,
2013-08-28 15:55:00,86.3,73.9,29.89,North,355,0.0,3.5,67,0.00,,CLR,0.00,VWS V14.01,2013-08-28 19:55:00,
2013-08-28 15:56:00,86.5,74.1,29.89,North,355,2.4,3.5,67,0.00,,CLR,0.00,VWS V14.01,2013-08-28 19:56:00,
2013-08-28 15:57:00,86.5,74.1,29.89,North,355,2.4,4.7,67,0.00,,CLR,0.00,VWS V14.01,2013-08-28 19:57:00,
2013-08-28 15:58:00,86.5,74.1,29.89,NE,39,5.9,5.9,67,0.00,,CLR,0.00,VWS V14.01,2013-08-28 19:58:00,
2013-08-28 15:59:00,86.5,75.4,29.89,North,355,2.4,7.1,70,0.00,,CLR,0.00,VWS V14.01,2013-08-28 19:59:00,
2013-08-28 16:00:00,86.7,73.8,29.89,North,5,7.1,8.3,66,0.00,,CLR,0.00,VWS V14.01,2013-08-28 20:00:00,
2013-08-28 16:01:00,86.7,73.8,29.89,NNW,342,8.3,10.6,66,0.00,,CLR,0.00,VWS V14.01,2013-08-28 20:01:00,
2013-08-28 16:02:00,86.7,73.8,29.89,North,5,5.9,9.4,66,0.00,,CLR,0.00,VWS V14.01,2013-08-28 20:02:00,
2013-08-28 16:03:00,86.7,73.8,29.90,North,5,4.7,5.9,66,0.00,,CLR,0.00,VWS V14.01,2013-08-28 20:03:00,
2013-08-28 16:04:00,86.7,73.8,29.90,North,360,5.9,8.3,66,0.00,,CLR,0.00,VWS V14.01,2013-08-28 20:04:00,
2013-08-28 16:05:00,86.7,73.8,29.90,NNW,347,7.1,10.6,66,0.00,,CLR,0.00,VWS V14.01,2013-08-28 20:05:00,
2013-08-28 16:06:00,86.7,73.4,29.90,North,355,5.9,9.4,65,0.00,,CLR,0.00,VWS V14.01,2013-08-28 20:06:00,
2013-08-28 16:07:00,86.5,73.2,29.90,North,5,4.7,8.3,65,0.00,,CLR,0.00,VWS V14.01,2013-08-28 20:07:00,
2013-08-28 16:08:00,86.5,73.2,29.90,North,5,4.7,5.9,65,0.00,,CLR,0.00,VWS V14.01,2013-08-28 20:08:00,
2013-08-28 16:09:00,86.5,73.6,29.90,North,5,4.7,7.1,66,0.00,,CLR,0.00,VWS V14.01,2013-08-28 20:09:00,
2013-08-28 16:10:00,86.3,73.4,29.90,North,10,5.9,5.9,66,0.00,,CLR,0.00,VWS V14.01,2013-08-28 20:10:00,
2013-08-28 16:11:00,86.3,73.4,29.90,North,9,4.7,7.1,66,0.00,,CLR,0.00,VWS V14.01,2013-08-28 20:11:00,
2013-08-28 16:12:00,86.1,73.3,29.90,North,9,5.9,8.3,66,0.00,,CLR,0.00,VWS V14.01,2013-08-28 20:12:00,
2013-08-28 16:13:00,86.1,73.3,29.90,North,9,3.5,5.9,66,0.00,,CLR,0.00,VWS V14.01,2013-08-28 20:13:00,
2013-08-28 16:14:00,85.9,73.1,29.90,NNW,347,5.9,7.1,66,0.00,,CLR,0.00,VWS V14.01,2013-08-28 20:14:00,
2013-08-28 16:15:00,85.9,73.5,29.90,North,355,4.7,5.9,67,0.00,,CLR,0.00,VWS V14.01,2013-08-28 20:15:00,
2013-08-28 16:16:00,85.7,73.3,29.90,NNW,345,5.9,7.1,67,0.00,,CLR,0.00,VWS V14.01,2013-08-28 20:16:00,
2013-08-28 16:17:00,85.7,73.8,29.90,North,5,5.9,5.9,68,0.00,,CLR,0.00,VWS V14.01,2013-08-28 20:17:00,
2013-08-28 16:18:00,85.5,73.6,29.90,North,5,5.9,8.3,68,0.00,,CLR,0.00,VWS V14.01,2013-08-28 20:18:00,
2013-08-28 16:19:00,85.5,73.6,29.90,NNW,345,4.7,7.1,68,0.00,,CLR,0.00,VWS V14.01,2013-08-28 20:19:00,
2013-08-28 16:20:00,85.3,73.4,29.90,North,355,4.7,5.9,68,0.00,,CLR,0.00,VWS V14.01,2013-08-28 20:20:00,
2013-08-28 16:21:00,85.3,73.8,29.90,NNW,344,4.7,5.9,69,0.00,,CLR,0.00,VWS V14.01,2013-08-28 20:21:00,
2013-08-28 16:22:00,85.1,73.7,29.90,NNW,348,5.9,5.9,69,0.00,,CLR,0.00,VWS V14.01,2013-08-28 20:22:00,
2013-08-28 16:23:00,85.1,73.7,29.90,NNW,348,3.5,5.9,69,0.00,,CLR,0.00,VWS V14.01,2013-08-28 20:23:00,
2013-08-28 16:24:00,85.1,74.1,29.90,North,355,4.7,7.1,70,0.00,,CLR,0.00,VWS V14.01,2013-08-28 20:24:00,
2013-08-28 16:25:00,84.9,73.9,29.90,North,355,4.7,7.1,70,0.00,,CLR,0.00,VWS V14.01,2013-08-28 20:25:00,
2013-08-28 16:26:00,84.9,73.9,29.90,North,360,3.5,7.1,70,0.00,,CLR,0.00,VWS V14.01,2013-08-28 20:26:00,
2013-08-28 16:27:00,84.9,73.5,29.90,NNW,348,5.9,8.3,69,0.00,,CLR,0.00,VWS V14.01,2013-08-28 20:27:00,
2013-08-28 16:28:00,84.9,73.9,29.90,North,350,3.5,7.1,70,0.00,,CLR,0.00,VWS V14.01,2013-08-28 20:28:00,
2013-08-28 16:29:00,84.9,73.9,29.90,North,355,5.9,7.1,70,0.00,,CLR,0.00,VWS V14.01,2013-08-28 20:29:00,
2013-08-28 16:30:00,84.9,73.9,29.90,North,5,5.9,5.9,70,0.00,,CLR,0.00,VWS V14.01,2013-08-28 20:30:00,
2013-08-28 16:31:00,84.9,73.9,29.90,North,5,7.1,7.1,70,0.00,,CLR,0.00,VWS V14.01,2013-08-28 20:31:00,
2013-08-28 16:32:00,84.9,73.9,29.90,North,355,5.9,8.3,70,0.00,,CLR,0.00,VWS V14.01,2013-08-28 20:32:00,
2013-08-28 16:33:00,84.9,73.9,29.90,NNW,347,9.4,10.6,70,0.00,,CLR,0.00,VWS V14.01,2013-08-28 20:33:00,
2013-08-28 16:34:00,84.9,73.5,29.90,North,360,8.3,9.4,69,0.00,,CLR,0.00,VWS V14.01,2013-08-28 20:34:00,
2013-08-28 16:35:00,84.9,73.5,29.90,NNW,348,5.9,8.3,69,0.00,,CLR,0.00,VWS V14.01,2013-08-28 20:35:00,
2013-08-28 16:36:00,84.9,73.5,29.90,North,360,7.1,8.3,69,0.00,,CLR,0.00,VWS V14.01,2013-08-28 20:36:00,
2013-08-28 16:37:00,84.9,73.5,29.90,NNW,346,5.9,8.3,69,0.00,,CLR,0.00,VWS V14.01,2013-08-28 20:37:00,
2013-08-28 16:38:00,84.9,73.5,29.90,NNW,346,4.7,7.1,69,0.00,,CLR,0.00,VWS V14.01,2013-08-28 20:38:00,
2013-08-28 16:39:00,84.9,73.5,29.90,NNW,346,5.9,5.9,69,0.00,,CLR,0.00,VWS V14.01,2013-08-28 20:39:00,
2013-08-28 16:40:00,85.1,73.7,29.90,North,355,5.9,7.1,69,0.00,,CLR,0.00,VWS V14.01,2013-08-28 20:40:00,
2013-08-28 16:41:00,85.1,73.7,29.90,North,360,4.7,5.9,69,0.00,,CLR,0.00,VWS V14.01,2013-08-28 20:41:00,
2013-08-28 16:42:00,85.1,73.7,29.90,North,360,2.4,4.7,69,0.00,,CLR,0.00,VWS V14.01,2013-08-28 20:42:00,
2013-08-28 16:43:00,85.1,73.7,29.90,North,360,4.7,5.9,69,0.00,,CLR,0.00,VWS V14.01,2013-08-28 20:43:00,
2013-08-28 16:44:00,85.3,73.8,29.90,North,360,3.5,4.7,69,0.00,,CLR,0.00,VWS V14.01,2013-08-28 20:44:00,
2013-08-28 16:45:00,85.3,73.8,29.90,North,360,3.5,4.7,69,0.00,,BKN018,0.00,VWS V14.01,2013-08-28 20:45:00,
2013-08-28 16:46:00,85.3,73.8,29.90,North,360,4.7,7.1,69,0.00,,CLR,0.00,VWS V14.01,2013-08-28 20:46:00,
2013-08-28 16:47:00,85.3,73.4,29.90,North,360,3.5,4.7,68,0.00,,CLR,0.00,VWS V14.01,2013-08-28 20:47:00,
2013-08-28 16:48:00,85.3,73.8,29.90,North,360,3.5,3.5,69,0.00,,CLR,0.00,VWS V14.01,2013-08-28 20:48:00,
2013-08-28 16:49:00,85.5,73.6,29.90,North,360,2.4,3.5,68,0.00,,CLR,0.00,VWS V14.01,2013-08-28 20:49:00,
2013-08-28 16:50:00,85.5,73.6,29.91,North,360,4.7,4.7,68,0.00,,BKN018,0.00,VWS V14.01,2013-08-28 20:50:00,
2013-08-28 16:51:00,85.5,74.0,29.91,North,360,5.9,5.9,69,0.00,,CLR,0.00,VWS V14.01,2013-08-28 20:51:00,
2013-08-28 16:52:00,85.5,74.0,29.91,NNW,348,7.1,8.3,69,0.00,,CLR,0.00,VWS V14.01,2013-08-28 20:52:00,
2013-08-28 16:53:00,85.5,73.2,29.90,NNW,348,2.4,7.1,67,0.00,,CLR,0.00,VWS V14.01,2013-08-28 20:53:00,
2013-08-28 16:54:00,86.3,73.9,29.89,North,355,2.4,4.7,67,0.00,,CLR,0.00,VWS V14.01,2013-08-28 20:54:00,
2013-08-28 16:55:00,85.5,73.2,29.91,NNW,348,2.4,4.7,67,0.00,,BKN018,0.00,VWS V14.01,2013-08-28 20:55:00,
2013-08-28 16:56:00,85.5,73.2,29.91,NNW,348,4.7,5.9,67,0.00,,CLR,0.00,VWS V14.01,2013-08-28 20:56:00,
2013-08-28 16:57:00,85.5,73.6,29.91,NNW,348,4.7,7.1,68,0.00,,CLR,0.00,VWS V14.01,2013-08-28 20:57:00,
2013-08-28 16:58:00,85.5,73.2,29.91,North,5,5.9,7.1,67,0.00,,CLR,0.00,VWS V14.01,2013-08-28 20:58:00,
2013-08-28 16:59:00,85.3,73.0,29.91,North,5,2.4,7.1,67,0.00,,CLR,0.00,VWS V14.01,2013-08-28 20:59:00,
2013-08-28 17:00:00,85.3,73.0,29.90,North,5,3.5,5.9,67,0.00,,BKN018,0.00,VWS V14.01,2013-08-28 21:00:00,
2013-08-28 17:01:00,85.3,73.0,29.90,North,5,5.9,7.1,67,0.00,,CLR,0.00,VWS V14.01,2013-08-28 21:01:00,
2013-08-28 17:02:00,86.7,73.8,29.89,North,5,5.9,9.4,66,0.00,,CLR,0.00,VWS V14.01,2013-08-28 21:02:00,
2013-08-28 17:03:00,86.7,73.8,29.90,North,5,4.7,5.9,66,0.00,,CLR,0.00,VWS V14.01,2013-08-28 21:03:00,
2013-08-28 17:04:00,85.1,72.8,29.91,North,5,4.7,8.3,67,0.00,,CLR,0.00,VWS V14.01,2013-08-28 21:04:00,
2013-08-28 17:05:00,84.9,72.6,29.91,NNE,28,2.4,7.1,67,0.00,,BKN018,0.00,VWS V14.01,2013-08-28 21:05:00,
2013-08-28 17:06:00,84.9,72.6,29.91,North,351,7.1,7.1,67,0.00,,CLR,0.00,VWS V14.01,2013-08-28 21:06:00,
2013-08-28 17:07:00,86.5,73.2,29.90,North,5,4.7,8.3,65,0.00,,CLR,0.00,VWS V14.01,2013-08-28 21:07:00,
2013-08-28 17:08:00,84.7,72.8,29.91,North,355,4.7,5.9,68,0.00,,CLR,0.00,VWS V14.01,2013-08-28 21:08:00,
2013-08-28 17:09:00,84.5,72.6,29.91,North,355,4.7,5.9,68,0.00,,CLR,0.00,VWS V14.01,2013-08-28 21:09:00,
2013-08-28 17:10:00,84.5,72.6,29.91,North,360,5.9,5.9,68,0.00,,BKN018,0.00,VWS V14.01,2013-08-28 21:10:00,
2013-08-28 17:11:00,86.3,73.4,29.90,North,9,4.7,7.1,66,0.00,,CLR,0.00,VWS V14.01,2013-08-28 21:11:00,
2013-08-28 17:12:00,84.3,72.4,29.91,NNE,19,4.7,5.9,68,0.00,,CLR,0.00,VWS V14.01,2013-08-28 21:12:00,
2013-08-28 17:13:00,84.3,72.4,29.91,North,5,3.5,4.7,68,0.00,,CLR,0.00,VWS V14.01,2013-08-28 21:13:00,
2013-08-28 17:14:00,84.3,72.4,29.91,North,5,3.5,4.7,68,0.00,,CLR,0.00,VWS V14.01,2013-08-28 21:14:00,
2013-08-28 17:15:00,84.1,72.3,29.91,North,5,2.4,4.7,68,0.00,,BKN018,0.00,VWS V14.01,2013-08-28 21:15:00,
2013-08-28 17:16:00,84.1,72.7,29.91,North,355,4.7,5.9,69,0.00,,CLR,0.00,VWS V14.01,2013-08-28 21:16:00,
2013-08-28 17:17:00,84.1,72.7,29.91,North,350,4.7,8.3,69,0.00,,CLR,0.00,VWS V14.01,2013-08-28 21:17:00,
2013-08-28 17:18:00,84.1,72.7,29.91,North,350,4.7,7.1,69,0.00,,CLR,0.00,VWS V14.01,2013-08-28 21:18:00,
2013-08-28 17:19:00,84.3,72.9,29.91,NE,45,2.4,7.1,69,0.00,,CLR,0.00,VWS V14.01,2013-08-28 21:19:00,
2013-08-28 17:20:00,84.3,72.9,29.91,NNE,18,3.5,4.7,69,0.00,,BKN018,0.00,VWS V14.01,2013-08-28 21:20:00,
2013-08-28 17:21:00,84.3,72.9,29.91,NNE,17,4.7,8.3,69,0.00,,CLR,0.00,VWS V14.01,2013-08-28 21:21:00,
2013-08-28 17:22:00,84.3,72.4,29.91,NNE,30,3.5,8.3,68,0.00,,CLR,0.00,VWS V14.01,2013-08-28 21:22:00,
2013-08-28 17:23:00,84.3,72.4,29.91,NNE,26,3.5,5.9,68,0.00,,CLR,0.00,VWS V14.01,2013-08-28 21:23:00,
2013-08-28 17:24:00,84.3,72.4,29.91,NNE,26,3.5,4.7,68,0.00,,CLR,0.00,VWS V14.01,2013-08-28 21:24:00,
2013-08-28 17:25:00,84.3,72.4,29.91,NNE,26,0.0,5.9,68,0.00,,BKN018,0.00,VWS V14.01,2013-08-28 21:25:00,
2013-08-28 17:26:00,84.1,72.3,29.91,NNE,26,2.4,3.5,68,0.00,,CLR,0.00,VWS V14.01,2013-08-28 21:26:00,
2013-08-28 17:27:00,84.9,73.5,29.90,NNW,348,5.9,8.3,69,0.00,,CLR,0.00,VWS V14.01,2013-08-28 21:27:00,
2013-08-28 17:28:00,84.9,73.9,29.90,North,350,3.5,7.1,70,0.00,,CLR,0.00,VWS V14.01,2013-08-28 21:28:00,
2013-08-28 17:29:00,84.9,73.9,29.90,North,355,5.9,7.1,70,0.00,,CLR,0.00,VWS V14.01,2013-08-28 21:29:00,
2013-08-28 17:30:00,84.1,72.3,29.91,NNE,13,4.7,4.7,68,0.00,,BKN018,0.00,VWS V14.01,2013-08-28 21:30:00,
2013-08-28 17:31:00,84.1,72.7,29.91,North,5,4.7,7.1,69,0.00,,CLR,0.00,VWS V14.01,2013-08-28 21:31:00,
2013-08-28 17:32:00,84.0,72.6,29.91,North,9,4.7,5.9,69,0.00,,CLR,0.00,VWS V14.01,2013-08-28 21:32:00,
2013-08-28 17:33:00,84.0,72.6,29.91,North,5,3.5,7.1,69,0.00,,CLR,0.00,VWS V14.01,2013-08-28 21:33:00,
2013-08-28 17:34:00,84.0,72.6,29.91,North,5,4.7,5.9,69,0.00,,CLR,0.00,VWS V14.01,2013-08-28 21:34:00,
2013-08-28 17:35:00,84.0,72.6,29.91,NNW,344,5.9,5.9,69,0.00,,BKN018,0.00,VWS V14.01,2013-08-28 21:35:00,
2013-08-28 17:36:00,84.9,73.5,29.90,North,360,7.1,8.3,69,0.00,,CLR,0.00,VWS V14.01,2013-08-28 21:36:00,
2013-08-28 17:37:00,84.0,72.6,29.91,NNE,13,2.4,7.1,69,0.00,,CLR,0.00,VWS V14.01,2013-08-28 21:37:00,
2013-08-28 17:38:00,84.0,72.2,29.91,North,360,3.5,7.1,68,0.00,,CLR,0.00,VWS V14.01,2013-08-28 21:38:00,
2013-08-28 17:39:00,84.0,72.2,29.91,NNW,342,4.7,5.9,68,0.00,,CLR,0.00,VWS V14.01,2013-08-28 21:39:00,
2013-08-28 17:40:00,84.0,71.7,29.91,North,360,5.9,7.1,67,0.00,,BKN018,0.00,VWS V14.01,2013-08-28 21:40:00,
2013-08-28 17:41:00,84.0,71.7,29.91,NE,47,3.5,7.1,67,0.00,,CLR,0.00,VWS V14.01,2013-08-28 21:41:00,
2013-08-28 17:42:00,85.1,73.7,29.90,North,360,2.4,4.7,69,0.00,,CLR,0.00,VWS V14.01,2013-08-28 21:42:00,
2013-08-28 17:43:00,84.0,71.7,29.91,North,5,4.7,5.9,67,0.00,,CLR,0.00,VWS V14.01,2013-08-28 21:43:00,
2013-08-28 17:44:00,84.1,71.8,29.91,North,5,4.7,5.9,67,0.00,,CLR,0.00,VWS V14.01,2013-08-28 21:44:00,
2013-08-28 17:45:00,84.1,71.8,29.91,North,5,3.5,4.7,67,0.00,,BKN018,0.00,VWS V14.01,2013-08-28 21:45:00,
2013-08-28 17:46:00,84.1,71.8,29.91,North,5,5.9,5.9,67,0.00,,CLR,0.00,VWS V14.01,2013-08-28 21:46:00,
2013-08-28 17:47:00,84.1,71.8,29.91,North,5,1.2,5.9,67,0.00,,CLR,0.00,VWS V14.01,2013-08-28 21:47:00,
2013-08-28 17:48:00,84.3,72.0,29.90,North,5,2.4,4.7,67,0.00,,CLR,0.00,VWS V14.01,2013-08-28 21:48:00,
2013-08-28 17:49:00,84.3,72.0,29.90,North,5,2.4,4.7,67,0.00,,CLR,0.00,VWS V14.01,2013-08-28 21:49:00,
2013-08-28 17:50:00,84.3,72.0,29.90,NNE,15,4.7,4.7,67,0.00,,BKN018,0.00,VWS V14.01,2013-08-28 21:50:00,
2013-08-28 17:51:00,84.5,72.2,29.90,NNE,15,5.9,5.9,67,0.00,,CLR,0.00,VWS V14.01,2013-08-28 21:51:00,
2013-08-28 17:52:00,84.5,72.2,29.90,NNW,347,5.9,8.3,67,0.00,,CLR,0.00,VWS V14.01,2013-08-28 21:52:00,
2013-08-28 17:53:00,84.7,72.4,29.90,North,355,5.9,7.1,67,0.00,,CLR,0.00,VWS V14.01,2013-08-28 21:53:00,
2013-08-28 17:54:00,84.7,71.9,29.91,North,355,5.9,5.9,66,0.00,,CLR,0.00,VWS V14.01,2013-08-28 21:54:00,
2013-08-28 17:55:00,84.9,72.1,29.90,North,355,4.7,5.9,66,0.00,,BKN018,0.00,VWS V14.01,2013-08-28 21:55:00,
2013-08-28 17:56:00,84.9,72.1,29.91,North,355,3.5,5.9,66,0.00,,CLR,0.00,VWS V14.01,2013-08-28 21:56:00,
2013-08-28 17:57:00,84.9,72.1,29.91,North,355,3.5,3.5,66,0.00,,CLR,0.00,VWS V14.01,2013-08-28 21:57:00,
2013-08-28 17:58:00,85.1,72.3,29.90,North,355,4.7,7.1,66,0.00,,CLR,0.00,VWS V14.01,2013-08-28 21:58:00,
2013-08-28 17:59:00,85.1,72.3,29.91,North,360,5.9,9.4,66,0.00,,CLR,0.00,VWS V14.01,2013-08-28 21:59:00,
2013-08-28 18:00:00,85.1,72.3,29.91,NE,51,5.9,5.9,66,0.00,,BKN018,0.00,VWS V14.01,2013-08-28 22:00:00,
2013-08-28 18:01:00,85.3,72.5,29.91,NE,41,5.9,5.9,66,0.00,,CLR,0.00,VWS V14.01,2013-08-28 22:01:00,
2013-08-28 18:02:00,85.3,72.0,29.91,NNE,29,4.7,5.9,65,0.00,,CLR,0.00,VWS V14.01,2013-08-28 22:02:00,
2013-08-28 18:03:00,85.3,71.6,29.91,NE,38,5.9,5.9,64,0.00,,CLR,0.00,VWS V14.01,2013-08-28 22:03:00,
2013-08-28 18:04:00,85.3,71.6,29.91,NE,38,3.5,5.9,64,0.00,,CLR,0.00,VWS V14.01,2013-08-28 22:04:00,
2013-08-28 18:05:00,85.3,71.1,29.91,NE,38,1.2,3.5,63,0.00,,BKN018,0.00,VWS V14.01,2013-08-28 22:05:00,
2013-08-28 18:06:00,85.3,71.6,29.91,NE,38,3.5,3.5,64,0.00,,CLR,0.00,VWS V14.01,2013-08-28 22:06:00,
2013-08-28 18:07:00,85.3,71.1,29.91,NE,38,2.4,4.7,63,0.00,,CLR,0.00,VWS V14.01,2013-08-28 22:07:00,
2013-08-28 18:08:00,85.3,71.1,29.91,NE,38,2.4,3.5,63,0.00,,CLR,0.00,VWS V14.01,2013-08-28 22:08:00,
2013-08-28 18:09:00,85.3,71.6,29.91,NE,38,3.5,3.5,64,0.00,,CLR,0.00,VWS V14.01,2013-08-28 22:09:00,
2013-08-28 18:10:00,85.5,71.8,29.91,NNE,19,4.7,5.9,64,0.00,,BKN018,0.00,VWS V14.01,2013-08-28 22:10:00,
2013-08-28 18:11:00,85.5,71.8,29.91,North,5,5.9,7.1,64,0.00,,CLR,0.00,VWS V14.01,2013-08-28 22:11:00,
2013-08-28 18:12:00,85.5,71.8,29.91,North,5,7.1,8.3,64,0.00,,CLR,0.00,VWS V14.01,2013-08-28 22:12:00,
2013-08-28 18:13:00,85.5,71.8,29.91,North,5,4.7,7.1,64,0.00,,CLR,0.00,VWS V14.01,2013-08-28 22:13:00,
2013-08-28 18:14:00,85.5,71.8,29.91,North,5,3.5,5.9,64,0.00,,CLR,0.00,VWS V14.01,2013-08-28 22:14:00,
2013-08-28 18:15:00,85.5,72.2,29.92,North,5,3.5,3.5,65,0.00,,BKN018,0.00,VWS V14.01,2013-08-28 22:15:00,
2013-08-28 18:16:00,85.5,72.2,29.92,North,5,0.0,3.5,65,0.00,,CLR,0.00,VWS V14.01,2013-08-28 22:16:00,
2013-08-28 18:17:00,85.3,71.6,29.91,North,5,2.4,5.9,64,0.00,,CLR,0.00,VWS V14.01,2013-08-28 22:17:00,
2013-08-28 18:18:00,85.3,71.6,29.92,North,5,3.5,4.7,64,0.00,,CLR,0.00,VWS V14.01,2013-08-28 22:18:00,
2013-08-28 18:19:00,85.3,71.6,29.92,North,5,4.7,4.7,64,0.00,,CLR,0.00,VWS V14.01,2013-08-28 22:19:00,
2013-08-28 18:20:00,85.1,71.4,29.92,North,5,2.4,4.7,64,0.00,,BKN018,0.00,VWS V14.01,2013-08-28 22:20:00,
2013-08-28 18:21:00,85.1,71.4,29.92,North,5,4.7,4.7,64,0.00,,CLR,0.00,VWS V14.01,2013-08-28 22:21:00,
2013-08-28 18:22:00,84.9,71.2,29.92,North,9,5.9,5.9,64,0.00,,CLR,0.00,VWS V14.01,2013-08-28 22:22:00,
2013-08-28 18:23:00,84.9,71.2,29.92,North,9,5.9,8.3,64,0.00,,CLR,0.00,VWS V14.01,2013-08-28 22:23:00,
2013-08-28 18:24:00,84.7,71.5,29.91,North,9,2.4,5.9,65,0.00,,CLR,0.00,VWS V14.01,2013-08-28 22:24:00,
2013-08-28 18:25:00,84.5,71.3,29.92,North,9,3.5,4.7,65,0.00,,BKN018,0.00,VWS V14.01,2013-08-28 22:25:00,
2013-08-28 18:26:00,84.5,71.8,29.92,North,9,1.2,3.5,66,0.00,,CLR,0.00,VWS V14.01,2013-08-28 22:26:00,
2013-08-28 18:27:00,84.3,71.6,29.92,North,9,1.2,2.4,66,0.00,,CLR,0.00,VWS V14.01,2013-08-28 22:27:00,
2013-08-28 18:28:00,84.1,71.4,29.92,North,9,1.2,3.5,66,0.00,,CLR,0.00,VWS V14.01,2013-08-28 22:28:00,
2013-08-28 18:29:00,84.1,71.4,29.92,North,9,1.2,2.4,66,0.00,,CLR,0.00,VWS V14.01,2013-08-28 22:29:00,
2013-08-28 18:30:00,84.0,71.7,29.92,North,9,2.4,4.7,67,0.00,,BKN018,0.00,VWS V14.01,2013-08-28 22:30:00,
2013-08-28 18:31:00,84.0,71.7,29.92,North,9,3.5,3.5,67,0.00,,CLR,0.00,VWS V14.01,2013-08-28 22:31:00,
2013-08-28 18:32:00,83.8,72.0,29.92,NNE,32,2.4,3.5,68,0.00,,CLR,0.00,VWS V14.01,2013-08-28 22:32:00,
2013-08-28 18:33:00,83.8,72.0,29.92,NNE,32,3.5,3.5,68,0.00,,CLR,0.00,VWS V14.01,2013-08-28 22:33:00,
2013-08-28 18:34:00,83.6,71.8,29.92,NE,34,2.4,5.9,68,0.00,,CLR,0.00,VWS V14.01,2013-08-28 22:34:00,
2013-08-28 18:35:00,83.6,72.2,29.92,NE,34,4.7,4.7,69,0.00,,BKN018,0.00,VWS V14.01,2013-08-28 22:35:00,
2013-08-28 18:36:00,83.6,72.2,29.92,NE,34,1.2,4.7,69,0.00,,CLR,0.00,VWS V14.01,2013-08-28 22:36:00,
2013-08-28 18:37:00,83.4,72.0,29.92,NE,34,3.5,3.5,69,0.00,,CLR,0.00,VWS V14.01,2013-08-28 22:37:00,
2013-08-28 18:38:00,83.4,72.5,29.92,NE,44,3.5,7.1,70,0.00,,CLR,0.00,VWS V14.01,2013-08-28 22:38:00,
2013-08-28 18:39:00,83.4,72.0,29.92,NE,44,0.0,3.5,69,0.00,,CLR,0.00,VWS V14.01,2013-08-28 22:39:00,
2013-08-28 18:40:00,83.4,72.0,29.92,NE,40,1.2,3.5,69,0.00,,BKN018,0.00,VWS V14.01,2013-08-28 22:40:00,
2013-08-28 18:41:00,83.2,71.8,29.92,NE,42,3.5,4.7,69,0.00,,CLR,0.00,VWS V14.01,2013-08-28 22:41:00,
2013-08-28 18:42:00,83.2,71.8,29.92,NE,41,1.2,3.5,69,0.00,,CLR,0.00,VWS V14.01,2013-08-28 22:42:00,
2013-08-28 18:43:00,83.2,71.8,29.92,NNE,21,1.2,2.4,69,0.00,,CLR,0.00,VWS V14.01,2013-08-28 22:43:00,
2013-08-28 18:44:00,83.2,71.8,29.92,NNE,21,0.0,1.2,69,0.00,,CLR,0.00,VWS V14.01,2013-08-28 22:44:00,
2013-08-28 18:45:00,83.2,71.8,29.92,NNE,21,2.4,3.5,69,0.00,,BKN040,0.00,VWS V14.01,2013-08-28 22:45:00,
2013-08-28 18:46:00,83.2,71.8,29.92,NNE,21,3.5,3.5,69,0.00,,CLR,0.00,VWS V14.01,2013-08-28 22:46:00,
2013-08-28 18:47:00,83.2,71.8,29.92,North,9,5.9,5.9,69,0.00,,CLR,0.00,VWS V14.01,2013-08-28 22:47:00,
2013-08-28 18:48:00,83.2,72.3,29.92,North,0,5.9,7.1,70,0.00,,CLR,0.00,VWS V14.01,2013-08-28 22:48:00,
2013-08-28 18:49:00,83.2,71.8,29.92,North,0,5.9,7.1,69,0.00,,CLR,0.00,VWS V14.01,2013-08-28 22:49:00,
2013-08-28 18:50:00,83.2,71.8,29.92,North,0,5.9,7.1,69,0.00,,BKN040,0.00,VWS V14.01,2013-08-28 22:50:00,
2013-08-28 18:51:00,83.2,72.3,29.92,North,5,4.7,4.7,70,0.00,,CLR,0.00,VWS V14.01,2013-08-28 22:51:00,
2013-08-28 18:52:00,83.2,72.3,29.92,North,5,2.4,4.7,70,0.00,,CLR,0.00,VWS V14.01,2013-08-28 22:52:00,
2013-08-28 18:53:00,83.2,72.3,29.92,North,5,3.5,3.5,70,0.00,,CLR,0.00,VWS V14.01,2013-08-28 22:53:00,
2013-08-28 18:54:00,83.2,72.3,29.92,North,5,0.0,3.5,70,0.00,,CLR,0.00,VWS V14.01,2013-08-28 22:54:00,
2013-08-28 18:55:00,83.0,72.1,29.92,North,5,1.2,2.4,70,0.00,,BKN040,0.00,VWS V14.01,2013-08-28 22:55:00,
2013-08-28 18:56:00,83.0,72.1,29.92,North,5,3.5,3.5,70,0.00,,CLR,0.00,VWS V14.01,2013-08-28 22:56:00,
2013-08-28 18:57:00,83.0,72.1,29.92,North,5,1.2,3.5,70,0.00,,CLR,0.00,VWS V14.01,2013-08-28 22:57:00,
2013-08-28 18:58:00,83.0,72.1,29.92,NNE,28,0.0,3.5,70,0.00,,CLR,0.00,VWS V14.01,2013-08-28 22:58:00,
2013-08-28 18:59:00,83.0,72.1,29.92,NNE,28,1.2,1.2,70,0.00,,CLR,0.00,VWS V14.01,2013-08-28 22:59:00,
2013-08-28 19:00:00,82.8,71.9,29.92,NNE,28,1.2,1.2,70,0.00,,BKN040,0.00,VWS V14.01,2013-08-28 23:00:00,
2013-08-28 19:01:00,82.8,71.9,29.92,NNE,28,0.0,1.2,70,0.00,,CLR,0.00,VWS V14.01,2013-08-28 23:01:00,
2013-08-28 19:02:00,82.8,71.9,29.92,East,92,0.0,2.4,70,0.00,,CLR,0.00,VWS V14.01,2013-08-28 23:02:00,
2013-08-28 19:03:00,82.6,71.7,29.92,East,91,1.2,2.4,70,0.00,,CLR,0.00,VWS V14.01,2013-08-28 23:03:00,
2013-08-28 19:04:00,82.6,71.7,29.92,NE,49,3.5,5.9,70,0.00,,CLR,0.00,VWS V14.01,2013-08-28 23:04:00,
2013-08-28 19:05:00,82.6,71.7,29.92,North,350,4.7,5.9,70,0.00,,BKN040,0.00,VWS V14.01,2013-08-28 23:05:00,
2013-08-28 19:06:00,82.6,71.7,29.92,North,360,5.9,5.9,70,0.00,,CLR,0.00,VWS V14.01,2013-08-28 23:06:00,
2013-08-28 19:07:00,82.4,71.5,29.92,NNE,20,2.4,5.9,70,0.00,,CLR,0.00,VWS V14.01,2013-08-28 23:07:00,
2013-08-28 19:08:00,82.4,71.5,29.92,ENE,59,2.4,3.5,70,0.00,,CLR,0.00,VWS V14.01,2013-08-28 23:08:00,
2013-08-28 19:09:00,82.2,71.3,29.92,ENE,59,2.4,3.5,70,0.00,,CLR,0.00,VWS V14.01,2013-08-28 23:09:00,
2013-08-28 19:10:00,82.2,71.3,29.92,ENE,59,0.0,1.2,70,0.00,,BKN040,0.00,VWS V14.01,2013-08-28 23:10:00,
2013-08-28 19:11:00,82.2,71.3,29.92,ENE,59,0.0,1.2,70,0.00,,CLR,0.00,VWS V14.01,2013-08-28 23:11:00,
2013-08-28 19:12:00,82.0,71.1,29.92,ENE,59,2.4,3.5,70,0.00,,CLR,0.00,VWS V14.01,2013-08-28 23:12:00,
2013-08-28 19:13:00,82.0,71.6,29.92,ENE,58,0.0,3.5,71,0.00,,CLR,0.00,VWS V14.01,2013-08-28 23:13:00,
2013-08-28 19:14:00,82.0,71.1,29.92,ENE,58,0.0,1.2,70,0.00,,CLR,0.00,VWS V14.01,2013-08-28 23:14:00,
2013-08-28 19:15:00,81.8,70.9,29.92,NNE,19,0.0,3.5,70,0.00,,BKN040,0.00,VWS V14.01,2013-08-28 23:15:00,
2013-08-28 19:16:00,81.8,70.9,29.92,NNE,19,1.2,3.5,70,0.00,,CLR,0.00,VWS V14.01,2013-08-28 23:16:00,
2013-08-28 19:17:00,81.6,71.2,29.92,NNE,19,0.0,1.2,71,0.00,,CLR,0.00,VWS V14.01,2013-08-28 23:17:00,
2013-08-28 19:18:00,81.6,71.2,29.92,NNE,19,0.0,0.0,71,0.00,,CLR,0.00,VWS V14.01,2013-08-28 23:18:00,
2013-08-28 19:19:00,81.4,71.0,29.92,NNE,19,2.4,2.4,71,0.00,,CLR,0.00,VWS V14.01,2013-08-28 23:19:00,
2013-08-28 19:20:00,81.4,71.0,29.93,NNE,19,2.4,2.4,71,0.00,,BKN040,0.00,VWS V14.01,2013-08-28 23:20:00,
2013-08-28 19:21:00,81.4,71.0,29.93,NNE,19,2.4,2.4,71,0.00,,CLR,0.00,VWS V14.01,2013-08-28 23:21:00,
2013-08-28 19:22:00,81.2,70.8,29.93,ENE,63,1.2,4.7,71,0.00,,CLR,0.00,VWS V14.01,2013-08-28 23:22:00,
2013-08-28 19:23:00,84.9,71.2,29.92,North,9,5.9,8.3,64,0.00,,CLR,0.00,VWS V14.01,2013-08-28 23:23:00,
2013-08-28 19:24:00,84.7,71.5,29.91,North,9,2.4,5.9,65,0.00,,CLR,0.00,VWS V14.01,2013-08-28 23:24:00,
2013-08-28 19:25:00,81.1,70.7,29.93,NNE,28,0.0,2.4,71,0.00,,BKN040,0.00,VWS V14.01,2013-08-28 23:25:00,
2013-08-28 19:26:00,81.1,70.7,29.93,NNE,28,0.0,2.4,71,0.00,,CLR,0.00,VWS V14.01,2013-08-28 23:26:00,
2013-08-28 19:27:00,80.9,70.5,29.93,NNE,28,1.2,1.2,71,0.00,,CLR,0.00,VWS V14.01,2013-08-28 23:27:00,
2013-08-28 19:28:00,80.9,70.5,29.93,NNE,30,0.0,1.2,71,0.00,,CLR,0.00,VWS V14.01,2013-08-28 23:28:00,
2013-08-28 19:29:00,80.9,70.5,29.93,NNE,29,3.5,3.5,71,0.00,,CLR,0.00,VWS V14.01,2013-08-28 23:29:00,
2013-08-28 19:30:00,80.7,70.7,29.93,East,101,5.9,5.9,72,0.00,,BKN040,0.00,VWS V14.01,2013-08-28 23:30:00,
2013-08-28 19:31:00,80.7,70.7,29.93,ENE,59,4.7,7.1,72,0.00,,CLR,0.00,VWS V14.01,2013-08-28 23:31:00,
2013-08-28 19:32:00,80.7,70.7,29.93,ENE,61,1.2,4.7,72,0.00,,CLR,0.00,VWS V14.01,2013-08-28 23:32:00,
2013-08-28 19:33:00,80.5,70.5,29.93,NNE,26,1.2,5.9,72,0.00,,CLR,0.00,VWS V14.01,2013-08-28 23:33:00,
2013-08-28 19:34:00,80.5,70.5,29.93,NNE,26,1.2,2.4,72,0.00,,CLR,0.00,VWS V14.01,2013-08-28 23:34:00,
2013-08-28 19:35:00,80.3,70.3,29.93,NNE,26,1.2,2.4,72,0.00,,BKN040,0.00,VWS V14.01,2013-08-28 23:35:00,
2013-08-28 19:36:00,80.3,70.3,29.93,NNE,26,0.0,2.4,72,0.00,,CLR,0.00,VWS V14.01,2013-08-28 23:36:00,
2013-08-28 19:37:00,80.3,70.3,29.93,NNE,26,0.0,3.5,72,0.00,,CLR,0.00,VWS V14.01,2013-08-28 23:37:00,
2013-08-28 19:38:00,80.1,70.2,29.93,NNE,26,0.0,2.4,72,0.00,,CLR,0.00,VWS V14.01,2013-08-28 23:38:00,
2013-08-28 19:39:00,80.1,70.2,29.93,NNE,26,1.2,1.2,72,0.00,,CLR,0.00,VWS V14.01,2013-08-28 23:39:00,
2013-08-28 19:40:00,79.9,70.0,29.93,NNE,26,3.5,3.5,72,0.00,,BKN024,0.00,VWS V14.01,2013-08-28 23:40:00,
2013-08-28 19:41:00,79.9,70.0,29.93,NE,34,2.4,3.5,72,0.00,,CLR,0.00,VWS V14.01,2013-08-28 23:41:00,
2013-08-28 19:42:00,79.9,70.4,29.93,NE,36,2.4,3.5,73,0.00,,CLR,0.00,VWS V14.01,2013-08-28 23:42:00,
2013-08-28 19:43:00,79.8,70.3,29.93,NE,36,0.0,2.4,73,0.00,,CLR,0.00,VWS V14.01,2013-08-28 23:43:00,
2013-08-28 19:44:00,79.8,70.3,29.93,NE,36,2.4,3.5,73,0.00,,CLR,0.00,VWS V14.01,2013-08-28 23:44:00,
2013-08-28 19:45:00,79.6,70.1,29.93,NE,36,1.2,1.2,73,0.00,,BKN024,0.00,VWS V14.01,2013-08-28 23:45:00,
2013-08-28 19:46:00,79.6,70.1,29.93,NE,36,0.0,1.2,73,0.00,,CLR,0.00,VWS V14.01,2013-08-28 23:46:00,
2013-08-28 19:47:00,79.6,70.1,29.93,NE,36,0.0,2.4,73,0.00,,CLR,0.00,VWS V14.01,2013-08-28 23:47:00,
2013-08-28 19:48:00,79.4,69.9,29.93,NE,36,0.0,0.0,73,0.00,,CLR,0.00,VWS V14.01,2013-08-28 23:48:00,
2013-08-28 19:49:00,79.4,69.9,29.93,NE,36,0.0,1.2,73,0.00,,CLR,0.00,VWS V14.01,2013-08-28 23:49:00,
2013-08-28 19:50:00,79.4,69.9,29.93,NE,36,0.0,0.0,73,0.00,,BKN024,0.00,VWS V14.01,2013-08-28 23:50:00,
2013-08-28 19:51:00,79.2,69.7,29.93,NE,36,0.0,0.0,73,0.00,,CLR,0.00,VWS V14.01,2013-08-28 23:51:00,
2013-08-28 19:52:00,79.2,70.1,29.93,NE,36,0.0,0.0,74,0.00,,CLR,0.00,VWS V14.01,2013-08-28 23:52:00,
2013-08-28 19:53:00,79.2,70.1,29.93,NE,36,0.0,0.0,74,0.00,,CLR,0.00,VWS V14.01,2013-08-28 23:53:00,
2013-08-28 19:54:00,79.2,70.1,29.93,NE,36,0.0,0.0,74,0.00,,CLR,0.00,VWS V14.01,2013-08-28 23:54:00,
2013-08-28 19:55:00,79.0,69.9,29.93,NE,36,0.0,1.2,74,0.00,,BKN024,0.00,VWS V14.01,2013-08-28 23:55:00,
2013-08-28 19:56:00,79.0,69.9,29.94,NE,36,0.0,1.2,74,0.00,,CLR,0.00,VWS V14.01,2013-08-28 23:56:00,
2013-08-28 19:57:00,79.0,69.9,29.94,NE,36,0.0,1.2,74,0.00,,CLR,0.00,VWS V14.01,2013-08-28 23:57:00,
2013-08-28 19:58:00,79.0,69.9,29.94,NE,36,0.0,0.0,74,0.00,,CLR,0.00,VWS V14.01,2013-08-28 23:58:00,
2013-08-28 19:59:00,78.8,69.7,29.94,NE,36,0.0,0.0,74,0.00,,CLR,0.00,VWS V14.01,2013-08-28 23:59:00,
2013-08-28 20:00:00,78.8,69.7,29.94,NE,36,0.0,0.0,74,0.00,,BKN024,0.00,VWS V14.01,2013-08-29 00:00:00,
2013-08-28 20:01:00,78.8,69.7,29.94,NE,36,0.0,0.0,74,0.00,,CLR,0.00,VWS V14.01,2013-08-29 00:01:00,
2013-08-28 20:02:00,78.6,69.9,29.94,NE,36,0.0,0.0,75,0.00,,CLR,0.00,VWS V14.01,2013-08-29 00:02:00,
2013-08-28 20:03:00,78.6,69.9,29.94,NE,36,0.0,0.0,75,0.00,,CLR,0.00,VWS V14.01,2013-08-29 00:03:00,
2013-08-28 20:04:00,78.6,69.9,29.94,NE,36,0.0,0.0,75,0.00,,CLR,0.00,VWS V14.01,2013-08-29 00:04:00,
2013-08-28 20:05:00,78.5,69.8,29.94,NE,36,0.0,1.2,75,0.00,,BKN024,0.00,VWS V14.01,2013-08-29 00:05:00,
2013-08-28 20:06:00,78.5,69.8,29.94,NE,36,0.0,1.2,75,0.00,,CLR,0.00,VWS V14.01,2013-08-29 00:06:00,
2013-08-28 20:07:00,78.5,69.8,29.94,NE,36,1.2,1.2,75,0.00,,CLR,0.00,VWS V14.01,2013-08-29 00:07:00,
2013-08-28 20:08:00,78.5,69.8,29.94,NE,36,0.0,2.4,75,0.00,,CLR,0.00,VWS V14.01,2013-08-29 00:08:00,
2013-08-28 20:09:00,78.3,70.0,29.94,NE,36,2.4,3.5,76,0.00,,CLR,0.00,VWS V14.01,2013-08-29 00:09:00,
2013-08-28 20:10:00,78.3,70.0,29.94,NE,34,1.2,2.4,76,0.00,,SCT026,0.00,VWS V14.01,2013-08-29 00:10:00,
2013-08-28 20:11:00,78.3,70.0,29.94,NE,34,2.4,2.4,76,0.00,,CLR,0.00,VWS V14.01,2013-08-29 00:11:00,
2013-08-28 20:12:00,78.1,69.8,29.94,NE,34,1.2,2.4,76,0.00,,CLR,0.00,VWS V14.01,2013-08-29 00:12:00,
2013-08-28 20:13:00,78.1,69.8,29.94,NNE,30,0.0,2.4,76,0.00,,CLR,0.00,VWS V14.01,2013-08-29 00:13:00,
2013-08-28 20:14:00,78.1,69.8,29.94,NNE,30,0.0,0.0,76,0.00,,CLR,0.00,VWS V14.01,2013-08-29 00:14:00,
2013-08-28 20:15:00,77.9,70.0,29.94,NNE,30,0.0,0.0,77,0.00,,SCT026,0.00,VWS V14.01,2013-08-29 00:15:00,
2013-08-28 20:16:00,77.9,70.0,29.94,NNE,30,0.0,0.0,77,0.00,,CLR,0.00,VWS V14.01,2013-08-29 00:16:00,
2013-08-28 20:17:00,77.7,69.8,29.94,NNE,30,0.0,1.2,77,0.00,,CLR,0.00,VWS V14.01,2013-08-29 00:17:00,
2013-08-28 20:18:00,77.7,69.8,29.94,NNE,30,2.4,2.4,77,0.00,,CLR,0.00,VWS V14.01,2013-08-29 00:18:00,
2013-08-28 20:19:00,77.7,69.8,29.94,NNE,30,0.0,2.4,77,0.00,,CLR,0.00,VWS V14.01,2013-08-29 00:19:00,
2013-08-28 20:20:00,77.6,69.7,29.94,NNE,30,0.0,0.0,77,0.00,,OVC026,0.00,VWS V14.01,2013-08-29 00:20:00,
2013-08-28 20:21:00,77.6,69.7,29.94,NNE,30,0.0,0.0,77,0.00,,CLR,0.00,VWS V14.01,2013-08-29 00:21:00,
2013-08-28 20:22:00,77.4,69.5,29.94,NNE,30,0.0,1.2,77,0.00,,CLR,0.00,VWS V14.01,2013-08-29 00:22:00,
2013-08-28 20:23:00,77.4,69.5,29.94,NNE,30,0.0,0.0,77,0.00,,CLR,0.00,VWS V14.01,2013-08-29 00:23:00,
2013-08-28 20:24:00,77.2,69.3,29.94,NNE,30,0.0,0.0,77,0.00,,CLR,0.00,VWS V14.01,2013-08-29 00:24:00,
2013-08-28 20:25:00,77.2,69.3,29.94,NNE,30,0.0,0.0,77,0.00,,OVC026,0.00,VWS V14.01,2013-08-29 00:25:00,
2013-08-28 20:26:00,77.2,69.3,29.94,NNE,30,0.0,0.0,77,0.00,,CLR,0.00,VWS V14.01,2013-08-29 00:26:00,
2013-08-28 20:27:00,77.0,69.2,29.94,NNE,30,0.0,0.0,77,0.00,,CLR,0.00,VWS V14.01,2013-08-29 00:27:00,
2013-08-28 20:28:00,77.0,69.2,29.94,NNE,30,0.0,0.0,77,0.00,,CLR,0.00,VWS V14.01,2013-08-29 00:28:00,
2013-08-28 20:29:00,77.0,69.2,29.94,NNE,30,0.0,0.0,77,0.00,,CLR,0.00,VWS V14.01,2013-08-29 00:29:00,
2013-08-28 20:30:00,76.8,69.0,29.94,NNE,30,0.0,0.0,77,0.00,,OVC026,0.00,VWS V14.01,2013-08-29 00:30:00,
2013-08-28 20:31:00,76.8,69.0,29.94,NNE,30,0.0,0.0,77,0.00,,CLR,0.00,VWS V14.01,2013-08-29 00:31:00,
2013-08-28 20:32:00,76.8,69.0,29.94,NNE,30,0.0,0.0,77,0.00,,CLR,0.00,VWS V14.01,2013-08-29 00:32:00,
2013-08-28 20:33:00,76.7,68.9,29.94,NNE,30,0.0,0.0,77,0.00,,CLR,0.00,VWS V14.01,2013-08-29 00:33:00,
2013-08-28 20:34:00,76.7,68.9,29.94,NNE,30,0.0,0.0,77,0.00,,CLR,0.00,VWS V14.01,2013-08-29 00:34:00,
2013-08-28 20:35:00,76.7,69.2,29.94,NNE,30,0.0,0.0,78,0.00,,OVC026,0.00,VWS V14.01,2013-08-29 00:35:00,
2013-08-28 20:36:00,76.7,69.2,29.94,NNE,30,0.0,0.0,78,0.00,,CLR,0.00,VWS V14.01,2013-08-29 00:36:00,
2013-08-28 20:37:00,76.5,69.1,29.94,NNE,30,0.0,0.0,78,0.00,,CLR,0.00,VWS V14.01,2013-08-29 00:37:00,
2013-08-28 20:38:00,76.5,69.1,29.94,NNE,30,0.0,0.0,78,0.00,,CLR,0.00,VWS V14.01,2013-08-29 00:38:00,
2013-08-28 20:39:00,76.5,69.1,29.94,NNE,30,0.0,0.0,78,0.00,,CLR,0.00,VWS V14.01,2013-08-29 00:39:00,
2013-08-28 20:40:00,76.3,68.9,29.94,NNE,30,0.0,0.0,78,0.00,,OVC026,0.00,VWS V14.01,2013-08-29 00:40:00,
2013-08-28 20:41:00,76.3,68.9,29.94,NNE,30,0.0,0.0,78,0.00,,CLR,0.00,VWS V14.01,2013-08-29 00:41:00,
2013-08-28 20:42:00,76.3,68.9,29.94,NNE,30,0.0,0.0,78,0.00,,CLR,0.00,VWS V14.01,2013-08-29 00:42:00,
2013-08-28 20:43:00,76.1,68.7,29.94,NNE,30,0.0,0.0,78,0.00,,CLR,0.00,VWS V14.01,2013-08-29 00:43:00,
2013-08-28 20:44:00,76.1,68.7,29.94,NNE,30,0.0,0.0,78,0.00,,CLR,0.00,VWS V14.01,2013-08-29 00:44:00,
2013-08-28 20:45:00,76.1,68.7,29.94,NNE,30,0.0,0.0,78,0.00,,OVC026,0.00,VWS V14.01,2013-08-29 00:45:00,
2013-08-28 20:46:00,76.0,68.6,29.94,NNE,30,0.0,0.0,78,0.00,,CLR,0.00,VWS V14.01,2013-08-29 00:46:00,
2013-08-28 20:47:00,76.0,68.9,29.95,NNE,30,0.0,0.0,79,0.00,,CLR,0.00,VWS V14.01,2013-08-29 00:47:00,
2013-08-28 20:48:00,76.0,68.9,29.94,NNE,30,0.0,0.0,79,0.00,,CLR,0.00,VWS V14.01,2013-08-29 00:48:00,
2013-08-28 20:49:00,75.8,68.8,29.94,NNE,30,0.0,0.0,79,0.00,,CLR,0.00,VWS V14.01,2013-08-29 00:49:00,
2013-08-28 20:50:00,75.8,68.8,29.94,NNE,30,0.0,0.0,79,0.00,,OVC026,0.00,VWS V14.01,2013-08-29 00:50:00,
2013-08-28 20:51:00,75.8,68.8,29.94,NNE,30,0.0,0.0,79,0.00,,CLR,0.00,VWS V14.01,2013-08-29 00:51:00,
2013-08-28 20:52:00,75.6,68.6,29.94,NNE,30,0.0,0.0,79,0.00,,CLR,0.00,VWS V14.01,2013-08-29 00:52:00,
2013-08-28 20:53:00,75.6,68.6,29.94,NNE,30,0.0,0.0,79,0.00,,CLR,0.00,VWS V14.01,2013-08-29 00:53:00,
2013-08-28 20:54:00,75.6,68.6,29.94,NNE,30,0.0,0.0,79,0.00,,CLR,0.00,VWS V14.01,2013-08-29 00:54:00,
2013-08-28 20:55:00,75.4,68.4,29.95,NNE,30,0.0,0.0,79,0.00,,OVC026,0.00,VWS V14.01,2013-08-29 00:55:00,
2013-08-28 20:56:00,75.4,68.4,29.95,NNE,30,0.0,0.0,79,0.00,,CLR,0.00,VWS V14.01,2013-08-29 00:56:00,
2013-08-28 20:57:00,75.4,68.4,29.95,NNE,30,0.0,0.0,79,0.00,,CLR,0.00,VWS V14.01,2013-08-29 00:57:00,
2013-08-28 20:58:00,75.3,68.3,29.95,NNE,30,0.0,0.0,79,0.00,,CLR,0.00,VWS V14.01,2013-08-29 00:58:00,
2013-08-28 20:59:00,75.3,68.6,29.95,NNE,30,0.0,0.0,80,0.00,,CLR,0.00,VWS V14.01,2013-08-29 00:59:00,
2013-08-28 21:00:00,75.1,68.4,29.95,NNE,30,0.0,0.0,80,0.00,,OVC026,0.00,VWS V14.01,2013-08-29 01:00:00,
2013-08-28 21:01:00,75.1,68.4,29.95,NNE,30,0.0,0.0,80,0.00,,CLR,0.00,VWS V14.01,2013-08-29 01:01:00,
2013-08-28 21:02:00,75.1,68.4,29.95,NNE,30,0.0,0.0,80,0.00,,CLR,0.00,VWS V14.01,2013-08-29 01:02:00,
2013-08-28 21:03:00,74.9,68.2,29.95,NNE,30,0.0,0.0,80,0.00,,CLR,0.00,VWS V14.01,2013-08-29 01:03:00,
2013-08-28 21:04:00,74.9,68.2,29.95,NNE,30,0.0,0.0,80,0.00,,CLR,0.00,VWS V14.01,2013-08-29 01:04:00,
2013-08-28 21:05:00,74.9,68.2,29.95,NNE,30,0.0,0.0,80,0.00,,OVC026,0.00,VWS V14.01,2013-08-29 01:05:00,
2013-08-28 21:06:00,74.7,68.1,29.95,NNE,30,0.0,0.0,80,0.00,,CLR,0.00,VWS V14.01,2013-08-29 01:06:00,
2013-08-28 21:07:00,74.7,68.1,29.95,NNE,30,0.0,0.0,80,0.00,,CLR,0.00,VWS V14.01,2013-08-29 01:07:00,
2013-08-28 21:08:00,74.7,68.1,29.95,NNE,30,0.0,0.0,80,0.00,,CLR,0.00,VWS V14.01,2013-08-29 01:08:00,
2013-08-28 21:09:00,74.6,67.9,29.95,NNE,30,0.0,0.0,80,0.00,,CLR,0.00,VWS V14.01,2013-08-29 01:09:00,
2013-08-28 21:10:00,74.6,67.9,29.95,NNE,30,0.0,0.0,80,0.00,,OVC026,0.00,VWS V14.01,2013-08-29 01:10:00,
2013-08-28 21:11:00,74.6,68.3,29.95,NNE,30,0.0,0.0,81,0.00,,CLR,0.00,VWS V14.01,2013-08-29 01:11:00,
2013-08-28 21:12:00,74.4,68.1,29.96,NNE,30,0.0,0.0,81,0.00,,CLR,0.00,VWS V14.01,2013-08-29 01:12:00,
2013-08-28 21:13:00,74.4,68.1,29.95,NNE,30,0.0,0.0,81,0.00,,CLR,0.00,VWS V14.01,2013-08-29 01:13:00,
2013-08-28 21:14:00,74.4,68.1,29.95,NNE,30,0.0,0.0,81,0.00,,CLR,0.00,VWS V14.01,2013-08-29 01:14:00,
2013-08-28 21:15:00,74.2,67.9,29.96,NNE,30,0.0,0.0,81,0.00,,OVC026,0.00,VWS V14.01,2013-08-29 01:15:00,
2013-08-28 21:16:00,74.2,67.9,29.96,NNE,30,0.0,0.0,81,0.00,,CLR,0.00,VWS V14.01,2013-08-29 01:16:00,
2013-08-28 21:17:00,74.2,67.9,29.96,NNE,30,0.0,0.0,81,0.00,,CLR,0.00,VWS V14.01,2013-08-29 01:17:00,
2013-08-28 21:18:00,74.0,67.7,29.96,NNE,30,0.0,0.0,81,0.00,,CLR,0.00,VWS V14.01,2013-08-29 01:18:00,
2013-08-28 21:19:00,74.0,67.7,29.96,NNE,30,0.0,0.0,81,0.00,,CLR,0.00,VWS V14.01,2013-08-29 01:19:00,
2013-08-28 21:20:00,73.9,67.6,29.96,NNE,30,0.0,0.0,81,0.00,,OVC026,0.00,VWS V14.01,2013-08-29 01:20:00,
2013-08-28 21:21:00,73.9,67.6,29.96,NNE,30,0.0,0.0,81,0.00,,CLR,0.00,VWS V14.01,2013-08-29 01:21:00,
2013-08-28 21:22:00,73.9,68.0,29.96,NNE,30,0.0,0.0,82,0.00,,CLR,0.00,VWS V14.01,2013-08-29 01:22:00,
2013-08-28 21:23:00,73.9,68.0,29.96,NNE,30,0.0,0.0,82,0.00,,CLR,0.00,VWS V14.01,2013-08-29 01:23:00,
2013-08-28 21:24:00,73.7,67.8,29.96,NNE,30,0.0,0.0,82,0.00,,CLR,0.00,VWS V14.01,2013-08-29 01:24:00,
2013-08-28 21:25:00,73.7,67.8,29.96,NNE,30,0.0,1.2,82,0.00,,OVC026,0.00,VWS V14.01,2013-08-29 01:25:00,
2013-08-28 21:26:00,73.7,67.8,29.96,NNE,30,0.0,1.2,82,0.00,,CLR,0.00,VWS V14.01,2013-08-29 01:26:00,
2013-08-28 21:27:00,73.7,68.2,29.96,NNE,30,0.0,1.2,83,0.00,,CLR,0.00,VWS V14.01,2013-08-29 01:27:00,
2013-08-28 21:28:00,73.5,68.0,29.96,NNE,30,0.0,0.0,83,0.00,,CLR,0.00,VWS V14.01,2013-08-29 01:28:00,
2013-08-28 21:29:00,73.5,68.0,29.97,NNE,30,0.0,0.0,83,0.00,,CLR,0.00,VWS V14.01,2013-08-29 01:29:00,
2013-08-28 21:30:00,73.5,68.0,29.97,NNE,30,0.0,0.0,83,0.00,,OVC026,0.00,VWS V14.01,2013-08-29 01:30:00,
2013-08-28 21:31:00,73.5,68.0,29.97,NNE,30,0.0,0.0,83,0.00,,CLR,0.00,VWS V14.01,2013-08-29 01:31:00,
2013-08-28 21:32:00,73.3,67.8,29.97,NNE,30,0.0,0.0,83,0.00,,CLR,0.00,VWS V14.01,2013-08-29 01:32:00,
2013-08-28 21:33:00,73.3,68.1,29.97,NNE,30,0.0,0.0,84,0.00,,CLR,0.00,VWS V14.01,2013-08-29 01:33:00,
2013-08-28 21:34:00,73.3,68.1,29.97,NNE,30,0.0,0.0,84,0.00,,CLR,0.00,VWS V14.01,2013-08-29 01:34:00,
2013-08-28 21:35:00,73.2,68.0,29.97,NNE,30,0.0,0.0,84,0.00,,OVC026,0.00,VWS V14.01,2013-08-29 01:35:00,
2013-08-28 21:36:00,73.2,68.0,29.97,NNE,30,0.0,0.0,84,0.00,,CLR,0.00,VWS V14.01,2013-08-29 01:36:00,
2013-08-28 21:37:00,73.2,68.0,29.97,NNE,30,0.0,0.0,84,0.00,,CLR,0.00,VWS V14.01,2013-08-29 01:37:00,
2013-08-28 21:38:00,73.0,67.8,29.97,NNE,30,0.0,0.0,84,0.00,,CLR,0.00,VWS V14.01,2013-08-29 01:38:00,
2013-08-28 21:39:00,73.0,67.8,29.97,NNE,30,0.0,0.0,84,0.00,,CLR,0.00,VWS V14.01,2013-08-29 01:39:00,
2013-08-28 21:40:00,72.8,67.6,29.97,NNE,30,0.0,0.0,84,0.00,,FEW024,0.00,VWS V14.01,2013-08-29 01:40:00,
2013-08-28 21:41:00,72.8,67.6,29.97,NNE,30,0.0,0.0,84,0.00,,CLR,0.00,VWS V14.01,2013-08-29 01:41:00,
2013-08-28 21:42:00,72.8,67.6,29.97,NNE,30,0.0,0.0,84,0.00,,CLR,0.00,VWS V14.01,2013-08-29 01:42:00,
2013-08-28 21:43:00,72.8,67.6,29.97,NNE,30,0.0,0.0,84,0.00,,CLR,0.00,VWS V14.01,2013-08-29 01:43:00,
2013-08-28 21:44:00,72.7,67.5,29.97,NNE,30,0.0,0.0,84,0.00,,CLR,0.00,VWS V14.01,2013-08-29 01:44:00,
2013-08-28 21:45:00,72.7,67.5,29.97,NNE,30,0.0,0.0,84,0.00,,FEW024,0.00,VWS V14.01,2013-08-29 01:45:00,
2013-08-28 21:46:00,72.7,67.5,29.97,NNE,30,0.0,0.0,84,0.00,,CLR,0.00,VWS V14.01,2013-08-29 01:46:00,
2013-08-28 21:47:00,72.7,67.5,29.97,NNE,30,0.0,0.0,84,0.00,,CLR,0.00,VWS V14.01,2013-08-29 01:47:00,
2013-08-28 21:48:00,72.5,67.3,29.97,NNE,30,0.0,0.0,84,0.00,,CLR,0.00,VWS V14.01,2013-08-29 01:48:00,
2013-08-28 21:49:00,72.5,67.7,29.97,NNE,30,0.0,0.0,85,0.00,,CLR,0.00,VWS V14.01,2013-08-29 01:49:00,
2013-08-28 21:50:00,72.5,67.7,29.97,NNE,30,0.0,0.0,85,0.00,,FEW024,0.00,VWS V14.01,2013-08-29 01:50:00,
2013-08-28 21:51:00,72.5,67.7,29.97,NNE,30,0.0,0.0,85,0.00,,CLR,0.00,VWS V14.01,2013-08-29 01:51:00,
2013-08-28 21:52:00,72.3,67.5,29.97,NNE,30,0.0,0.0,85,0.00,,CLR,0.00,VWS V14.01,2013-08-29 01:52:00,
2013-08-28 21:53:00,72.3,67.5,29.97,NNE,30,0.0,0.0,85,0.00,,CLR,0.00,VWS V14.01,2013-08-29 01:53:00,
2013-08-28 21:54:00,72.3,67.5,29.97,NNE,30,0.0,0.0,85,0.00,,CLR,0.00,VWS V14.01,2013-08-29 01:54:00,
2013-08-28 21:55:00,72.1,67.3,29.97,NNE,30,0.0,0.0,85,0.00,,FEW024,0.00,VWS V14.01,2013-08-29 01:55:00,
2013-08-28 21:56:00,72.1,67.3,29.97,NNE,30,0.0,0.0,85,0.00,,CLR,0.00,VWS V14.01,2013-08-29 01:56:00,
2013-08-28 21:57:00,72.1,67.3,29.97,NNE,30,0.0,0.0,85,0.00,,CLR,0.00,VWS V14.01,2013-08-29 01:57:00,
2013-08-28 21:58:00,72.1,67.3,29.97,NNE,30,0.0,0.0,85,0.00,,CLR,0.00,VWS V14.01,2013-08-29 01:58:00,
2013-08-28 21:59:00,72.0,67.2,29.97,NNE,30,0.0,0.0,85,0.00,,CLR,0.00,VWS V14.01,2013-08-29 01:59:00,
2013-08-28 22:00:00,72.0,67.2,29.97,NNE,30,0.0,0.0,85,0.00,,FEW024,0.00,VWS V14.01,2013-08-29 02:00:00,
2013-08-28 22:01:00,72.0,67.2,29.97,NNE,30,0.0,0.0,85,0.00,,CLR,0.00,VWS V14.01,2013-08-29 02:01:00,
2013-08-28 22:02:00,72.0,67.2,29.97,NNE,30,0.0,0.0,85,0.00,,CLR,0.00,VWS V14.01,2013-08-29 02:02:00,
2013-08-28 22:03:00,71.8,67.0,29.97,NNE,30,0.0,0.0,85,0.00,,CLR,0.00,VWS V14.01,2013-08-29 02:03:00,
2013-08-28 22:04:00,71.8,67.3,29.97,NNE,30,0.0,0.0,86,0.00,,CLR,0.00,VWS V14.01,2013-08-29 02:04:00,
2013-08-28 22:05:00,71.8,67.3,29.97,NNE,30,0.0,0.0,86,0.00,,FEW024,0.00,VWS V14.01,2013-08-29 02:05:00,
2013-08-28 22:06:00,71.8,67.3,29.97,NNE,30,0.0,0.0,86,0.00,,CLR,0.00,VWS V14.01,2013-08-29 02:06:00,
2013-08-28 22:07:00,71.6,67.1,29.97,NNE,30,0.0,0.0,86,0.00,,CLR,0.00,VWS V14.01,2013-08-29 02:07:00,
2013-08-28 22:08:00,71.6,67.1,29.97,NNE,30,0.0,0.0,86,0.00,,CLR,0.00,VWS V14.01,2013-08-29 02:08:00,
2013-08-28 22:09:00,71.6,67.1,29.97,NNE,30,0.0,0.0,86,0.00,,CLR,0.00,VWS V14.01,2013-08-29 02:09:00,
2013-08-28 22:10:00,71.5,67.1,29.97,NNE,30,0.0,0.0,86,0.00,,FEW024,0.00,VWS V14.01,2013-08-29 02:10:00,
2013-08-28 22:11:00,71.5,67.1,29.97,NNE,30,0.0,0.0,86,0.00,,CLR,0.00,VWS V14.01,2013-08-29 02:11:00,
2013-08-28 22:12:00,71.5,67.1,29.97,NNE,30,0.0,0.0,86,0.00,,CLR,0.00,VWS V14.01,2013-08-29 02:12:00,
2013-08-28 22:13:00,71.5,67.1,29.97,NNE,30,0.0,0.0,86,0.00,,CLR,0.00,VWS V14.01,2013-08-29 02:13:00,
2013-08-28 22:14:00,71.3,66.8,29.97,NNE,30,0.0,0.0,86,0.00,,CLR,0.00,VWS V14.01,2013-08-29 02:14:00,
2013-08-28 22:15:00,71.3,66.8,29.97,NNE,30,0.0,0.0,86,0.00,,FEW024,0.00,VWS V14.01,2013-08-29 02:15:00,
2013-08-28 22:16:00,71.3,66.8,29.97,NNE,30,0.0,0.0,86,0.00,,CLR,0.00,VWS V14.01,2013-08-29 02:16:00,
2013-08-28 22:17:00,71.3,66.8,29.97,NNE,30,0.0,0.0,86,0.00,,CLR,0.00,VWS V14.01,2013-08-29 02:17:00,
2013-08-28 22:18:00,71.3,66.8,29.98,NNE,30,0.0,0.0,86,0.00,,CLR,0.00,VWS V14.01,2013-08-29 02:18:00,
2013-08-28 22:19:00,71.1,66.7,29.98,NNE,30,0.0,0.0,86,0.00,,CLR,0.00,VWS V14.01,2013-08-29 02:19:00,
2013-08-28 22:20:00,71.1,66.7,29.98,NNE,30,0.0,0.0,86,0.00,,FEW024,0.00,VWS V14.01,2013-08-29 02:20:00,
2013-08-28 22:21:00,71.1,66.7,29.98,NNE,30,0.0,0.0,86,0.00,,CLR,0.00,VWS V14.01,2013-08-29 02:21:00,
2013-08-28 22:22:00,71.1,66.7,29.98,NNE,30,0.0,0.0,86,0.00,,CLR,0.00,VWS V14.01,2013-08-29 02:22:00,
2013-08-28 22:23:00,70.9,66.5,29.98,NNE,30,0.0,0.0,86,0.00,,CLR,0.00,VWS V14.01,2013-08-29 02:23:00,
2013-08-28 22:24:00,70.9,66.5,29.98,NNE,30,0.0,0.0,86,0.00,,CLR,0.00,VWS V14.01,2013-08-29 02:24:00,
2013-08-28 22:25:00,70.9,66.5,29.98,NNE,30,0.0,0.0,86,0.00,,FEW024,0.00,VWS V14.01,2013-08-29 02:25:00,
2013-08-28 22:26:00,70.9,66.5,29.98,NNE,30,0.0,0.0,86,0.00,,CLR,0.00,VWS V14.01,2013-08-29 02:26:00,
2013-08-28 22:27:00,70.8,66.4,29.98,NNE,30,0.0,0.0,86,0.00,,CLR,0.00,VWS V14.01,2013-08-29 02:27:00,
2013-08-28 22:28:00,70.8,66.4,29.98,NNE,30,0.0,0.0,86,0.00,,CLR,0.00,VWS V14.01,2013-08-29 02:28:00,
2013-08-28 22:29:00,70.8,66.7,29.98,NNE,30,0.0,0.0,87,0.00,,CLR,0.00,VWS V14.01,2013-08-29 02:29:00,
2013-08-28 22:30:00,70.8,66.7,29.98,NNE,30,0.0,0.0,87,0.00,,FEW024,0.00,VWS V14.01,2013-08-29 02:30:00,
2013-08-28 22:31:00,70.8,66.7,29.98,NNE,30,0.0,0.0,87,0.00,,CLR,0.00,VWS V14.01,2013-08-29 02:31:00,
2013-08-28 22:32:00,70.8,66.7,29.98,NNE,30,0.0,0.0,87,0.00,,CLR,0.00,VWS V14.01,2013-08-29 02:32:00,
2013-08-28 22:33:00,70.6,66.5,29.98,NNE,30,0.0,0.0,87,0.00,,CLR,0.00,VWS V14.01,2013-08-29 02:33:00,
2013-08-28 22:34:00,70.6,66.5,29.98,NNE,30,0.0,0.0,87,0.00,,CLR,0.00,VWS V14.01,2013-08-29 02:34:00,
2013-08-28 22:35:00,70.6,66.5,29.98,NNE,30,0.0,0.0,87,0.00,,FEW024,0.00,VWS V14.01,2013-08-29 02:35:00,
2013-08-28 22:36:00,70.6,66.5,29.98,NNE,30,0.0,0.0,87,0.00,,CLR,0.00,VWS V14.01,2013-08-29 02:36:00,
2013-08-28 22:37:00,70.6,66.5,29.98,NNE,30,0.0,0.0,87,0.00,,CLR,0.00,VWS V14.01,2013-08-29 02:37:00,
2013-08-28 22:38:00,70.6,66.5,29.98,NNE,30,0.0,1.2,87,0.00,,CLR,0.00,VWS V14.01,2013-08-29 02:38:00,
2013-08-28 22:39:00,70.6,66.5,29.98,NNE,30,0.0,0.0,87,0.00,,CLR,0.00,VWS V14.01,2013-08-29 02:39:00,
2013-08-28 22:40:00,70.4,66.3,29.98,NNE,30,0.0,0.0,87,0.00,,CLR,0.00,VWS V14.01,2013-08-29 02:40:00,
2013-08-28 22:41:00,70.4,66.3,29.98,NNE,30,0.0,0.0,87,0.00,,CLR,0.00,VWS V14.01,2013-08-29 02:41:00,
2013-08-28 22:42:00,70.4,66.3,29.98,NNE,30,0.0,0.0,87,0.00,,CLR,0.00,VWS V14.01,2013-08-29 02:42:00,
2013-08-28 22:43:00,70.4,66.3,29.98,NNE,30,0.0,0.0,87,0.00,,CLR,0.00,VWS V14.01,2013-08-29 02:43:00,
2013-08-28 22:44:00,70.4,66.3,29.98,NNE,30,0.0,0.0,87,0.00,,CLR,0.00,VWS V14.01,2013-08-29 02:44:00,
2013-08-28 22:45:00,70.4,66.3,29.98,NNE,30,0.0,0.0,87,0.00,,CLR,0.00,VWS V14.01,2013-08-29 02:45:00,
2013-08-28 22:46:00,70.4,66.3,29.98,NNE,30,0.0,0.0,87,0.00,,CLR,0.00,VWS V14.01,2013-08-29 02:46:00,
2013-08-28 22:47:00,70.4,66.3,29.98,NNE,30,0.0,0.0,87,0.00,,CLR,0.00,VWS V14.01,2013-08-29 02:47:00,
2013-08-28 22:48:00,70.3,66.2,29.98,NNE,30,0.0,0.0,87,0.00,,CLR,0.00,VWS V14.01,2013-08-29 02:48:00,
2013-08-28 22:49:00,70.3,66.2,29.98,NNE,30,0.0,0.0,87,0.00,,CLR,0.00,VWS V14.01,2013-08-29 02:49:00,
2013-08-28 22:50:00,70.3,66.2,29.98,NNE,30,0.0,0.0,87,0.00,,CLR,0.00,VWS V14.01,2013-08-29 02:50:00,
2013-08-28 22:51:00,70.3,66.2,29.98,NNE,30,0.0,0.0,87,0.00,,CLR,0.00,VWS V14.01,2013-08-29 02:51:00,
2013-08-28 22:52:00,70.3,66.2,29.98,NNE,30,0.0,0.0,87,0.00,,CLR,0.00,VWS V14.01,2013-08-29 02:52:00,
2013-08-28 22:53:00,70.3,66.5,29.99,NNE,30,0.0,0.0,88,0.00,,CLR,0.00,VWS V14.01,2013-08-29 02:53:00,
2013-08-28 22:54:00,70.3,66.5,29.99,NNE,30,0.0,0.0,88,0.00,,CLR,0.00,VWS V14.01,2013-08-29 02:54:00,
2013-08-28 22:55:00,70.1,66.3,29.99,NNE,30,0.0,0.0,88,0.00,,CLR,0.00,VWS V14.01,2013-08-29 02:55:00,
2013-08-28 22:56:00,70.1,66.3,29.99,NNE,30,0.0,0.0,88,0.00,,CLR,0.00,VWS V14.01,2013-08-29 02:56:00,
2013-08-28 22:57:00,70.1,66.3,29.99,NNE,30,0.0,1.2,88,0.00,,CLR,0.00,VWS V14.01,2013-08-29 02:57:00,
2013-08-28 22:58:00,70.1,66.3,29.99,NNE,30,0.0,0.0,88,0.00,,CLR,0.00,VWS V14.01,2013-08-29 02:58:00,
2013-08-28 22:59:00,70.1,66.3,29.99,NNE,30,0.0,0.0,88,0.00,,CLR,0.00,VWS V14.01,2013-08-29 02:59:00,
2013-08-28 23:00:00,70.1,66.3,29.99,NNE,30,0.0,0.0,88,0.00,,CLR,0.00,VWS V14.01,2013-08-29 03:00:00,
2013-08-28 23:01:00,70.1,66.3,29.99,NNE,30,0.0,0.0,88,0.00,,CLR,0.00,VWS V14.01,2013-08-29 03:01:00,
2013-08-28 23:02:00,70.1,66.3,29.99,NNE,30,0.0,0.0,88,0.00,,CLR,0.00,VWS V14.01,2013-08-29 03:02:00,
2013-08-28 23:03:00,70.1,66.7,29.99,NNE,30,0.0,0.0,89,0.00,,CLR,0.00,VWS V14.01,2013-08-29 03:03:00,
2013-08-28 23:04:00,70.1,66.7,29.99,NNE,30,0.0,0.0,89,0.00,,CLR,0.00,VWS V14.01,2013-08-29 03:04:00,
2013-08-28 23:05:00,70.1,66.7,29.99,NNE,30,1.2,1.2,89,0.00,,CLR,0.00,VWS V14.01,2013-08-29 03:05:00,
2013-08-28 23:06:00,70.1,66.7,29.99,NNE,30,0.0,1.2,89,0.00,,CLR,0.00,VWS V14.01,2013-08-29 03:06:00,
2013-08-28 23:07:00,70.1,66.7,30.00,NNE,30,0.0,1.2,89,0.00,,CLR,0.00,VWS V14.01,2013-08-29 03:07:00,
2013-08-28 23:08:00,70.1,66.7,29.99,NNE,30,0.0,0.0,89,0.00,,CLR,0.00,VWS V14.01,2013-08-29 03:08:00,
2013-08-28 23:09:00,70.3,66.9,30.00,NNE,30,1.2,1.2,89,0.00,,CLR,0.00,VWS V14.01,2013-08-29 03:09:00,
2013-08-28 23:10:00,70.3,67.2,29.99,NNE,30,0.0,0.0,90,0.00,,CLR,0.00,VWS V14.01,2013-08-29 03:10:00,
2013-08-28 23:11:00,70.3,67.2,30.00,NNE,30,0.0,0.0,90,0.00,,CLR,0.00,VWS V14.01,2013-08-29 03:11:00,
2013-08-28 23:12:00,70.3,67.2,29.99,NNE,30,0.0,0.0,90,0.00,,CLR,0.00,VWS V14.01,2013-08-29 03:12:00,
2013-08-28 23:13:00,70.3,67.2,29.99,NNE,30,0.0,0.0,90,0.00,,CLR,0.00,VWS V14.01,2013-08-29 03:13:00,
2013-08-28 23:14:00,70.3,67.2,30.00,NNE,30,0.0,0.0,90,0.00,,CLR,0.00,VWS V14.01,2013-08-29 03:14:00,
2013-08-28 23:15:00,70.3,67.2,29.99,NNE,30,0.0,0.0,90,0.00,,CLR,0.00,VWS V14.01,2013-08-29 03:15:00,
2013-08-28 23:16:00,70.3,67.2,29.99,NNE,30,0.0,0.0,90,0.00,,CLR,0.00,VWS V14.01,2013-08-29 03:16:00,
2013-08-28 23:17:00,70.3,67.2,29.99,NNE,30,0.0,0.0,90,0.00,,CLR,0.00,VWS V14.01,2013-08-29 03:17:00,
2013-08-28 23:18:00,70.3,67.2,29.99,NNE,30,0.0,0.0,90,0.00,,CLR,0.00,VWS V14.01,2013-08-29 03:18:00,
2013-08-28 23:19:00,70.4,67.3,29.99,NNE,30,0.0,0.0,90,0.00,,CLR,0.00,VWS V14.01,2013-08-29 03:19:00,
2013-08-28 23:20:00,70.4,67.3,29.99,NNE,30,0.0,0.0,90,0.00,,CLR,0.00,VWS V14.01,2013-08-29 03:20:00,
2013-08-28 23:21:00,70.4,67.3,29.99,NNE,30,0.0,0.0,90,0.00,,CLR,0.00,VWS V14.01,2013-08-29 03:21:00,
2013-08-28 23:22:00,70.4,67.3,29.99,NNE,30,0.0,0.0,90,0.00,,CLR,0.00,VWS V14.01,2013-08-29 03:22:00,
2013-08-28 23:23:00,70.4,67.3,29.99,NNE,30,0.0,0.0,90,0.00,,CLR,0.00,VWS V14.01,2013-08-29 03:23:00,
2013-08-28 23:24:00,70.4,67.3,29.99,NNE,30,0.0,0.0,90,0.00,,CLR,0.00,VWS V14.01,2013-08-29 03:24:00,
2013-08-28 23:25:00,70.4,67.3,29.99,NNE,30,0.0,0.0,90,0.00,,CLR,0.00,VWS V14.01,2013-08-29 03:25:00,
2013-08-28 23:26:00,70.4,67.3,30.00,NNE,30,0.0,0.0,90,0.00,,CLR,0.00,VWS V14.01,2013-08-29 03:26:00,
2013-08-28 23:27:00,70.3,67.2,30.00,NNE,30,0.0,0.0,90,0.00,,CLR,0.00,VWS V14.01,2013-08-29 03:27:00,
2013-08-28 23:28:00,70.3,67.2,30.00,NNE,30,0.0,0.0,90,0.00,,CLR,0.00,VWS V14.01,2013-08-29 03:28:00,
2013-08-28 23:29:00,70.3,67.2,30.00,NNE,30,0.0,0.0,90,0.00,,CLR,0.00,VWS V14.01,2013-08-29 03:29:00,
2013-08-28 23:30:00,70.3,67.5,30.00,NNE,30,0.0,0.0,91,0.00,,CLR,0.00,VWS V14.01,2013-08-29 03:30:00,
2013-08-28 23:31:00,70.3,67.5,30.00,NNE,30,0.0,0.0,91,0.00,,CLR,0.00,VWS V14.01,2013-08-29 03:31:00,
2013-08-28 23:32:00,70.3,67.2,30.00,NNE,30,0.0,0.0,90,0.00,,CLR,0.00,VWS V14.01,2013-08-29 03:32:00,
2013-08-28 23:33:00,70.3,67.2,30.00,NNE,30,0.0,0.0,90,0.00,,CLR,0.00,VWS V14.01,2013-08-29 03:33:00,
2013-08-28 23:34:00,70.1,67.3,30.00,NNE,30,0.0,0.0,91,0.00,,CLR,0.00,VWS V14.01,2013-08-29 03:34:00,
2013-08-28 23:35:00,70.1,67.0,30.00,NNE,30,0.0,0.0,90,0.00,,CLR,0.00,VWS V14.01,2013-08-29 03:35:00,
2013-08-28 23:36:00,70.1,67.0,30.00,NNE,30,0.0,0.0,90,0.00,,CLR,0.00,VWS V14.01,2013-08-29 03:36:00,
2013-08-28 23:37:00,70.1,67.0,30.00,NNE,30,0.0,0.0,90,0.00,,CLR,0.00,VWS V14.01,2013-08-29 03:37:00,
2013-08-28 23:38:00,70.1,67.0,30.00,NNE,30,0.0,0.0,90,0.00,,CLR,0.00,VWS V14.01,2013-08-29 03:38:00,
2013-08-28 23:39:00,69.9,66.8,30.00,NNE,30,0.0,0.0,90,0.00,,CLR,0.00,VWS V14.01,2013-08-29 03:39:00,
2013-08-28 23:40:00,69.9,67.1,30.00,NNE,30,0.0,0.0,91,0.00,,CLR,0.00,VWS V14.01,2013-08-29 03:40:00,
2013-08-28 23:41:00,69.9,67.1,30.00,NNE,30,0.0,0.0,91,0.00,,CLR,0.00,VWS V14.01,2013-08-29 03:41:00,
2013-08-28 23:42:00,69.9,66.8,30.00,NNE,30,0.0,0.0,90,0.00,,CLR,0.00,VWS V14.01,2013-08-29 03:42:00,
2013-08-28 23:43:00,69.9,67.1,30.00,NNE,30,0.0,0.0,91,0.00,,CLR,0.00,VWS V14.01,2013-08-29 03:43:00,
2013-08-28 23:44:00,69.8,67.0,29.99,NNE,30,0.0,0.0,91,0.00,,CLR,0.00,VWS V14.01,2013-08-29 03:44:00,
2013-08-28 23:45:00,69.8,66.7,29.99,NNE,30,0.0,0.0,90,0.00,,CLR,0.00,VWS V14.01,2013-08-29 03:45:00,
2013-08-28 23:46:00,69.8,66.7,29.99,NNE,30,0.0,0.0,90,0.00,,CLR,0.00,VWS V14.01,2013-08-29 03:46:00,
2013-08-28 23:47:00,69.8,66.7,29.99,NNE,30,0.0,0.0,90,0.00,,CLR,0.00,VWS V14.01,2013-08-29 03:47:00,
2013-08-28 23:48:00,69.6,66.5,29.99,NNE,30,0.0,0.0,90,0.00,,CLR,0.00,VWS V14.01,2013-08-29 03:48:00,
2013-08-28 23:49:00,69.6,66.5,29.99,NNE,30,0.0,0.0,90,0.00,,CLR,0.00,VWS V14.01,2013-08-29 03:49:00,
2013-08-28 23:50:00,69.6,66.5,29.99,NNE,30,0.0,0.0,90,0.00,,CLR,0.00,VWS V14.01,2013-08-29 03:50:00,
2013-08-28 23:51:00,69.6,66.5,29.99,NNE,30,0.0,0.0,90,0.00,,CLR,0.00,VWS V14.01,2013-08-29 03:51:00,
2013-08-28 23:52:00,69.4,66.3,29.99,NNE,30,0.0,0.0,90,0.00,,CLR,0.00,VWS V14.01,2013-08-29 03:52:00,
2013-08-28 23:53:00,69.4,66.3,29.99,NNE,30,0.0,0.0,90,0.00,,CLR,0.00,VWS V14.01,2013-08-29 03:53:00,
2013-08-28 23:54:00,69.4,66.3,29.99,NNE,30,0.0,0.0,90,0.00,,CLR,0.00,VWS V14.01,2013-08-29 03:54:00,
2013-08-28 23:55:00,69.4,66.3,29.99,NNE,30,0.0,0.0,90,0.00,,CLR,0.00,VWS V14.01,2013-08-29 03:55:00,
2013-08-28 23:56:00,69.4,66.3,29.99,NNE,30,0.0,0.0,90,0.00,,CLR,0.00,VWS V14.01,2013-08-29 03:56:00,
2013-08-28 23:57:00,69.3,66.2,29.99,NNE,30,0.0,0.0,90,0.00,,CLR,0.00,VWS V14.01,2013-08-29 03:57:00,
2013-08-28 23:58:00,69.3,66.5,30.00,NNE,30,0.0,0.0,91,0.00,,CLR,0.00,VWS V14.01,2013-08-29 03:58:00,
2013-08-28 23:59:00,69.3,66.5,29.99,NNE,30,0.0,0.0,91,0.00,,CLR,0.00,VWS V14.01,2013-08-29 03:59:00,